GFSMA_250_spd_000.txt.gz
Wind_Speed
16 19 22 22 23 25 27 31 32 31 30 30 30 25 22 23 21 21 17 18 20 22 20 19 17 16 17 13 8 10 12 9 8 9 13 10 8 7 7 6 6 8 9
20 21 21 28 28 28 30 31 29 29 30 32 29 29 29 25 24 25 23 23 23 23 24 24 23 22 16 17 13 10 13 15 13 12 13 14 11 9 8 7 4 3 5
24 22 21 27 28 31 34 36 39 38 36 30 29 30 30 29 29 29 27 25 27 28 27 24 24 23 21 19 18 15 15 17 18 17 15 15 16 13 10 7 6 3 2
24 25 25 29 31 32 35 40 42 49 46 42 35 29 31 35 32 31 34 33 29 29 30 29 27 22 22 22 20 19 18 18 22 22 21 19 19 18 14 11 7 3 2
25 28 31 33 34 34 36 39 39 43 49 59 46 36 34 33 36 36 35 35 36 32 32 33 31 27 24 24 25 24 22 23 19 27 26 24 23 22 20 16 12 7 2
25 28 32 34 35 36 36 39 41 42 46 49 62 48 34 35 37 38 39 38 36 36 35 33 35 32 28 25 29 28 28 25 23 25 30 27 28 25 24 21 16 12 8
25 31 34 36 38 37 37 40 46 43 44 48 49 63 55 33 36 40 41 41 40 39 39 38 36 35 33 29 28 33 32 29 27 23 33 31 31 29 27 25 21 17 13
28 31 36 37 41 43 42 44 47 50 48 52 57 53 65 60 34 36 42 45 44 44 42 41 41 40 39 37 35 35 37 35 30 26 31 36 35 33 30 28 26 21 18
30 32 36 39 42 47 47 46 48 48 53 53 59 57 61 70 59 35 37 44 49 48 47 45 43 44 42 40 40 40 39 40 37 34 29 36 39 37 35 32 30 27 22
33 35 37 39 42 46 49 48 49 49 50 53 60 58 60 70 74 55 34 41 47 52 52 49 48 46 47 45 43 43 44 45 43 39 36 34 39 41 38 36 32 31 28
33 36 37 41 44 44 51 50 50 51 51 53 61 62 56 62 71 75 46 31 42 50 55 54 54 51 50 50 47 44 49 49 49 45 41 38 39 42 41 41 37 33 29
35 38 42 44 48 45 53 49 51 53 49 52 59 64 57 55 70 70 61 42 31 42 51 56 57 57 55 54 55 51 48 53 53 52 46 43 41 43 45 44 42 39 34
38 41 44 45 46 47 53 52 52 52 50 52 59 65 53 51 65 67 72 57 45 36 41 52 59 60 60 57 56 57 54 55 57 56 55 49 45 43 45 47 46 43 39
43 44 47 46 45 50 54 53 54 54 52 52 61 60 50 51 61 70 78 74 54 48 42 41 52 62 64 64 60 60 61 58 61 61 60 58 52 48 45 44 47 47 43
48 47 47 50 54 54 55 55 54 54 52 55 59 57 51 56 61 76 80 82 84 51 52 45 46 55 66 68 68 65 65 66 63 65 65 64 60 54 49 46 45 46 46
52 52 53 57 57 57 56 57 54 55 56 58 63 61 58 64 75 78 81 84 73 53 50 55 54 53 61 68 73 72 70 69 68 67 68 68 66 62 55 50 47 46 47
61 56 56 57 60 57 62 62 59 60 57 62 64 67 59 66 74 79 82 85 78 69 52 61 62 61 60 63 70 77 76 74 73 70 68 70 70 67 63 57 50 48 47
61 56 57 58 59 62 62 65 64 61 62 69 69 68 66 63 85 88 88 90 87 82 60 53 65 71 63 59 64 69 78 78 77 77 73 71 72 73 69 65 60 52 48
50 57 60 62 67 66 64 67 65 65 71 68 68 65 63 76 80 90 91 92 95 90 59 49 60 68 68 59 56 64 70 81 80 78 79 76 75 75 73 70 66 63 57
56 61 65 70 71 66 70 69 69 69 71 68 70 71 66 76 89 95 95 102 105 77 63 53 53 64 64 61 54 53 65 71 81 82 81 82 79 75 76 73 71 67 66
67 64 68 71 74 78 71 68 67 70 72 75 70 64 63 73 102 98 106 107 111 77 63 51 50 56 62 60 60 54 58 65 72 81 81 81 84 79 76 77 74 70 67
73 69 74 83 78 74 71 72 75 74 69 80 73 73 72 89 103 107 109 110 117 76 66 56 45 45 55 57 61 58 54 58 65 70 82 86 84 86 82 78 77 75 70
76 74 83 87 80 73 74 73 78 77 75 75 66 72 92 104 105 107 114 116 105 84 75 60 46 40 47 56 60 61 57 50 52 64 73 85 84 84 89 82 78 76 74
83 87 84 87 85 78 77 79 73 64 65 67 69 84 98 100 105 105 114 119 97 88 80 58 44 42 42 54 58 59 58 56 56 59 66 77 86 84 85 87 81 77 73
82 81 84 90 80 79 75 66 58 62 62 68 81 93 99 108 106 113 115 112 98 96 82 62 46 39 42 48 53 54 59 60 61 61 57 67 82 87 82 85 84 79 75
81 81 82 73 57 58 58 60 57 61 74 91 113 109 107 106 108 114 116 105 104 95 84 60 49 41 37 38 47 50 56 58 63 64 58 64 74 79 83 80 89 83 78

GFSMA_250_spd_003.txt.gz
Wind_Speed
25 25 29 26 26 28 28 35 38 41 40 32 21 17 18 19 22 18 16 16 15 16 17 19 16 14 13 8 8 6 8 8 8 11 11 10 7 6 6 6 5 7 7
24 24 26 25 26 26 30 32 40 39 41 47 51 27 19 22 21 23 22 21 18 20 18 19 22 17 16 13 12 10 9 12 12 13 13 14 10 8 8 7 6 5 5
22 23 24 26 26 27 29 33 34 41 42 42 41 56 41 22 25 25 25 26 25 22 21 22 20 21 22 19 16 15 12 13 16 16 16 14 15 13 12 9 7 5 4
19 22 25 25 28 30 29 30 33 38 43 46 51 40 52 50 20 26 32 29 29 28 27 23 26 24 23 24 21 19 16 17 16 20 20 18 19 18 16 14 10 7 5
17 21 24 27 29 34 36 34 35 38 42 43 47 44 47 50 58 27 25 34 33 30 30 30 27 30 27 24 24 24 24 24 22 21 24 26 22 22 20 18 14 10 7
21 22 25 28 31 35 37 39 38 37 39 42 43 46 46 52 51 58 28 25 34 35 34 32 33 31 32 32 29 26 28 28 25 27 25 29 29 25 24 23 20 15 11
25 24 24 29 32 37 37 40 42 39 39 39 42 45 49 55 49 57 58 23 25 36 39 38 35 36 34 36 37 32 32 33 32 30 27 32 34 32 29 28 25 20 16
26 29 28 29 31 37 37 37 44 43 42 41 39 43 49 55 50 50 60 60 25 27 38 42 41 39 38 38 38 36 36 39 38 34 33 30 37 36 34 31 29 26 21
27 28 30 30 33 38 40 39 42 48 46 44 40 39 46 50 51 52 54 59 58 39 30 42 45 44 43 42 42 43 40 39 43 42 40 35 38 40 38 35 32 30 26
31 30 31 32 36 39 39 38 43 47 48 48 44 42 44 49 55 50 58 58 61 62 40 28 44 48 48 47 45 45 47 46 44 47 45 42 37 42 42 41 37 35 31
32 32 33 35 38 40 42 38 43 47 49 48 48 46 46 51 52 45 49 56 62 61 57 31 29 46 51 51 51 49 48 51 50 48 49 48 43 40 45 45 43 39 36
34 33 34 36 39 41 43 45 46 46 49 48 48 46 47 54 57 53 58 52 60 62 60 67 36 32 48 54 55 54 54 52 53 53 51 52 50 46 44 49 48 45 41
37 38 37 38 42 48 49 50 47 45 44 49 47 47 48 54 60 60 57 62 58 63 71 74 61 33 33 48 57 60 59 58 57 55 58 56 55 52 49 47 51 49 46
42 42 41 44 52 53 45 47 44 42 46 44 50 48 47 56 61 60 54 58 62 66 74 75 75 50 33 35 50 62 65 64 64 63 58 62 61 58 54 51 51 53 52
42 46 50 53 50 47 44 42 39 44 46 46 49 53 53 58 61 61 57 61 59 60 79 80 83 77 32 37 43 56 66 70 70 69 66 64 66 64 61 57 54 54 55
48 50 51 50 47 46 43 44 44 48 47 47 52 61 61 61 62 63 60 67 60 69 81 86 93 85 53 47 52 57 65 72 75 75 73 69 69 69 67 63 58 56 57
50 52 47 41 44 45 48 53 54 51 49 56 58 69 67 66 60 66 65 70 66 70 80 86 87 84 73 51 54 54 66 73 79 80 79 77 72 73 72 68 64 58 55
44 58 53 52 53 48 60 61 58 56 56 66 68 69 65 68 68 65 67 65 68 72 86 88 87 91 86 58 53 55 54 70 76 83 82 82 78 73 74 74 70 64 59
45 61 65 58 57 63 70 68 63 64 72 75 74 72 69 73 69 78 64 68 73 81 90 97 92 97 80 72 55 55 51 52 71 76 84 84 84 80 76 77 77 71 65
53 56 63 60 55 68 75 73 76 74 77 74 74 77 71 73 72 65 62 73 86 87 98 101 99 92 83 70 55 50 53 47 52 75 78 84 85 88 83 78 79 78 72
50 62 67 67 67 70 70 76 75 78 79 77 78 70 79 79 79 67 63 81 91 99 103 103 95 87 78 72 55 46 46 48 51 66 78 79 88 91 89 84 79 81 78
49 70 73 75 76 80 85 89 84 88 88 87 84 79 85 89 83 70 74 90 98 103 109 110 108 100 82 68 51 46 42 47 51 57 71 79 81 90 94 89 83 79 81
52 61 73 78 78 79 80 82 83 87 87 89 83 89 90 83 80 80 86 99 106 107 108 115 113 96 83 66 49 45 42 44 50 52 60 72 71 81 91 91 86 81 79
68 73 79 80 80 80 83 87 88 88 90 84 86 74 76 81 86 85 96 102 104 107 113 116 108 90 82 66 52 42 40 43 47 48 52 61 68 73 79 90 90 86 80
65 71 77 77 83 86 84 85 84 77 77 75 74 74 79 83 91 97 98 98 106 112 116 111 98 85 73 63 49 42 37 42 44 46 44 48 63 70 74 85 92 91 87
64 70 76 78 80 80 81 82 78 69 69 72 75 83 90 90 93 97 100 106 116 115 116 101 92 77 71 58 45 38 35 41 41 42 36 51 63 69 76 85 91 92 87

GFSMA_250_spd_006.txt.gz
Wind_Speed
21 21 23 23 23 24 27 29 32 34 34 38 29 43 37 12 17 15 18 17 15 15 16 20 18 14 15 15 11 9 11 11 10 11 10 9 7 10 7 5 7 8 8
20 19 20 23 25 24 27 29 31 34 35 35 33 40 43 43 13 23 21 22 21 19 20 18 21 20 18 17 16 14 10 13 14 13 13 13 11 10 9 10 8 7 8
18 19 21 19 21 24 25 27 32 34 36 32 32 36 49 42 44 21 26 27 27 26 25 23 22 22 23 22 19 18 17 13 14 16 16 16 16 12 11 11 9 8 7
16 17 16 19 23 27 28 30 31 36 35 37 32 32 39 46 38 48 30 22 32 30 30 29 26 27 26 26 24 24 21 17 22 18 20 19 18 18 15 14 12 9 8
17 19 20 21 25 27 30 30 28 35 38 37 36 36 33 40 46 51 40 38 17 32 35 33 33 29 30 30 29 29 27 26 21 21 21 25 22 22 20 19 16 12 9
21 22 22 21 23 26 29 33 31 34 36 37 39 38 36 36 39 45 51 46 34 15 30 39 36 34 31 34 33 30 30 30 29 24 22 26 28 26 25 24 21 17 13
23 24 25 24 23 26 29 32 36 32 38 36 35 36 38 37 41 42 46 47 56 40 28 27 43 37 35 37 40 38 35 33 33 33 30 26 30 33 30 28 26 22 19
25 25 26 27 27 27 30 32 36 34 40 39 35 34 38 36 38 44 46 44 41 39 47 46 25 43 39 38 40 42 43 37 36 37 37 33 31 35 38 33 31 29 25
26 26 27 27 28 28 29 31 34 35 39 36 35 35 35 40 37 42 47 47 59 51 39 44 55 22 43 45 43 44 46 45 42 41 41 41 37 36 40 42 37 35 32
28 28 27 27 27 28 30 31 38 37 36 34 33 34 33 39 47 42 48 49 53 56 40 45 52 52 28 43 48 45 46 47 46 48 47 46 45 41 40 45 43 40 38
30 30 31 30 30 30 33 38 43 34 35 37 34 34 36 36 44 54 48 52 54 53 52 41 47 54 46 18 42 51 49 49 50 50 52 50 50 48 46 44 47 45 42
34 35 35 34 36 36 41 43 37 37 35 35 35 36 36 34 48 49 42 45 54 56 54 51 54 52 49 46 19 41 54 53 54 57 57 55 52 54 51 48 50 50 47
40 39 38 40 41 42 45 38 36 42 39 39 42 47 42 41 51 45 48 49 52 57 55 43 51 49 55 52 37 25 44 58 62 62 63 64 61 57 57 55 51 54 52
44 42 42 42 37 36 39 39 44 48 47 40 46 51 48 46 45 48 54 55 59 49 54 45 45 55 56 50 54 46 31 47 66 70 69 69 69 65 61 61 58 56 57
44 45 41 39 37 39 38 43 49 50 40 42 62 59 49 49 53 52 58 63 67 54 47 41 45 51 61 61 61 62 44 32 55 75 77 75 73 72 69 67 65 60 60
48 40 40 39 34 42 47 45 47 47 47 58 59 56 56 58 62 62 60 59 61 58 51 47 52 60 67 65 68 77 51 47 47 68 84 84 80 77 75 73 72 68 63
45 42 41 45 45 47 50 51 51 52 56 60 62 58 58 64 70 60 61 61 63 62 52 54 63 66 73 75 77 77 63 64 48 62 78 91 90 85 80 78 77 74 70
46 44 41 43 46 53 49 48 57 57 60 65 62 63 69 71 63 63 66 58 64 61 55 55 60 75 77 85 88 72 82 74 54 51 60 87 95 93 87 83 83 79 75
44 42 43 53 59 54 53 56 61 65 64 66 70 70 70 70 67 64 65 70 62 58 61 60 67 74 83 88 90 88 95 73 49 50 51 68 89 97 94 88 86 85 80
48 47 47 51 56 61 65 66 67 68 70 72 70 71 69 73 74 75 68 62 62 62 64 67 73 79 86 89 91 95 96 79 51 46 47 57 68 91 97 93 89 88 87
49 49 56 54 55 62 65 68 71 72 74 79 71 72 76 80 76 72 75 69 70 67 70 74 78 85 92 94 95 102 92 67 53 43 45 50 59 75 95 99 94 89 89
50 54 56 57 61 62 69 72 73 73 79 82 82 82 81 78 77 72 76 71 71 73 77 82 90 90 96 97 99 86 78 54 48 45 43 53 58 65 84 96 98 92 87
55 56 63 63 65 70 71 72 78 82 84 80 80 80 75 70 70 72 73 72 74 79 85 86 86 89 95 100 90 78 67 55 44 45 42 53 55 65 72 87 93 96 92
64 68 68 69 69 69 71 73 74 77 81 81 78 77 73 74 69 72 75 79 82 80 81 88 93 94 97 93 77 69 64 54 46 43 41 52 55 66 62 75 93 98 95
69 70 71 74 73 66 71 73 75 77 76 74 68 67 67 68 71 74 76 79 81 88 90 94 98 90 81 76 67 66 61 51 44 41 37 42 51 60 62 70 84 95 99
72 72 73 69 68 69 71 75 70 63 66 66 70 70 72 76 75 77 79 80 86 89 91 91 78 74 77 74 63 57 51 48 40 37 30 38 48 55 66 65 78 88 94

GFSMA_250_spd_009.txt.gz
Wind_Speed
20 20 20 21 26 28 32 27 33 32 33 32 28 36 37 39 38 13 24 21 20 19 18 23 20 14 14 15 13 10 8 15 11 9 11 11 6 9 8 3 3 7 9
15 16 15 17 21 26 30 29 32 34 33 33 35 30 33 36 46 39 14 26 25 22 23 22 25 24 21 19 18 17 14 9 11 15 11 13 12 8 10 8 6 5 7
17 15 15 16 18 22 25 30 29 31 36 34 33 36 29 31 38 39 43 29 30 29 25 25 23 24 26 23 21 19 18 18 15 13 14 13 15 14 11 12 10 7 6
18 19 19 20 20 22 22 25 27 31 34 34 33 34 34 32 35 39 43 35 35 25 31 30 27 27 25 27 28 24 22 20 19 13 21 16 16 16 14 14 12 10 9
20 21 21 20 21 23 24 24 25 28 29 34 33 33 36 36 35 39 42 48 45 30 16 35 36 33 32 30 31 32 27 25 24 25 18 19 19 20 18 18 16 14 11
23 24 24 23 22 23 24 24 25 26 28 32 29 29 32 39 42 41 38 35 49 32 38 25 36 39 36 34 36 36 35 29 29 29 24 19 22 23 24 21 22 19 16
22 23 24 25 24 22 23 22 23 26 31 29 23 28 26 31 35 41 47 47 38 42 38 27 29 24 42 37 39 40 38 36 32 32 31 28 22 25 27 27 25 25 21
22 24 24 24 23 23 23 23 26 31 36 27 26 23 29 28 30 40 44 48 44 46 41 36 31 30 21 44 42 42 44 41 38 37 35 33 32 28 29 32 31 30 28
23 23 25 26 26 25 26 26 30 33 35 30 27 28 29 34 32 28 45 41 45 49 51 46 27 25 20 27 45 44 45 46 43 42 42 39 37 36 35 31 35 35 34
25 27 27 27 28 29 27 29 32 35 26 32 29 32 29 34 32 35 37 38 44 48 44 47 41 26 27 14 24 44 46 47 48 48 46 46 44 43 42 40 36 40 39
27 29 30 32 31 32 31 31 28 30 24 30 35 35 35 36 46 36 36 32 40 44 46 47 42 40 23 23 20 9 40 49 50 52 54 52 52 50 48 47 44 41 44
33 34 35 34 36 36 36 31 29 30 30 34 35 40 38 40 47 40 33 39 40 49 50 44 42 39 40 29 24 20 10 12 39 55 56 58 57 58 56 54 52 50 46
38 40 41 40 38 31 32 31 35 35 38 38 41 44 38 40 51 48 44 42 45 43 45 44 42 39 43 40 39 37 30 20 19 23 59 61 61 64 64 61 59 58 54
41 43 42 40 33 38 38 32 33 40 43 43 48 47 45 52 51 52 45 43 52 46 44 43 39 44 42 56 42 41 24 30 33 25 29 58 70 71 71 71 66 65 61
44 43 45 42 39 39 37 37 42 44 49 51 51 50 51 51 54 49 51 56 49 45 47 45 44 44 47 48 46 46 49 48 35 35 30 39 57 76 79 78 75 69 68
47 48 47 42 40 42 43 44 50 51 53 53 53 55 56 54 53 54 58 57 50 46 43 49 53 52 50 50 52 50 56 55 53 59 37 39 45 69 84 86 83 78 72
53 54 47 44 42 41 45 46 47 50 54 55 59 59 61 58 60 65 60 50 49 51 50 52 55 58 59 51 57 62 60 63 69 65 45 39 47 68 90 93 91 87 80
57 54 48 44 46 46 46 48 51 52 53 57 61 64 64 66 61 62 54 54 55 53 49 52 60 61 64 56 59 64 67 73 74 63 55 45 46 65 90 100 97 94 90
59 56 49 47 48 51 50 50 56 58 62 63 64 67 62 59 62 60 62 57 59 61 59 53 53 57 58 58 62 68 72 75 69 74 75 64 49 55 71 85 102 100 96
56 56 51 50 51 52 54 56 63 63 64 67 69 71 73 77 82 76 65 64 69 66 57 55 51 50 62 67 69 73 66 74 79 86 81 59 51 54 60 72 83 102 101
56 56 52 53 54 58 60 66 68 68 68 68 70 73 79 82 78 74 70 66 61 60 58 56 54 63 65 70 73 71 78 88 87 84 69 58 53 52 56 63 74 92 102
55 55 53 55 58 61 65 66 70 72 69 70 70 71 72 71 72 73 67 66 67 68 65 64 67 70 72 75 77 83 91 88 80 74 68 66 54 50 52 57 72 79 99
56 55 54 56 59 63 69 72 72 70 68 68 69 69 70 72 71 71 71 71 72 64 61 60 66 71 70 80 89 94 92 80 74 78 70 63 53 48 52 55 68 73 86
61 60 57 58 61 67 70 73 73 70 71 67 65 69 69 66 67 71 68 66 66 67 65 74 81 74 84 85 85 83 76 74 78 77 74 55 48 48 50 53 62 65 77
65 62 63 65 67 70 72 73 72 71 66 67 73 71 71 70 73 76 75 72 68 68 69 71 78 81 83 79 76 73 75 76 76 70 59 43 45 45 43 51 58 65 70
69 70 70 72 72 71 74 75 72 73 65 69 71 69 68 81 80 71 69 70 72 74 76 78 77 76 77 79 78 78 79 74 60 58 48 42 44 38 43 50 55 64 67

GFSMA_250_spd_012.txt.gz
Wind_Speed
15 12 15 20 20 20 19 24 28 29 33 29 30 28 26 32 34 31 33 11 26 22 21 25 22 17 19 19 16 11 7 6 4 8 8 7 6 6 7 3 3 5 5
15 13 14 17 20 21 21 24 27 29 32 32 31 31 30 33 37 41 43 31 11 25 22 24 27 27 20 20 18 18 15 14 8 5 7 11 9 7 8 8 6 6 6
17 18 17 17 19 22 25 27 25 26 29 27 30 33 33 33 41 38 42 40 41 6 23 24 25 25 30 24 21 22 20 17 17 14 11 10 14 12 10 10 11 8 8
19 19 19 20 22 23 23 24 23 24 30 28 21 26 28 28 37 40 41 40 40 36 25 16 29 27 27 28 27 26 23 21 22 21 15 9 18 17 14 13 14 12 10
19 20 20 21 21 22 22 22 21 20 28 29 22 18 23 30 30 34 36 37 38 42 34 25 14 30 32 30 30 32 28 27 25 23 23 18 12 20 17 16 16 16 14
19 20 21 20 20 20 21 22 21 23 25 29 23 21 22 32 33 34 31 33 32 38 39 35 24 17 24 35 35 36 35 33 33 28 28 26 21 15 21 19 20 21 19
20 19 19 20 20 21 21 20 21 23 24 26 20 24 25 23 31 37 36 31 29 28 31 30 27 28 20 23 38 39 40 38 37 37 32 31 28 24 19 24 23 23 24
18 19 22 23 24 24 23 24 24 26 28 25 17 22 25 27 28 35 41 35 29 27 29 33 31 25 30 26 21 41 43 42 40 37 37 36 33 31 29 23 27 27 27
22 24 24 24 25 25 26 27 28 28 25 22 22 24 26 22 26 29 34 41 39 33 29 31 30 26 26 30 26 19 43 45 45 44 40 39 39 36 33 33 29 30 30
25 27 29 30 30 30 31 29 29 25 24 27 28 30 30 32 29 28 35 40 42 39 31 35 29 25 21 13 18 19 24 45 48 47 48 45 44 44 40 39 38 34 32
29 30 33 35 35 33 34 28 30 31 28 28 30 35 30 37 35 36 37 43 40 37 36 36 33 26 26 17 10 25 13 23 45 51 52 52 50 47 49 47 44 43 42
32 35 38 40 42 41 35 31 33 34 29 32 34 35 39 40 41 41 39 38 38 35 38 42 40 32 26 30 29 31 22 14 17 29 44 53 57 55 53 52 53 49 48
35 37 40 44 45 46 42 39 37 34 37 38 42 41 42 41 43 46 46 43 39 37 39 42 37 33 35 34 35 37 34 24 19 17 16 21 41 55 60 60 58 58 56
37 40 41 45 49 48 44 41 41 38 40 41 41 43 43 44 46 48 48 48 42 43 47 44 38 38 38 41 45 47 45 33 31 30 28 26 20 46 59 65 66 66 66
40 43 46 46 48 46 42 40 42 44 45 43 43 46 47 47 49 49 51 53 54 50 46 46 36 39 38 40 43 51 52 47 48 41 36 32 33 26 49 65 74 73 72
42 45 48 52 51 50 46 39 40 44 45 45 47 52 53 52 51 52 53 55 55 52 54 44 49 40 45 48 49 52 56 55 52 43 47 41 39 42 35 55 75 82 82
45 50 52 54 52 50 49 43 44 47 49 48 53 58 59 59 58 58 62 63 54 61 64 57 48 47 44 46 52 54 58 58 53 50 50 51 55 44 46 44 55 81 91
48 51 56 57 55 54 52 50 49 48 53 54 60 62 62 61 61 61 64 68 65 69 65 57 53 55 59 52 49 55 56 57 57 57 58 59 55 45 45 43 60 67 86
52 55 58 59 57 55 54 54 54 56 58 57 63 66 65 65 63 59 60 59 63 62 59 58 62 66 63 60 55 56 51 56 60 61 63 63 64 61 64 59 49 57 76
54 57 61 62 58 58 57 57 55 58 60 63 65 65 66 65 66 64 62 60 59 60 62 61 62 63 61 62 62 60 58 61 67 71 66 69 76 82 77 72 58 54 74
56 58 62 65 62 58 58 58 56 60 65 67 69 68 68 65 65 62 59 61 64 63 69 67 69 64 63 65 60 59 60 68 71 80 76 80 87 84 81 71 58 59 67
58 59 63 64 63 61 61 61 60 61 66 69 69 70 67 66 68 65 61 65 66 68 69 67 73 73 65 58 61 60 63 76 75 88 86 89 86 78 74 69 61 60 60
61 64 65 65 64 66 64 63 63 67 71 69 69 68 66 65 64 61 65 68 69 69 74 78 69 68 65 62 68 64 76 80 85 88 88 82 81 77 77 73 67 61 58
66 67 66 66 67 67 64 64 69 71 68 68 71 68 67 66 66 63 70 69 73 76 85 75 79 71 66 66 72 74 79 81 81 82 85 78 79 80 76 71 60 52 51
71 71 71 70 70 70 65 72 74 70 74 76 73 63 61 71 71 65 68 84 86 86 79 80 72 68 67 70 73 72 73 74 76 82 86 80 79 77 64 56 48 45 45
76 75 75 74 73 72 74 78 75 76 76 77 66 70 69 69 73 78 88 89 84 80 78 72 66 66 64 67 71 73 76 79 83 84 81 75 68 55 53 50 47 43 44

GFSMA_250_spd_015.txt.gz
Wind_Speed
13 15 16 16 17 18 19 20 20 25 24 27 23 22 29 28 30 36 32 29 13 32 24 21 23 24 22 22 21 17 13 10 7 2 6 8 10 7 8 6 4 1 5
14 14 14 15 17 17 16 17 18 21 22 18 21 23 24 28 30 34 37 35 33 3 21 19 22 27 24 21 21 21 22 19 12 9 4 8 10 11 9 9 6 6 5
15 16 16 17 16 18 18 19 18 18 23 18 13 19 24 23 24 25 30 35 32 25 9 17 21 22 26 30 24 25 22 25 21 20 14 12 9 10 12 11 11 9 7
14 14 16 16 18 18 17 18 16 18 19 21 14 17 18 24 27 29 24 25 33 34 29 12 6 21 28 26 30 32 28 26 26 23 22 14 14 12 15 15 13 13 11
16 15 15 16 17 18 19 18 17 15 17 20 16 14 21 17 21 28 29 21 21 28 32 32 20 11 12 30 31 33 31 31 29 24 25 23 20 13 16 17 16 16 15
17 18 18 18 19 20 21 20 20 19 20 22 19 15 16 20 20 24 27 29 27 21 24 24 29 21 20 5 32 35 35 35 33 33 25 26 26 22 16 19 20 18 19
16 18 21 24 25 26 24 25 25 25 22 21 14 15 24 25 23 26 27 27 28 29 22 23 26 24 26 20 7 27 39 36 36 35 36 33 30 29 25 19 21 22 22
19 22 24 26 29 29 28 28 28 27 26 24 18 21 20 26 25 26 28 28 32 26 28 20 23 22 27 25 27 13 22 39 39 40 37 39 36 33 33 29 23 23 25
20 25 27 29 31 33 34 34 26 24 25 25 25 26 27 27 27 26 25 29 33 36 27 31 23 20 18 22 21 22 21 14 32 43 43 40 42 40 37 35 33 28 28
24 27 28 32 36 39 40 39 33 28 27 25 22 21 24 25 30 32 32 30 28 32 36 32 28 29 23 17 19 18 21 21 18 23 41 46 43 41 43 41 39 36 33
24 28 31 34 37 41 43 42 38 31 29 30 29 29 29 29 30 29 32 35 35 35 32 36 39 30 34 26 18 25 26 21 21 21 21 37 48 48 46 45 47 45 41
26 29 32 35 38 42 44 45 42 37 29 29 31 32 31 29 32 34 35 37 34 37 39 37 30 39 40 35 30 26 26 26 23 22 29 25 32 47 55 55 49 50 49
30 31 34 35 39 41 43 43 43 41 36 31 33 31 34 35 40 43 42 37 37 36 35 38 39 39 39 43 38 34 27 30 36 38 28 32 28 32 47 58 63 61 56
33 34 36 36 39 42 45 44 42 42 39 37 37 39 39 41 44 46 46 42 37 36 36 43 43 44 43 37 41 45 38 33 36 41 37 37 36 35 39 44 56 67 68
33 37 38 39 41 43 46 47 43 42 39 37 41 44 46 47 48 48 47 47 49 47 44 46 48 43 42 48 46 43 46 49 46 45 47 46 44 40 42 44 39 51 64
35 39 41 43 46 46 48 49 47 43 43 43 45 43 45 47 49 48 51 54 50 51 50 44 46 47 47 42 43 43 48 47 49 50 52 51 47 47 48 47 50 37 48
40 41 44 46 48 50 50 52 51 49 47 46 46 48 50 51 51 53 52 53 46 48 47 41 42 39 38 43 39 40 47 53 57 61 56 54 59 60 57 57 46 49 49
43 46 46 48 50 52 53 54 54 54 54 54 53 51 54 58 57 56 54 52 50 55 52 45 43 43 48 46 42 50 48 49 55 61 62 64 64 67 66 63 60 56 54
45 47 50 52 54 55 58 60 59 58 56 55 59 58 59 63 59 61 59 61 61 57 53 50 50 53 56 55 52 48 56 58 56 60 64 62 66 70 69 74 72 57 53
49 50 51 52 54 57 60 63 64 60 58 60 62 66 68 63 61 65 64 64 62 57 56 56 58 61 66 67 61 65 64 50 54 55 61 64 70 69 70 73 75 71 63
53 54 55 54 55 58 62 65 63 61 61 64 67 67 70 64 64 67 66 68 63 61 61 59 61 70 72 70 69 77 65 67 66 62 60 61 68 66 66 73 83 87 79
55 58 58 58 60 60 64 66 66 63 66 69 70 71 67 69 67 66 68 68 65 60 61 65 74 82 79 78 78 68 69 70 64 66 61 73 77 75 79 84 89 91 89
61 62 63 63 63 64 61 65 67 66 67 72 74 73 70 67 71 70 70 64 61 65 67 72 72 83 86 78 73 69 68 66 64 68 67 70 77 79 84 82 84 84 77
66 67 68 67 67 68 68 69 69 66 71 74 75 74 73 73 72 70 65 57 62 79 76 82 88 82 78 77 72 65 65 63 65 67 66 66 72 75 79 80 81 81 76
71 74 63 70 73 74 74 73 73 73 75 75 75 74 74 74 73 71 73 72 75 76 85 88 84 80 78 76 75 72 72 72 72 76 80 75 80 81 81 83 81 77 68
73 70 74 79 78 77 76 77 79 78 77 77 75 78 76 76 75 75 75 78 81 84 85 83 81 79 79 80 80 79 80 79 79 81 85 78 80 77 73 70 63 55 48

GFSMA_250_spd_018.txt.gz
Wind_Speed
12 13 15 16 15 16 15 14 13 17 13 15 15 19 19 21 20 24 32 34 32 18 11 7 15 17 18 19 19 19 14 11 8 5 6 8 12 10 9 10 7 6 9
16 15 17 18 17 16 18 16 15 15 13 10 11 13 16 18 24 17 22 29 33 25 12 12 12 12 18 20 21 22 24 23 20 15 13 11 12 13 11 11 11 9 7
17 17 16 16 20 22 23 21 18 17 17 14 8 15 13 15 18 23 22 22 26 29 22 13 12 22 21 20 23 27 24 23 22 23 19 17 13 13 13 12 14 13 11
16 16 18 21 23 25 24 22 22 23 22 22 18 10 15 18 15 18 20 23 24 21 22 21 16 10 14 26 26 26 29 30 25 24 25 22 19 17 13 16 15 14 15
17 20 22 23 24 23 24 23 23 23 25 24 20 12 15 22 13 13 16 19 21 21 16 18 19 17 16 16 22 33 29 31 28 26 26 26 25 22 20 16 19 19 17
17 19 22 24 27 29 30 30 26 24 22 22 21 20 19 22 22 22 16 16 17 19 20 16 19 20 19 14 14 19 35 32 32 30 29 29 26 27 27 22 20 21 21
17 20 21 24 27 29 31 33 32 23 22 22 19 18 24 25 24 22 23 20 22 20 17 14 16 18 24 22 13 10 12 34 38 35 35 36 33 29 29 29 25 21 24
16 19 22 25 28 31 34 35 35 32 24 23 21 18 18 21 24 27 28 25 27 27 22 19 16 15 21 23 21 17 18 11 25 41 37 37 37 37 34 32 31 27 24
18 21 23 27 31 33 36 36 36 34 31 23 23 23 22 22 22 20 24 28 30 30 29 28 21 18 21 19 22 24 22 19 12 10 36 44 38 37 37 36 34 32 32
19 22 26 29 31 33 37 39 39 37 35 30 25 25 26 24 24 27 28 28 28 32 32 34 35 30 23 25 20 27 27 23 21 19 15 23 42 47 43 41 42 40 37
20 23 25 28 31 32 35 37 38 36 33 33 29 26 29 27 27 31 33 37 39 35 30 27 31 36 36 26 30 26 29 28 23 26 26 21 19 28 41 48 45 45 45
21 24 27 29 32 33 35 36 37 37 35 34 32 28 28 31 30 35 36 40 41 40 39 37 32 27 30 37 33 34 30 30 32 29 31 33 29 31 32 39 51 49 50
23 25 28 31 33 34 35 35 35 36 34 34 34 33 34 33 34 36 37 39 39 39 39 40 42 41 37 32 34 37 39 37 37 37 34 38 39 37 34 39 38 44 54
25 28 30 32 34 36 37 38 37 36 36 34 35 37 36 36 36 37 38 37 37 38 38 35 36 40 38 39 38 39 39 42 44 42 42 40 38 39 39 37 37 41 40
27 29 32 35 37 38 41 40 39 41 40 39 37 38 34 37 40 43 43 37 37 38 38 38 42 45 43 38 36 28 29 33 42 44 46 47 48 49 45 46 51 45 47
32 33 35 37 39 41 44 45 44 45 45 43 41 39 41 43 46 49 44 41 44 43 39 44 43 41 36 36 33 34 35 34 31 30 37 46 52 53 53 49 53 53 49
35 37 38 40 42 43 44 48 49 51 51 51 47 45 46 46 52 53 48 48 46 48 54 51 50 42 36 34 35 37 44 47 44 42 41 43 45 53 60 60 55 51 56
37 39 40 42 44 46 47 49 51 54 57 57 54 52 51 52 56 59 57 52 52 56 55 54 52 52 47 41 40 44 46 55 51 48 50 49 55 60 61 58 58 59 58
43 44 44 45 47 49 52 53 53 57 60 62 58 57 58 60 65 64 63 59 59 58 57 60 60 55 55 46 47 49 57 54 56 54 62 59 62 56 60 62 62 67 68
48 47 48 50 50 52 56 58 58 57 62 65 65 61 63 67 68 69 67 66 65 64 63 63 62 60 57 55 56 57 60 56 66 65 61 61 60 58 60 62 65 69 73
51 51 52 55 57 57 60 63 62 58 59 63 68 62 69 69 69 72 70 72 70 70 70 71 66 60 57 65 63 62 63 70 70 66 61 61 60 61 61 59 66 71 76
55 55 56 58 59 61 63 66 49 64 67 65 65 69 73 71 74 74 72 74 74 72 71 71 59 70 71 72 69 71 73 73 70 70 64 67 62 61 60 62 63 68 74
60 59 61 62 64 66 65 36 66 70 70 72 71 72 74 76 76 72 76 75 72 73 72 69 62 71 73 74 69 69 74 74 74 76 72 71 70 66 67 67 69 71 72
64 62 64 66 66 64 48 62 73 72 75 72 76 74 75 79 79 72 74 73 75 73 71 66 73 73 73 71 70 72 77 80 81 81 77 73 77 75 77 78 79 79 80
68 66 69 70 70 64 71 78 74 76 74 79 76 74 80 80 77 73 75 74 74 75 71 74 76 73 73 74 77 82 84 81 81 82 82 72 76 76 77 79 80 80 79
71 71 72 74 77 78 65 71 77 82 83 76 79 81 83 80 77 79 73 76 72 71 75 79 77 79 80 83 87 90 89 86 80 77 78 68 64 61 61 63 64 63 60

GFSMA_250_spd_021.txt.gz
Wind_Speed
17 20 20 20 20 21 18 16 17 8 16 14 16 15 18 20 19 19 22 29 28 22 4 7 7 9 12 12 15 15 14 12 9 9 8 9 11 11 9 9 8 7 8
19 20 21 23 23 23 21 19 16 15 19 19 14 15 15 16 19 20 24 23 23 24 16 12 10 10 7 13 15 17 18 19 17 17 16 14 13 12 14 13 11 10 10
19 22 23 24 24 23 24 22 20 19 19 20 21 13 12 20 17 17 17 21 24 20 17 15 8 9 12 12 10 15 20 21 19 19 21 21 17 16 14 14 14 14 11
19 23 25 26 28 30 31 30 25 21 19 18 16 13 13 18 17 17 12 13 17 19 15 16 17 15 16 14 14 13 19 22 25 23 22 22 23 21 20 17 15 16 16
19 21 22 26 29 31 32 32 32 28 22 21 21 15 15 16 18 19 16 13 11 11 13 17 15 14 16 18 15 10 15 23 25 22 24 22 23 25 23 21 18 17 20
18 18 21 24 28 32 33 33 33 31 26 22 21 21 20 18 20 19 20 17 18 18 11 13 16 17 16 18 15 14 13 14 32 29 29 27 25 24 24 26 24 22 21
13 16 20 25 28 31 33 34 33 30 27 23 19 20 22 23 23 21 21 21 22 25 24 18 13 16 15 17 17 12 12 15 14 29 31 31 31 30 27 26 27 26 25
13 17 22 26 28 30 31 33 34 33 32 30 26 22 22 23 25 26 28 31 32 32 30 26 22 17 17 17 18 21 18 21 20 14 27 36 38 37 36 33 32 29 28
15 18 21 25 28 30 33 34 35 34 31 31 31 31 28 25 24 28 28 31 32 36 36 34 31 26 23 19 21 21 22 25 22 20 15 24 36 37 39 36 35 35 34
14 17 19 22 25 29 32 33 34 32 31 32 32 32 31 30 29 27 30 31 32 36 34 35 36 35 31 28 23 23 26 26 23 27 25 24 20 30 37 37 36 39 38
16 17 20 22 26 30 31 32 33 33 35 35 33 32 31 31 29 28 31 33 36 37 38 35 35 36 32 33 32 26 26 28 29 30 30 33 28 28 25 28 38 39 43
18 19 20 24 27 29 31 32 35 35 35 34 33 34 33 29 30 30 33 37 38 36 33 33 33 30 31 32 33 35 35 31 32 31 33 31 35 32 35 36 32 32 39
19 20 22 24 27 29 31 33 34 34 35 34 33 33 33 30 32 34 37 39 37 34 36 38 37 39 39 37 37 38 35 33 32 33 39 39 41 40 39 42 41 38 36
22 22 24 25 27 29 31 33 35 35 35 36 36 37 35 31 30 32 39 43 44 45 42 40 39 48 46 40 36 32 28 26 29 30 34 39 47 48 41 45 41 40 38
23 24 27 27 29 31 33 35 36 38 39 40 39 39 37 36 37 38 41 45 44 49 46 46 51 49 47 43 36 31 33 27 27 29 31 34 39 45 47 45 49 51 47
26 26 29 30 31 34 36 38 39 41 44 44 44 42 40 44 41 42 48 49 50 50 50 48 53 52 50 46 43 36 34 32 35 34 37 37 34 40 45 46 47 49 52
31 30 31 33 34 35 38 43 45 46 48 52 52 44 43 44 43 52 57 56 56 57 55 55 58 56 53 48 46 46 40 36 35 39 43 48 36 34 40 50 50 53 55
36 34 34 37 38 41 44 46 50 53 57 60 59 50 49 51 52 56 61 61 63 64 65 62 64 59 52 51 51 48 43 39 47 50 50 48 44 42 48 46 52 58 59
40 39 39 40 41 44 47 50 53 55 58 64 48 57 58 61 62 64 67 65 65 66 70 69 69 67 62 58 60 51 44 45 48 50 54 57 55 52 55 58 60 63 65
45 44 44 44 45 47 49 52 56 57 60 59 45 56 64 65 67 71 72 70 70 70 71 72 70 69 66 61 58 49 51 56 59 58 54 55 59 66 70 63 58 58 59
49 50 50 50 50 52 53 55 61 60 61 58 49 61 66 65 74 74 74 74 71 77 74 71 68 69 70 62 56 52 63 64 60 63 61 63 60 62 65 65 65 64 62
54 54 56 56 56 58 59 59 64 67 68 58 59 69 68 62 75 75 76 77 75 75 74 76 71 67 59 61 62 66 67 68 66 69 66 67 67 68 73 74 73 71 70
59 59 60 61 61 64 64 65 69 71 69 66 65 61 63 70 73 77 82 77 78 81 79 78 75 70 67 68 72 72 68 69 71 73 73 74 79 80 82 79 79 77 74
62 63 64 65 65 67 68 70 73 71 55 65 63 63 68 76 79 85 81 82 78 81 79 75 77 78 79 80 83 81 80 77 77 80 81 78 82 85 83 76 75 76 75
65 65 65 67 68 70 70 72 67 67 63 65 56 60 75 82 81 81 81 82 81 81 82 82 82 79 82 87 86 84 82 83 83 84 84 76 73 72 70 68 69 68 69
69 70 69 71 70 73 72 73 73 74 76 67 56 74 79 82 82 82 84 84 84 82 82 85 87 89 93 100 92 84 82 81 78 76 76 69 62 57 56 59 58 57 56

GFSMA_250_spd_024.txt.gz
Wind_Speed
21 22 22 23 21 23 20 17 13 10 12 12 12 10 13 21 18 21 20 22 22 18 11 12 11 4 6 9 12 13 12 14 9 7 7 6 8 10 11 8 9 8 9
23 24 26 27 27 28 29 23 16 16 15 15 13 9 9 17 16 17 17 16 14 15 15 15 9 11 8 8 14 12 12 15 16 15 13 12 11 10 11 13 13 11 10
22 24 24 27 29 29 29 31 26 20 19 17 15 12 14 15 16 17 14 13 14 14 12 13 13 14 15 16 17 11 16 16 16 18 18 19 20 17 13 12 14 12 13
18 20 22 26 29 30 30 30 28 27 22 20 20 18 16 15 18 16 17 13 17 18 16 15 14 12 13 16 15 14 10 19 19 20 20 19 18 20 18 16 15 13 15
17 18 23 25 27 30 32 32 32 31 32 25 22 21 21 19 20 19 19 21 19 18 19 19 17 15 16 14 11 9 13 14 19 20 21 23 23 21 21 22 20 17 14
17 20 23 25 28 30 31 32 32 32 32 33 30 26 24 23 21 22 21 24 24 25 25 24 21 20 19 15 14 5 7 9 10 13 25 26 23 24 22 22 22 22 22
17 20 22 25 28 30 32 32 32 32 32 31 30 30 29 27 25 24 23 25 25 27 30 28 26 23 21 21 19 17 14 14 11 13 15 26 30 26 26 26 22 22 22
15 18 20 23 26 27 29 29 30 31 31 31 30 30 30 28 25 24 27 29 29 31 31 30 30 29 29 26 22 21 20 20 19 17 13 17 29 33 31 28 28 27 24
14 14 16 19 22 25 26 26 28 31 32 30 28 28 28 26 27 25 27 30 32 32 32 31 32 29 32 30 24 21 22 24 25 22 19 16 17 29 37 34 35 35 35
12 14 16 18 21 23 23 24 27 30 30 30 30 30 28 25 26 27 28 31 32 33 30 32 33 33 31 32 36 31 28 25 27 28 27 23 22 21 25 38 42 40 39
11 13 14 18 21 21 22 23 23 26 28 30 30 30 29 25 25 24 30 36 39 38 39 34 34 34 33 40 38 35 33 30 30 33 32 31 29 26 26 27 27 39 47
12 13 14 16 18 20 22 25 26 28 29 31 32 33 34 32 29 28 27 35 36 36 37 40 39 36 38 43 40 38 37 33 30 31 35 35 33 32 31 28 31 33 31
13 14 13 16 18 21 23 25 27 28 31 34 34 36 37 36 30 31 28 35 43 43 44 44 45 38 42 42 40 38 36 34 32 30 33 37 39 38 38 37 36 36 35
16 16 18 18 20 22 24 27 30 31 34 36 38 40 42 38 36 38 36 42 49 51 52 52 53 46 46 49 44 37 36 32 33 32 31 33 35 31 36 38 43 46 44
22 20 20 21 23 24 26 29 33 33 35 39 44 44 49 33 34 38 44 43 52 57 59 56 57 54 51 55 49 40 37 37 36 35 36 35 33 30 29 36 45 47 49
27 27 26 26 27 27 28 31 35 36 38 42 45 47 48 35 33 42 46 49 52 59 61 59 59 59 58 54 51 48 41 42 38 38 38 38 38 41 41 43 44 46 46
28 31 33 32 32 32 33 36 39 40 41 44 48 52 51 49 46 49 55 54 56 64 66 60 64 63 62 61 54 53 50 46 40 38 38 37 38 41 41 43 50 53 49
33 34 36 38 38 37 38 41 43 45 46 49 52 58 59 52 45 49 60 53 58 67 65 67 74 67 68 61 55 54 50 44 41 40 40 37 41 45 49 53 55 61 53
38 37 38 40 41 41 42 45 47 49 50 53 55 58 61 59 54 56 58 56 63 70 71 71 75 69 72 61 60 57 55 52 51 51 54 53 56 55 58 55 54 54 60
40 41 41 43 46 46 46 50 51 52 54 53 57 57 61 53 52 58 63 60 66 72 78 74 75 73 71 61 63 60 61 60 64 64 66 60 58 60 62 61 58 61 62
44 45 45 47 49 50 50 52 53 55 55 58 59 61 58 57 46 66 65 62 67 75 78 78 73 74 70 70 70 67 66 74 78 78 75 67 63 64 63 63 66 70 68
48 49 51 51 53 56 55 54 56 58 59 61 64 65 63 53 53 67 56 62 68 80 86 78 81 76 76 74 75 77 81 76 79 84 75 65 64 68 70 69 71 72 73
54 55 57 58 59 61 60 59 60 64 64 66 68 71 69 60 72 64 61 65 72 82 84 81 83 77 74 78 79 85 84 89 92 84 70 66 67 66 69 72 73 73 76
61 61 62 64 66 66 64 63 63 68 70 72 72 73 72 75 63 65 68 69 78 81 80 82 86 86 82 82 86 89 92 97 96 84 71 64 69 66 66 67 65 67 68
63 66 67 68 70 71 70 68 68 73 74 74 74 76 76 67 63 63 64 70 73 78 90 89 92 84 83 88 91 93 96 100 92 82 74 66 63 59 59 61 57 56 56
71 71 72 75 75 78 76 73 73 75 75 75 75 74 65 60 55 57 67 70 73 83 92 103 95 88 87 89 95 96 99 102 92 79 72 62 58 52 49 56 57 52 49

GFSMA_250_spd_027.txt.gz
Wind_Speed
25 27 28 27 27 27 25 19 13 13 12 14 14 14 17 19 19 20 19 17 18 19 18 15 13 11 7 9 14 15 14 14 14 10 8 6 6 7 9 10 9 10 9
24 26 29 29 28 28 29 30 24 18 18 18 15 10 13 16 18 19 20 17 19 16 14 14 14 14 12 11 11 10 15 16 18 18 14 13 11 10 9 10 11 11 10
21 24 26 27 29 30 30 30 32 28 23 23 21 17 18 17 17 17 18 17 19 21 20 16 14 14 16 16 17 13 10 14 17 20 22 20 20 19 18 14 12 11 10
20 22 24 25 27 29 30 30 30 29 29 25 22 21 21 21 20 17 19 19 18 20 21 20 19 18 17 16 16 16 14 9 11 18 22 22 19 16 18 17 15 10 10
18 20 23 24 27 29 29 29 31 29 28 28 29 28 24 23 23 22 21 20 20 22 22 20 20 18 17 15 10 13 17 18 13 8 16 22 24 23 21 19 19 17 13
16 19 21 23 25 27 28 29 31 31 31 31 30 29 29 26 24 26 27 25 25 26 25 22 24 20 20 20 16 16 19 19 18 14 11 15 21 22 22 20 18 18 19
15 18 20 21 24 26 27 28 29 30 30 29 28 28 26 26 29 29 30 31 31 31 28 28 29 27 28 22 23 21 19 20 24 22 22 20 17 21 24 24 20 18 15
10 13 15 18 22 23 23 24 27 28 28 30 30 27 26 24 24 30 33 35 34 34 34 34 33 31 28 25 30 29 22 21 23 26 28 23 19 19 26 30 27 24 24
9 10 12 15 18 19 19 21 21 22 25 27 27 26 28 23 21 22 29 33 34 35 38 39 39 35 34 33 35 34 30 28 25 24 25 29 25 23 22 25 33 34 34
7 9 11 13 14 15 16 18 19 21 23 25 26 30 31 26 24 21 23 26 34 38 40 37 41 40 37 36 37 36 34 30 28 28 27 26 32 28 25 27 25 35 36
8 9 10 10 11 12 15 16 16 18 20 22 26 30 31 31 26 21 25 23 29 34 39 44 46 47 43 40 41 36 38 34 30 27 26 27 30 32 35 29 31 32 36
8 10 11 12 12 12 14 16 18 19 21 25 27 29 33 37 26 21 22 25 25 36 40 49 52 53 48 48 42 40 38 35 31 31 29 27 26 32 36 41 38 34 36
9 10 11 13 16 17 17 18 20 22 24 27 30 33 35 37 37 28 23 29 39 43 41 48 57 56 56 49 47 42 45 38 31 30 31 31 29 28 34 40 44 45 40
12 12 15 15 17 21 23 24 24 26 28 30 33 35 37 38 39 39 35 37 41 46 45 46 57 62 63 57 54 54 52 43 34 32 33 33 33 34 33 38 43 44 47
19 15 18 20 21 22 25 27 28 28 30 33 37 39 41 42 44 47 38 35 40 47 49 47 55 65 68 62 69 71 61 54 33 31 32 33 37 39 40 39 41 47 44
22 22 21 24 24 25 27 28 30 32 33 36 39 40 41 43 48 50 46 41 39 56 57 52 58 64 74 71 77 74 62 55 49 42 37 33 33 34 37 43 44 46 48
24 25 25 27 28 29 31 33 33 35 37 40 42 45 46 48 49 50 52 48 42 58 54 54 58 64 71 74 76 70 70 66 53 47 43 50 48 42 40 40 45 45 46
29 27 27 30 31 34 36 37 37 38 40 42 46 49 51 52 54 55 57 50 48 61 59 53 60 66 73 80 83 89 78 68 61 59 60 59 58 55 53 51 46 50 57
33 33 33 33 35 38 40 40 42 43 45 48 51 52 55 57 60 62 60 57 61 68 57 56 60 67 72 82 92 84 75 64 67 69 70 66 66 69 57 49 51 53 57
37 36 38 40 40 42 43 44 45 48 50 52 54 55 58 60 63 64 63 61 66 63 56 56 59 62 73 84 87 79 70 65 69 77 79 81 79 74 61 51 50 60 64
43 44 43 44 46 46 48 48 49 52 55 57 57 58 61 63 65 66 64 62 62 51 51 52 62 65 77 88 88 87 77 72 81 85 87 89 78 73 62 54 52 54 65
49 48 49 50 50 51 53 53 55 57 59 61 61 63 64 66 67 65 66 56 47 46 48 54 61 66 82 83 93 82 80 81 86 90 92 91 82 71 60 53 52 55 59
55 55 56 57 56 55 57 59 58 61 64 64 66 68 68 67 67 58 50 54 45 44 50 57 64 75 82 89 89 84 89 86 87 92 98 99 88 75 62 54 48 48 53
61 61 61 62 62 62 63 63 63 64 68 69 71 71 67 64 52 43 48 45 43 47 48 63 76 76 82 91 91 96 93 90 90 98 101 100 91 80 71 59 51 47 45
66 66 67 66 67 66 68 68 67 70 71 72 71 66 56 45 39 49 47 47 50 59 54 71 86 78 81 86 93 102 91 97 99 97 105 102 92 80 72 65 57 49 45
70 72 72 71 69 69 72 71 71 73 72 67 53 46 41 45 47 48 45 50 58 65 68 78 89 85 90 95 104 106 101 102 96 101 103 100 94 81 71 65 59 53 47

GFSMA_250_spd_030.txt.gz
Wind_Speed
27 28 30 30 30 30 29 26 25 24 23 20 20 19 18 19 21 21 21 22 22 18 14 15 15 13 12 11 12 11 12 12 13 12 10 9 7 6 7 9 12 12 11
26 28 31 31 31 31 31 32 27 25 23 24 24 23 21 18 20 20 21 22 22 21 18 17 17 16 16 16 17 15 14 10 12 15 17 15 14 12 11 9 10 12 11
25 24 29 30 29 30 29 29 29 29 29 29 26 24 24 24 19 20 20 18 19 19 20 20 18 16 17 17 16 12 10 11 9 14 18 20 21 20 19 19 17 15 10
23 23 27 28 29 28 29 28 28 30 30 30 30 29 28 29 30 29 27 25 23 23 22 25 21 23 24 17 15 16 19 17 14 11 15 20 23 23 22 20 20 17 14
21 24 25 26 27 27 28 30 29 28 28 27 27 27 29 30 31 33 34 33 32 31 30 27 26 24 22 19 19 21 18 20 24 19 11 13 19 23 25 23 20 19 16
18 22 21 23 23 25 26 27 27 27 29 27 25 23 24 25 29 32 33 34 35 36 38 33 35 28 23 23 22 23 22 19 20 24 26 23 19 17 22 23 24 21 19
15 17 18 18 19 20 18 19 23 26 28 28 29 28 22 20 23 27 30 34 35 36 41 46 44 38 32 29 29 26 25 22 21 21 25 27 29 25 21 25 25 22 21
10 13 13 13 14 15 17 17 17 20 23 24 29 32 27 26 17 20 21 26 27 31 36 45 45 50 47 39 33 32 31 31 23 22 21 23 29 30 26 23 26 27 27
8 9 8 9 10 12 13 13 14 16 18 22 25 29 31 30 20 20 18 20 20 30 37 38 41 44 53 55 62 59 35 32 33 26 22 19 22 29 29 28 27 31 34
7 5 4 5 7 10 11 13 14 17 19 21 21 24 27 31 31 20 19 20 22 36 41 34 35 43 49 57 65 69 71 41 32 30 24 23 22 23 32 33 32 31 32
5 4 4 5 7 9 10 13 15 17 19 19 22 24 27 30 32 30 26 25 29 34 38 44 38 39 43 46 59 68 68 59 43 33 31 28 27 25 24 32 37 34 37
2 3 5 6 7 9 12 14 16 18 20 22 24 25 27 29 32 34 34 29 30 32 35 46 37 37 39 45 52 68 67 65 53 49 37 32 32 31 30 29 30 42 41
6 5 6 8 12 14 15 17 18 20 21 24 27 28 30 32 32 33 37 38 41 32 34 47 39 37 40 42 48 67 69 65 55 40 29 27 30 30 33 36 37 36 43
10 9 8 10 11 12 14 17 20 21 22 25 28 30 32 35 35 37 38 43 40 34 37 43 37 38 39 45 50 66 72 69 53 46 35 36 29 27 31 35 40 41 44
17 15 14 14 14 16 16 19 23 25 26 27 31 35 35 37 38 39 41 43 45 45 39 44 38 37 40 46 52 67 69 65 53 50 42 42 48 47 38 34 37 40 42
20 22 22 20 20 19 20 22 26 27 30 31 34 37 40 40 40 42 45 46 46 47 44 46 35 41 43 52 55 67 67 61 52 45 44 48 43 48 49 48 44 39 44
23 25 25 25 27 27 25 26 29 30 32 34 36 39 43 44 44 47 48 51 49 50 48 42 34 41 51 54 62 70 64 58 58 50 49 51 57 61 61 52 44 43 45
30 28 27 26 29 30 30 31 33 34 35 38 40 42 44 46 47 51 52 52 52 51 42 34 39 42 49 57 66 69 62 63 58 57 65 60 67 71 74 66 54 44 42
35 33 31 30 30 33 35 35 36 37 40 42 44 48 49 50 50 55 54 53 51 45 38 33 48 47 51 57 69 72 69 70 69 66 67 70 80 85 83 79 63 45 41
38 37 35 35 35 36 39 40 40 44 45 48 49 51 53 53 53 57 57 55 48 37 31 39 47 56 59 59 72 72 74 73 70 69 75 82 88 88 91 81 69 52 37
40 41 42 41 41 42 44 45 45 48 51 54 54 55 56 57 57 59 61 49 41 33 32 39 47 50 61 69 76 73 72 77 78 78 84 90 86 93 97 90 76 53 41
44 44 45 46 47 49 50 51 51 53 55 56 57 57 59 59 62 62 55 37 33 34 34 40 44 50 59 65 73 77 75 77 81 86 94 98 92 98 102 98 87 67 48
50 52 52 53 54 55 55 56 55 56 58 60 62 60 62 64 60 59 40 37 35 39 40 44 49 54 60 65 76 78 80 79 84 90 94 96 103 106 101 99 93 76 58
57 58 59 60 60 62 62 65 65 62 64 63 62 63 64 61 56 42 33 40 42 44 42 41 54 55 58 67 73 78 81 82 87 91 99 94 103 107 110 104 94 85 66
62 64 64 65 63 61 62 57 58 59 63 64 63 62 55 44 35 31 39 44 48 44 41 40 57 59 61 67 76 79 88 87 91 94 96 99 110 114 113 113 103 89 71
46 47 44 43 43 42 47 57 53 48 50 54 53 43 26 23 31 35 40 46 44 44 41 47 60 60 62 68 76 81 90 97 94 92 96 100 108 114 121 121 114 99 76

GFSMA_250_spd_033.txt.gz
Wind_Speed
28 28 29 32 35 36 33 31 30 28 27 27 27 25 23 25 23 23 24 24 22 21 21 20 17 15 13 12 12 14 13 8 8 11 11 10 9 9 9 9 11 11 12
29 30 30 33 33 34 34 35 36 34 33 33 34 31 28 24 24 25 26 27 27 28 26 24 24 22 19 18 15 12 12 13 10 10 13 15 16 15 14 13 11 10 10
28 30 30 33 34 32 30 32 32 33 35 35 33 33 36 35 34 34 35 34 31 30 30 27 24 23 22 20 20 19 17 14 11 11 11 14 19 21 21 20 20 20 13
25 28 30 30 33 32 32 30 29 31 31 29 29 33 35 37 36 36 38 37 37 35 37 31 29 28 27 26 22 21 20 18 18 13 12 12 16 20 22 23 22 20 17
23 25 26 26 29 32 33 32 32 32 31 25 25 25 27 28 28 30 32 33 35 39 44 46 50 52 48 46 33 22 21 18 17 18 21 20 17 15 17 21 24 22 18
21 22 23 22 23 25 27 27 26 29 32 32 28 24 17 20 20 21 22 30 33 38 31 36 41 52 51 58 47 32 25 24 23 19 18 21 22 23 21 20 23 24 24
16 18 19 20 20 20 21 21 21 23 26 27 28 32 22 17 19 20 22 22 32 37 34 32 37 38 43 47 53 38 23 22 23 21 18 21 20 24 26 24 21 25 25
12 14 15 17 15 16 15 16 18 22 24 24 26 30 31 22 20 23 23 25 29 29 39 29 30 30 37 42 54 51 37 33 24 20 15 16 20 24 27 27 26 23 26
8 9 11 12 12 12 13 16 18 19 19 21 23 25 27 28 30 26 29 28 25 30 32 34 28 26 31 38 48 52 50 41 35 25 21 16 17 20 22 26 28 28 30
5 4 7 8 7 9 11 13 16 17 18 19 21 23 25 26 28 32 33 32 33 29 29 27 25 26 29 37 39 49 56 51 54 41 31 27 21 17 20 23 28 34 32
4 4 4 5 8 9 11 13 13 13 15 17 19 21 24 26 27 28 32 33 31 28 26 27 34 33 33 40 42 52 60 59 58 45 41 33 31 27 24 22 23 27 39
1 3 4 5 7 10 11 11 12 14 15 16 19 22 24 26 27 27 31 33 34 35 34 26 26 30 29 33 44 52 64 62 52 49 44 49 45 37 30 25 26 28 33
5 4 4 5 6 8 10 11 12 14 16 18 19 21 24 27 27 27 32 37 38 39 34 25 25 31 31 41 51 54 66 60 52 49 49 49 43 43 38 33 33 32 33
9 9 8 10 9 10 10 12 14 15 17 19 22 23 25 29 30 29 30 36 40 40 38 22 24 42 38 44 52 55 62 70 67 64 53 49 47 48 49 48 46 41 34
12 10 11 14 15 15 16 18 20 20 21 22 24 25 26 28 31 34 37 40 42 44 37 15 21 40 47 46 51 52 58 65 68 61 52 50 52 56 57 55 54 51 47
15 13 14 17 18 19 18 20 24 25 26 29 30 32 32 34 35 37 37 40 46 47 34 13 19 33 42 42 51 49 57 59 64 66 62 58 58 58 62 64 62 57 58
19 20 22 20 23 23 23 23 26 29 30 32 34 36 38 40 40 41 42 44 48 47 32 13 19 32 44 44 49 47 54 62 65 72 61 60 65 64 73 77 74 75 79
25 24 20 23 27 28 27 25 27 31 33 35 37 39 40 42 43 46 45 44 47 42 24 10 19 34 40 47 48 48 59 65 70 73 72 69 71 77 81 87 89 87 85
26 28 30 31 30 32 31 30 32 35 37 39 40 41 43 45 45 49 51 52 50 33 22 22 20 30 41 47 48 49 61 64 71 72 76 71 73 82 87 90 96 104 98
34 36 37 37 35 34 37 37 38 40 43 45 46 46 48 49 50 51 52 54 46 34 27 23 24 28 38 41 42 41 62 67 75 78 73 72 77 82 89 92 102 104 105
40 41 41 39 39 39 41 42 45 46 48 49 50 51 53 54 54 54 51 51 41 30 30 32 31 29 35 41 43 47 57 66 73 79 85 79 76 79 86 93 103 104 115
43 42 43 43 44 46 48 49 50 51 51 53 55 54 55 55 53 53 49 43 36 27 32 34 34 34 34 40 45 50 60 62 73 79 83 81 73 79 89 94 101 106 114
45 46 47 50 52 53 54 57 58 58 58 58 56 56 52 51 48 45 39 30 26 29 36 39 35 36 33 45 50 56 59 65 70 78 88 69 71 84 94 97 107 108 111
51 51 54 57 59 60 58 57 58 57 58 57 52 48 47 46 40 28 21 24 32 38 39 43 39 40 40 45 49 58 59 67 75 81 87 72 76 87 95 102 102 109 120
54 56 56 51 48 47 46 48 47 46 44 41 45 44 37 35 33 22 15 25 35 33 34 41 37 41 39 47 55 58 60 67 70 81 85 71 78 84 93 101 101 113 122
49 43 42 40 39 40 41 44 48 45 44 47 51 48 37 32 32 17 19 26 21 24 26 31 44 44 45 53 53 55 62 71 72 79 88 67 74 82 93 101 101 114 116

GFSMA_250_spd_036.txt.gz
Wind_Speed
26 32 35 34 37 35 33 34 34 35 36 39 37 35 34 34 33 32 32 31 30 28 27 25 24 19 18 15 12 10 10 9 7 8 10 12 11 11 11 10 12 13 13
29 31 31 33 34 33 33 33 32 35 39 42 39 39 39 39 40 39 39 36 36 37 37 37 30 27 22 18 17 15 13 10 10 10 10 13 15 16 15 14 13 13 12
32 33 32 29 28 28 28 27 27 31 33 34 35 34 33 37 39 37 37 35 41 46 42 43 46 39 32 26 20 16 16 15 10 11 12 11 13 17 18 21 20 17 16
30 32 33 31 31 31 33 33 28 25 24 26 26 24 26 26 29 36 38 34 30 30 32 32 43 43 46 39 25 17 11 11 12 10 11 14 15 14 16 21 21 21 19
24 26 26 26 26 26 27 31 30 30 32 30 17 19 23 24 24 24 26 29 35 27 32 34 30 37 40 44 45 30 16 11 10 10 11 13 14 18 17 17 20 23 22
19 22 19 21 21 22 22 25 26 26 29 34 31 21 22 25 26 26 25 28 28 30 30 30 30 33 37 43 45 38 32 18 16 12 12 10 14 15 19 22 20 20 23
14 17 18 18 18 19 19 20 22 24 25 27 31 31 27 28 29 31 36 28 28 27 24 28 30 35 42 45 48 49 27 23 19 15 10 10 12 16 18 18 22 23 21
13 12 15 14 16 16 16 17 18 20 21 23 25 25 23 28 32 34 37 35 28 24 24 25 27 38 48 50 49 56 47 27 24 21 18 11 7 10 13 16 20 23 27
10 10 10 11 11 13 14 14 15 16 17 20 22 24 24 25 29 30 31 24 25 26 27 24 29 34 42 53 53 54 59 53 48 33 23 20 18 12 10 18 23 23 25
8 7 6 7 8 10 11 12 12 14 15 17 18 21 23 24 24 27 30 32 34 32 22 22 30 33 38 44 50 55 55 58 52 42 36 28 24 24 17 13 12 20 28
7 7 7 6 8 10 10 11 13 14 14 14 16 19 21 21 23 26 28 31 34 30 16 24 31 35 30 38 47 46 50 58 59 50 50 48 36 35 26 14 8 14 15
3 3 4 4 6 7 8 10 12 15 16 16 16 17 20 21 23 25 28 32 35 32 15 11 28 32 28 30 39 45 47 56 60 55 59 59 57 53 47 37 31 23 22
3 2 2 3 5 7 10 11 14 16 18 19 20 21 20 21 22 25 27 31 35 34 23 18 15 25 29 31 33 44 49 55 58 61 57 62 61 59 59 54 50 42 32
7 6 5 6 8 9 10 12 13 14 16 18 20 21 23 25 26 26 28 30 32 35 34 13 2 18 27 33 34 39 43 47 55 60 63 61 57 61 66 63 68 64 63
11 10 9 9 10 11 13 14 14 16 17 20 21 23 24 25 27 29 30 34 36 39 39 19 14 18 20 27 33 38 43 46 52 60 66 70 52 57 66 68 72 78 78
14 10 10 12 11 12 17 19 21 21 21 23 25 27 27 28 29 31 33 36 39 40 41 19 15 16 19 25 28 38 45 46 53 59 63 71 48 57 66 66 71 79 88
15 12 14 16 15 17 21 23 24 24 26 28 30 31 33 34 35 36 37 38 41 42 39 25 17 19 23 22 26 38 42 48 54 56 62 63 52 58 63 74 76 84 87
17 15 17 19 19 25 26 26 25 26 30 31 33 35 38 39 39 41 39 41 42 42 38 25 24 25 26 23 25 31 38 45 53 54 59 65 65 63 63 73 76 84 86
22 23 25 24 26 29 32 32 31 30 32 36 38 40 43 43 44 47 47 45 46 44 38 22 20 23 27 30 24 30 43 48 47 51 56 62 65 64 63 71 79 85 90
29 29 29 30 32 35 36 35 35 37 39 42 46 48 50 51 53 54 54 52 52 42 33 18 19 26 27 32 31 31 36 43 50 56 53 60 66 56 66 69 83 91 96
32 34 34 36 36 36 38 40 43 45 48 51 52 54 57 58 58 57 54 53 42 32 16 18 22 27 28 29 31 33 35 38 50 54 52 55 62 66 59 71 81 87 94
35 38 39 40 42 43 45 46 50 51 54 57 58 58 55 53 50 45 44 36 29 14 16 20 27 31 31 26 27 30 35 39 45 54 57 56 62 63 59 73 85 89 92
40 41 42 44 45 47 48 51 54 59 59 55 50 49 48 45 40 39 36 29 20 12 17 17 20 21 25 31 30 31 38 42 50 54 53 55 58 63 66 78 82 90 90
43 44 44 47 48 50 52 55 52 47 48 49 49 46 45 43 43 40 35 23 15 18 13 17 19 23 25 24 29 33 37 42 54 51 51 55 62 68 73 78 86 88 89
44 46 47 49 52 54 47 41 36 34 36 42 41 43 43 45 48 39 35 24 18 19 17 19 24 26 26 29 32 32 39 47 48 48 52 55 62 67 77 81 86 89 88
46 47 49 49 43 40 37 34 35 34 35 32 41 42 43 47 51 43 34 30 24 20 24 21 19 23 28 36 32 35 42 49 49 48 50 55 62 65 75 83 83 90 85

GFSMA_250_spd_039.txt.gz
Wind_Speed
31 31 31 31 34 35 38 41 38 40 39 41 41 39 42 41 39 37 42 40 42 41 40 36 30 33 21 14 10 9 8 8 7 6 10 12 13 14 14 14 13 14 14
27 30 29 29 29 31 33 32 32 32 32 34 30 34 37 39 36 34 33 32 34 37 36 34 34 34 38 39 19 10 7 5 8 10 9 9 14 17 17 17 16 16 15
26 26 25 30 23 24 25 27 25 26 26 25 29 27 27 28 30 31 35 37 40 34 35 34 33 37 38 38 38 24 15 11 7 9 14 14 12 10 16 19 20 19 20
27 31 27 27 30 30 25 31 32 19 20 20 24 30 29 29 27 28 30 30 29 28 30 30 33 36 39 43 39 29 23 13 13 11 12 14 16 17 15 14 17 20 22
25 24 22 25 26 25 26 26 30 35 27 20 24 26 31 30 30 28 28 29 31 32 40 37 36 47 47 44 36 23 22 19 15 12 16 15 16 16 17 19 20 16 18
18 17 19 20 20 22 22 24 26 27 29 27 27 28 32 34 34 34 27 22 25 27 30 41 44 50 50 55 51 50 39 24 19 18 14 13 17 17 16 18 22 23 22
15 14 15 15 17 19 20 20 22 25 25 23 23 27 30 30 30 28 26 28 23 22 24 26 41 46 46 54 56 50 58 49 38 31 29 18 10 11 16 22 22 23 24
12 12 12 14 14 15 17 18 20 21 20 22 24 23 24 27 28 25 28 23 23 18 23 25 40 40 43 50 53 50 50 56 51 45 39 32 36 42 28 24 14 24 28
10 9 8 9 12 12 13 15 16 17 16 19 20 21 21 24 24 22 29 30 23 17 22 29 31 33 37 44 44 46 48 51 48 47 48 41 34 26 22 13 18 20 23
8 6 6 9 10 10 12 14 15 15 15 15 16 17 18 19 20 22 21 23 22 11 15 21 23 24 32 37 38 40 45 45 45 41 46 43 42 38 45 42 41 31 23
8 7 6 7 8 8 10 13 15 15 15 15 15 14 16 16 19 22 25 26 27 8 5 11 18 20 22 29 37 39 39 43 44 40 29 43 45 41 40 50 47 48 44
9 7 4 5 5 6 8 9 11 13 14 15 15 15 14 15 16 19 22 27 29 27 12 20 13 10 16 24 29 35 33 36 41 40 29 41 47 48 48 53 57 52 52
7 5 3 1 2 3 5 7 8 9 9 11 14 15 15 16 19 21 23 24 29 30 29 27 9 11 9 12 17 25 33 38 43 33 32 38 48 44 49 53 54 62 59
8 7 5 4 4 7 10 12 13 13 11 10 14 17 19 20 21 24 28 30 31 31 30 29 13 14 16 21 17 21 24 28 41 32 32 34 44 45 46 53 57 65 68
12 10 8 6 5 5 6 9 12 15 16 15 18 21 22 24 26 27 28 28 30 33 32 29 20 17 22 20 21 22 28 28 32 36 38 38 44 44 48 48 56 64 72
14 12 10 10 7 7 6 11 15 18 18 19 22 25 26 28 31 33 33 35 38 39 36 33 30 24 19 23 29 24 17 28 31 34 38 39 44 41 45 44 56 62 72
15 13 14 12 11 12 12 15 19 23 24 24 26 29 31 35 37 40 41 42 45 44 44 41 33 24 23 22 21 24 26 30 28 35 37 38 40 46 46 44 52 63 73
18 17 17 18 19 18 20 22 25 28 28 29 31 35 38 42 45 47 48 50 50 48 45 40 32 24 21 21 25 29 28 30 28 33 44 45 45 48 49 48 56 66 68
22 23 22 23 24 24 26 28 31 34 34 36 38 40 44 47 50 52 52 51 48 45 39 30 25 15 9 13 20 30 26 26 28 32 44 44 41 47 51 54 58 62 69
26 28 28 29 29 29 32 34 36 39 38 41 44 47 51 53 53 51 46 43 37 40 36 22 6 10 15 17 20 26 23 24 23 32 39 42 43 48 52 57 63 65 70
29 29 31 33 33 35 36 38 39 40 42 46 49 52 50 45 43 42 40 33 34 37 27 9 9 13 16 19 22 25 26 27 25 34 35 39 40 48 53 59 63 69 73
36 34 35 35 36 36 37 39 40 43 47 48 51 44 40 38 38 38 36 32 32 35 16 11 10 15 21 22 24 27 24 27 30 34 39 39 41 44 52 56 62 65 70
38 39 39 37 37 36 37 40 43 46 50 46 34 37 31 35 36 36 33 31 34 27 15 15 17 17 24 25 23 26 28 25 26 32 40 42 41 43 49 55 63 67 70
39 38 38 37 37 37 40 42 45 49 44 35 32 28 33 35 36 34 36 35 31 27 23 20 19 23 22 22 27 29 32 32 32 34 35 45 44 49 51 58 63 68 71
39 37 36 36 38 41 41 43 48 39 33 30 29 28 31 37 39 38 37 36 32 28 29 27 28 29 30 32 29 29 35 38 31 39 42 49 51 55 59 61 64 68 72
41 41 41 42 43 44 45 47 38 33 28 27 29 34 35 39 39 40 38 43 41 33 31 28 30 32 31 29 25 28 32 34 31 43 46 49 57 60 63 65 66 69 71

GFSMA_250_spd_042.txt.gz
Wind_Speed
27 30 33 34 31 29 31 32 34 33 32 33 33 35 35 33 34 41 39 35 33 37 36 33 33 36 33 24 19 15 13 11 8 6 7 10 12 13 15 15 15 15 15
23 24 27 26 25 24 26 27 27 32 27 29 31 33 33 35 33 33 30 31 33 32 36 32 34 38 36 28 20 18 14 8 11 12 10 9 10 14 16 18 18 18 19
26 27 24 20 24 25 19 21 22 28 30 31 33 31 30 30 27 23 27 38 34 39 39 40 39 38 42 39 28 25 22 15 8 9 11 14 16 12 12 15 19 22 22
26 26 24 23 26 32 32 26 23 25 28 28 30 31 30 33 28 23 29 30 32 44 44 47 47 49 49 50 46 35 31 34 22 13 8 10 12 15 16 18 17 17 18
22 21 20 22 23 24 25 27 27 26 26 27 30 32 30 28 21 23 23 24 33 33 35 42 40 48 51 56 54 52 45 46 39 36 26 17 14 13 16 20 20 21 22
16 16 17 18 21 22 23 25 23 23 22 23 27 29 26 25 24 23 24 17 28 27 31 34 41 49 43 49 52 51 50 45 44 50 45 42 38 32 20 17 20 23 24
13 12 14 15 16 19 20 21 20 22 21 21 22 24 22 20 24 23 21 14 19 25 31 31 37 36 34 40 42 40 43 41 48 39 38 40 40 32 36 38 27 21 23
12 10 10 12 14 15 16 17 16 18 20 18 20 21 21 11 6 17 23 15 12 18 24 25 29 31 32 34 35 34 34 38 39 44 41 48 48 55 45 32 32 31 30
11 9 7 8 10 14 15 14 14 14 14 15 17 16 18 19 15 19 23 21 12 13 15 17 21 24 26 31 37 42 38 29 34 33 36 36 34 40 42 41 39 44 37
10 7 7 7 9 12 15 14 14 13 13 11 11 12 12 14 17 16 18 23 23 16 11 15 16 14 14 19 22 28 32 31 31 27 27 31 27 31 33 39 48 52 48
10 10 8 7 8 9 10 11 11 10 8 6 6 7 11 15 19 22 24 25 25 25 23 17 16 12 9 17 19 21 24 30 34 32 30 31 33 31 28 35 41 50 54
12 11 8 5 4 4 4 6 5 6 7 9 10 11 12 13 15 18 20 23 26 28 27 29 19 15 11 16 12 16 21 31 21 28 28 33 30 28 27 33 38 44 48
12 9 8 6 3 1 3 6 8 9 10 11 14 16 16 16 18 20 23 26 29 31 31 28 28 16 21 11 9 20 23 23 23 21 32 29 34 34 31 34 40 44 48
13 10 8 6 5 5 6 6 7 8 12 14 16 20 22 23 25 28 29 33 35 35 36 36 29 25 26 25 25 26 21 16 23 21 28 30 34 36 37 39 41 45 47
14 12 11 9 9 9 9 8 7 9 14 19 21 24 26 29 33 34 36 39 39 38 42 41 38 34 30 25 29 27 20 22 20 19 30 31 35 37 41 41 44 47 49
17 15 14 14 13 12 13 11 10 10 15 22 24 24 27 32 35 40 43 45 45 44 44 46 40 34 29 24 26 25 26 24 24 19 21 29 31 34 40 45 47 47 50
17 16 16 17 16 15 13 16 16 18 22 26 28 28 32 36 40 43 46 48 47 43 40 31 33 31 27 23 23 26 29 26 24 13 20 25 29 34 36 44 48 50 51
21 19 21 22 22 22 22 20 20 22 25 30 33 34 37 42 46 49 47 37 36 33 30 37 34 25 22 18 21 22 26 26 27 17 22 25 30 37 39 41 48 54 56
23 24 25 25 26 26 26 25 25 27 32 34 35 38 42 47 46 37 33 32 31 27 25 33 33 23 7 5 11 19 23 26 24 23 21 25 31 39 43 46 51 56 60
27 27 27 25 28 28 29 28 29 32 34 35 37 41 45 41 36 34 36 34 30 26 25 30 25 17 13 13 14 17 20 21 23 26 23 26 31 40 43 48 54 58 61
31 29 27 27 29 31 32 33 33 33 35 36 39 43 42 31 29 32 37 35 31 28 24 25 16 14 20 22 21 17 20 20 24 27 29 25 34 41 47 52 58 59 63
33 32 30 29 30 31 31 31 34 34 34 37 40 42 30 31 29 30 32 33 35 35 27 20 14 19 22 27 29 24 24 25 29 27 32 27 33 40 46 56 58 64 66
37 34 34 35 35 34 33 34 33 33 35 38 43 34 24 25 26 30 29 33 33 32 26 25 23 21 25 31 31 28 27 30 30 28 23 28 35 42 49 54 60 63 66
38 38 37 35 32 32 33 33 31 34 37 39 36 29 27 27 27 30 31 37 37 38 31 22 26 28 36 31 34 33 33 33 32 31 30 33 38 44 51 58 65 68 69
41 40 38 35 32 31 32 31 34 38 39 40 32 28 25 26 26 31 37 41 42 44 44 40 31 23 30 33 36 32 35 30 34 35 40 39 37 46 60 60 63 69 70
43 43 39 36 34 33 32 34 37 42 41 37 32 32 31 30 31 32 35 37 43 48 46 44 42 24 24 30 39 38 32 32 36 43 47 42 42 51 62 63 70 73 70

GFSMA_250_spd_045.txt.gz
Wind_Speed
27 28 27 29 29 32 30 27 29 29 30 35 36 33 32 33 35 38 37 38 38 39 40 43 44 44 41 33 23 17 12 6 4 5 7 7 9 10 11 12 14 15 16
20 22 23 22 24 25 27 30 28 28 29 30 30 27 27 30 32 34 38 40 37 41 46 51 49 53 52 47 41 33 22 14 6 5 5 8 10 12 13 14 15 17 19
21 20 27 23 20 22 25 25 24 26 26 30 28 23 25 26 29 27 30 34 35 38 43 49 48 54 56 52 52 52 46 35 23 14 11 11 12 13 14 15 15 17 19
22 21 22 24 27 23 24 25 26 27 26 27 30 26 22 25 32 27 33 34 32 30 32 40 46 42 48 49 53 56 57 52 49 44 35 30 27 25 18 17 18 20 22
20 21 22 24 24 22 21 21 23 25 26 24 23 18 23 26 30 22 28 29 32 31 32 35 37 38 41 45 45 46 44 50 44 40 41 37 33 34 33 29 29 24 21
17 17 17 19 18 22 19 21 21 22 24 24 21 20 19 25 27 20 20 25 29 26 32 28 30 32 34 40 46 45 41 46 43 46 43 41 40 40 35 36 34 34 39
15 14 15 15 14 15 14 17 20 19 21 21 21 22 19 12 23 24 16 17 19 22 22 27 25 29 28 30 31 32 38 40 37 31 33 35 39 36 43 44 46 41 44
12 12 12 10 11 11 11 12 15 16 18 18 17 19 20 18 18 21 21 19 16 17 19 18 17 15 17 24 24 27 30 35 32 29 27 27 28 27 32 34 35 38 40
10 10 8 7 10 10 10 9 12 12 13 12 13 15 15 17 17 20 21 22 25 25 23 23 20 14 14 17 18 22 26 36 27 29 30 22 25 22 26 26 30 30 35
10 8 7 8 9 10 9 8 8 9 9 10 12 14 16 17 18 20 21 24 27 27 28 28 28 17 10 9 13 16 21 27 21 27 25 27 27 24 30 33 34 34 36
11 9 8 7 8 7 7 5 6 7 8 10 13 15 16 15 18 20 24 26 30 30 29 28 29 25 17 14 21 20 19 16 20 20 24 29 35 33 32 33 34 36 39
12 11 9 9 7 5 4 2 2 5 8 10 14 18 22 22 24 25 28 30 32 32 31 32 30 28 22 21 22 17 21 18 19 16 18 22 28 35 33 32 33 37 40
14 13 11 9 7 3 3 4 5 7 8 12 17 19 22 24 26 28 30 33 35 37 37 37 37 34 31 22 23 22 19 18 15 15 20 18 23 32 35 38 42 43 43
15 14 11 9 7 7 8 8 10 9 10 14 21 22 22 23 27 31 35 38 41 43 43 39 35 33 32 29 23 25 27 27 24 16 17 15 23 30 35 38 43 47 51
18 15 13 12 10 11 10 11 11 10 11 15 23 26 26 28 32 38 42 46 45 41 37 34 30 24 25 26 23 22 19 22 23 22 13 15 22 26 36 39 45 47 47
20 19 17 15 15 16 14 13 15 12 15 19 26 31 32 33 38 42 46 44 41 38 36 32 26 30 33 26 19 19 17 21 22 22 16 12 20 30 33 38 43 45 50
22 21 21 20 20 21 20 19 14 17 20 22 29 34 34 36 42 48 43 40 39 39 34 30 29 33 34 26 19 14 15 16 17 20 16 13 18 25 28 37 41 45 48
26 25 22 22 22 21 22 21 19 21 22 25 31 33 34 37 43 42 39 35 40 40 35 33 32 33 31 16 17 12 5 11 12 15 13 16 15 18 26 31 35 42 50
27 27 25 25 24 23 23 23 23 24 25 30 33 33 35 40 44 36 34 31 36 35 32 32 30 33 28 10 11 13 12 13 14 16 15 12 14 18 23 26 33 42 52
31 29 27 26 26 25 24 26 26 27 29 31 32 32 34 40 38 31 30 32 32 32 33 27 24 27 24 19 17 17 16 16 15 14 16 15 18 16 26 30 42 50 57
35 33 31 28 27 26 25 24 26 27 28 30 31 31 35 37 32 30 32 23 28 32 34 32 27 22 22 22 26 25 20 21 19 19 15 17 18 21 28 35 46 54 62
40 37 34 31 30 28 26 28 30 30 29 30 30 29 34 30 28 27 26 28 29 32 37 39 32 26 27 26 26 30 29 26 31 23 27 23 23 29 35 37 47 63 63
42 40 37 34 32 32 32 29 29 29 29 29 29 32 34 29 27 24 23 23 23 28 34 41 43 36 39 31 29 33 34 31 31 30 24 29 30 38 32 38 48 58 64
43 42 40 37 36 34 31 31 29 29 27 28 30 33 32 27 27 26 26 23 23 25 31 33 39 41 33 31 29 28 32 32 33 33 30 27 34 35 33 37 47 57 61
42 42 41 40 39 35 33 31 30 30 29 32 35 36 34 28 28 31 27 25 29 31 35 37 40 41 37 33 36 35 34 31 35 39 38 27 32 35 39 37 47 49 56
46 45 45 44 42 36 34 34 32 32 31 33 36 37 36 30 32 32 29 28 32 33 35 39 42 42 35 33 34 21 24 24 31 39 42 34 43 41 40 45 51 52 54

GFSMA_250_spd_048.txt.gz
Wind_Speed
28 31 33 31 31 29 30 32 36 34 32 33 33 35 35 38 37 35 41 41 48 53 57 60 63 63 62 56 40 29 23 14 12 12 11 11 11 12 12 12 14 16 18
24 24 25 28 28 28 28 31 33 30 26 28 34 34 31 40 39 34 32 36 40 42 49 55 54 59 61 55 58 57 48 36 31 27 22 21 19 14 13 14 15 17 20
29 22 21 24 25 28 26 28 31 31 27 26 28 33 30 38 35 39 34 39 33 35 38 41 50 48 52 52 50 50 46 41 41 41 39 40 38 37 33 31 28 23 25
26 27 26 25 25 26 28 29 29 30 25 22 29 31 31 27 28 30 32 34 35 29 28 30 29 34 37 42 46 41 43 42 39 41 44 44 41 40 40 41 38 38 36
25 25 25 22 23 23 23 26 28 28 25 19 20 21 26 29 24 27 30 26 25 26 25 22 24 33 34 37 46 41 36 29 38 35 37 43 41 38 43 42 41 39 41
19 21 21 18 19 23 22 23 23 21 20 19 21 19 18 23 24 23 22 23 24 25 24 24 21 24 31 32 34 43 35 36 31 32 29 35 37 37 36 34 34 32 33
16 15 16 15 16 20 19 18 20 21 19 16 20 20 22 24 25 25 26 27 29 28 30 23 23 22 20 21 25 30 31 32 33 35 34 31 33 32 32 28 28 27 29
11 10 11 12 13 14 15 15 15 16 16 17 18 20 21 22 24 25 26 26 26 28 29 30 25 19 19 15 22 31 27 25 25 29 29 28 24 26 30 30 31 34 38
9 7 10 10 10 10 11 12 11 13 15 17 19 21 23 24 25 26 27 27 27 27 27 27 28 24 17 13 14 19 24 25 21 21 23 25 27 34 32 31 34 39 40
6 5 7 9 10 9 8 9 9 10 12 15 19 21 24 25 25 24 25 28 30 31 30 28 26 24 20 14 15 13 20 16 15 15 20 24 31 34 35 37 39 35 39
5 4 5 6 6 6 5 4 4 7 11 16 19 20 20 22 23 24 28 31 33 34 34 33 31 26 20 16 16 18 13 11 16 16 15 20 25 31 32 32 36 37 39
7 4 4 5 4 2 1 3 5 8 12 15 19 21 19 19 22 26 31 35 39 39 38 35 31 27 23 19 16 16 16 6 9 11 14 14 22 28 31 32 32 35 37
10 9 6 6 5 4 5 7 9 10 10 13 20 23 27 26 27 31 35 41 39 36 36 34 32 29 24 20 17 16 16 11 10 13 13 10 17 22 27 28 33 37 38
12 13 11 10 10 8 8 9 10 7 10 13 20 24 29 31 33 36 41 38 37 36 36 34 29 22 22 26 22 18 15 22 16 8 13 7 12 20 21 23 30 36 38
17 16 14 13 13 12 11 10 11 6 9 14 20 26 31 34 35 39 43 39 33 36 37 34 27 22 26 29 19 14 12 15 14 9 7 3 7 16 14 20 27 35 37
20 19 18 17 15 15 15 14 13 14 13 16 22 27 33 33 36 40 40 36 33 37 34 34 32 29 26 27 19 10 6 5 3 7 7 5 2 6 11 15 21 31 40
23 23 22 19 18 17 17 18 18 17 17 21 23 28 33 33 36 40 37 36 38 35 33 36 31 32 29 24 21 20 7 4 2 4 4 5 5 9 8 10 16 29 42
27 27 25 22 21 20 18 17 19 20 20 23 26 31 32 33 35 40 33 34 31 28 31 28 30 31 26 19 15 17 11 6 6 6 5 9 11 6 11 14 16 22 39
32 30 27 24 22 20 19 18 19 21 22 25 27 29 31 31 32 36 31 28 30 32 33 33 34 34 32 26 17 14 14 11 11 13 11 10 9 10 14 21 22 25 35
34 34 31 27 24 19 20 20 20 20 21 22 25 28 30 29 32 34 27 26 31 30 29 32 33 34 30 33 25 23 20 19 17 19 17 13 11 10 16 23 27 31 35
36 36 35 31 27 22 21 22 21 22 22 25 28 28 29 27 32 33 24 24 21 24 25 26 29 32 31 26 28 26 25 27 27 21 25 17 17 16 21 24 24 27 33
40 40 39 36 31 28 26 25 24 24 27 27 26 27 25 27 31 32 22 20 20 22 29 29 29 32 36 32 25 24 28 29 30 28 21 26 19 22 24 26 29 31 38
43 43 42 40 36 33 30 28 27 29 27 27 26 24 24 27 32 32 26 23 22 21 27 30 32 31 33 32 31 28 27 27 31 29 26 30 21 24 25 29 29 33 36
44 45 43 42 40 36 34 32 32 30 29 28 26 26 25 26 29 32 28 25 23 22 26 24 27 27 29 31 27 27 25 20 27 30 28 29 29 31 31 35 42 40 38
46 45 43 43 41 39 37 36 34 33 31 30 29 30 30 28 29 31 30 29 24 26 27 27 26 24 25 27 23 19 23 21 19 26 35 29 29 28 30 38 46 41 44
47 47 46 44 41 40 39 38 37 37 35 34 33 34 33 33 32 33 31 29 31 27 26 27 27 27 25 26 27 26 19 13 19 24 29 31 35 33 35 39 40 29 38

GFSMA_250_spd_051.txt.gz
Wind_Speed
26 29 30 32 33 35 33 34 36 39 38 44 42 44 40 38 36 33 36 37 43 48 53 49 53 50 50 51 45 42 37 33 28 25 21 19 15 16 15 16 18 21 23
26 30 31 31 31 31 32 29 30 34 37 33 37 34 35 37 38 32 31 32 31 39 50 45 42 45 45 45 45 45 44 42 42 41 45 45 43 40 37 35 38 35 32
25 29 30 32 30 30 28 28 27 30 32 33 31 29 32 34 32 29 29 32 29 29 34 36 36 41 43 43 40 36 39 41 38 41 41 41 40 42 39 37 33 34 39
24 28 29 27 29 27 26 23 21 22 24 22 25 28 28 27 26 30 32 33 29 27 27 32 31 38 38 41 31 33 35 36 39 37 37 36 35 34 33 36 36 35 36
22 24 26 26 25 25 23 21 20 20 24 25 27 29 30 30 30 30 30 29 31 31 26 24 25 25 31 32 30 34 32 33 30 30 31 34 38 37 37 39 36 33 32
20 20 21 23 23 22 22 21 21 22 25 25 25 25 26 26 25 26 26 27 28 30 31 27 22 19 24 30 30 26 32 31 29 27 30 35 34 34 36 33 32 33 36
16 17 16 17 19 18 18 20 20 21 21 23 25 25 25 25 23 24 24 27 28 28 28 27 26 21 19 19 26 23 28 23 25 29 31 35 35 34 32 34 35 37 39
11 11 11 12 15 14 14 16 18 19 21 24 24 24 25 24 23 24 26 28 28 27 24 22 19 17 12 10 18 23 24 19 18 23 26 31 31 29 30 30 31 32 34
7 7 8 9 11 11 12 14 16 19 20 21 20 20 20 21 23 26 29 31 33 32 29 24 19 12 6 5 4 11 14 12 12 15 21 25 25 26 27 27 28 31 35
4 5 6 8 9 9 8 9 12 14 17 19 20 20 21 24 25 28 34 37 35 32 28 26 21 15 10 6 5 6 1 4 6 10 18 21 22 23 26 24 26 32 37
1 2 2 5 5 5 4 6 9 13 17 18 20 25 26 27 28 33 37 36 32 30 30 27 23 19 15 8 11 11 9 9 6 2 7 13 16 19 22 23 26 29 34
4 3 3 5 3 1 1 4 7 8 11 13 18 22 27 29 31 33 38 34 29 32 32 30 23 19 14 12 9 11 16 16 11 7 3 7 10 13 16 21 25 27 29
8 7 6 6 6 3 5 7 8 6 8 11 17 21 25 29 31 34 38 35 32 33 30 31 23 18 17 20 18 11 14 21 21 11 4 3 5 8 13 20 22 29 33
10 10 9 9 8 6 8 10 9 6 7 12 17 22 26 30 32 34 37 35 31 31 32 34 26 23 18 23 15 8 7 19 22 14 8 4 1 7 6 13 17 26 30
13 14 13 11 11 10 11 12 12 9 10 13 17 24 27 30 32 33 36 35 31 31 34 36 31 27 24 22 22 12 5 7 21 15 13 8 8 4 2 2 11 13 26
18 17 16 15 12 12 13 15 15 14 15 17 18 22 25 28 30 31 34 32 30 34 34 35 33 30 23 19 22 20 13 1 7 11 10 10 11 8 8 6 6 12 20
21 19 19 17 16 15 15 16 17 17 18 20 20 23 24 26 28 30 33 28 27 33 31 30 33 30 24 16 16 18 15 7 1 4 5 9 10 15 14 13 16 19 20
23 22 22 21 20 18 17 17 17 16 16 18 20 23 24 26 25 27 31 26 27 26 29 33 35 33 24 22 13 11 11 10 10 6 9 7 10 14 10 16 19 21 24
25 25 25 24 24 22 20 19 19 17 17 19 19 21 26 26 24 26 27 25 23 25 27 28 31 33 33 26 22 16 10 10 13 14 14 10 10 10 16 18 18 21 22
29 28 27 27 26 25 23 21 19 19 20 20 22 25 27 24 22 23 26 23 23 24 25 27 26 29 31 28 26 23 20 20 13 15 16 13 14 16 16 17 19 20 26
33 33 31 30 29 29 28 24 21 21 22 22 23 27 26 24 21 22 23 22 21 23 24 27 26 26 27 28 23 21 22 27 24 16 12 14 19 19 18 19 21 21 24
36 37 36 35 34 33 32 31 27 26 26 25 25 27 26 25 22 22 23 24 17 21 24 25 27 24 24 26 25 22 21 26 25 24 27 16 15 20 22 26 27 27 29
39 39 39 40 37 36 36 34 33 30 31 30 29 28 26 25 25 25 23 25 21 20 25 27 29 27 23 23 24 23 20 25 26 21 17 28 25 23 22 24 27 32 39
41 41 40 41 41 40 38 38 38 36 35 33 34 31 27 27 27 28 26 24 27 20 24 28 31 28 24 22 21 18 18 22 24 20 16 24 23 28 30 34 33 36 37
38 39 42 44 45 43 42 41 40 38 38 36 36 34 31 29 29 31 31 28 25 25 26 26 28 28 25 21 16 14 13 15 22 26 21 26 32 32 35 36 38 43 41
33 37 42 46 48 48 45 43 42 41 40 38 38 38 35 33 32 33 34 32 29 27 29 29 27 29 27 22 19 14 16 16 17 23 21 28 31 33 36 42 44 42 37

GFSMA_250_spd_054.txt.gz
Wind_Speed
30 35 34 37 37 39 36 35 39 38 36 36 35 34 31 31 33 34 33 38 41 40 46 49 46 46 48 46 43 44 44 43 39 34 32 32 32 31 29 29 31 32 32
30 32 32 30 32 32 34 35 34 32 32 29 31 30 32 32 36 37 30 28 33 32 42 39 39 36 40 41 37 41 44 44 42 42 41 38 34 33 31 32 27 24 31
34 28 29 29 27 25 26 26 24 24 27 28 29 32 33 33 34 34 35 36 30 31 27 36 36 30 32 32 34 35 38 37 34 35 33 30 29 29 31 29 30 31 31
29 28 26 23 22 21 20 20 21 24 29 29 28 27 28 27 28 30 31 32 32 25 24 27 27 28 30 28 29 26 28 29 25 29 30 28 33 38 33 32 35 37 36
22 23 25 25 21 19 19 22 22 24 24 25 25 24 25 24 25 27 28 28 28 27 24 19 18 20 25 28 26 24 24 23 25 28 29 32 34 32 34 35 35 38 39
20 19 20 22 21 19 19 20 22 22 23 23 22 23 23 24 26 27 27 27 25 24 21 18 16 13 15 19 20 19 25 25 27 28 27 30 29 29 32 33 34 38 40
17 15 16 18 18 20 20 21 22 22 20 19 20 23 23 25 25 27 27 27 24 20 15 12 12 11 14 10 14 16 15 20 24 25 25 24 25 26 30 32 30 35 38
13 12 12 12 14 16 17 19 19 18 18 19 20 22 23 24 26 29 31 27 22 20 17 12 5 3 1 2 6 9 9 18 23 22 18 20 24 25 26 27 29 34 37
10 10 9 9 11 12 14 15 15 15 18 23 24 25 26 28 28 31 33 29 23 23 22 15 9 4 6 6 5 2 5 9 14 19 17 16 20 22 22 27 26 27 30
7 8 8 6 8 7 9 10 9 11 14 19 22 25 27 27 30 35 34 30 26 25 23 16 11 6 2 10 11 11 5 6 9 9 12 12 16 19 20 23 21 21 25
5 6 6 6 5 4 4 6 8 7 10 12 19 22 26 28 30 34 36 33 28 29 27 17 13 10 6 1 15 16 16 13 8 8 6 10 9 15 15 15 14 15 21
6 4 4 3 3 1 2 6 5 4 8 12 17 21 25 28 29 32 36 31 31 33 33 22 16 10 8 7 8 12 21 19 15 11 5 2 4 10 14 12 10 15 18
8 6 5 4 4 3 2 5 4 4 7 12 16 21 26 26 29 31 35 30 32 33 37 30 19 15 16 16 6 6 14 21 22 15 10 6 1 5 7 7 8 17 15
10 9 9 8 7 6 6 6 7 8 10 14 17 20 23 26 27 29 34 31 31 33 35 38 25 17 20 23 16 6 5 15 21 22 15 11 9 9 5 9 4 8 17
12 12 10 10 10 8 7 8 10 14 15 16 17 20 21 24 26 28 32 33 30 32 34 37 30 18 15 20 22 20 11 2 12 17 16 15 12 15 11 13 7 13 18
17 15 13 11 12 11 8 7 11 14 17 17 17 19 21 22 25 26 30 31 27 28 31 33 34 27 17 13 15 17 17 14 4 6 12 14 15 16 19 17 16 19 22
21 19 17 15 14 13 11 10 12 14 16 17 16 18 19 23 23 22 26 29 27 27 30 33 35 34 26 18 12 12 11 7 4 1 8 12 16 18 20 20 23 24 23
25 23 20 18 17 16 14 13 14 16 18 18 18 18 20 24 23 20 23 27 25 26 28 31 35 36 33 25 20 13 11 10 8 6 8 8 11 13 16 20 19 23 26
28 26 22 21 20 18 18 17 16 18 20 19 19 20 21 25 23 20 21 23 25 24 25 26 29 33 32 31 23 18 17 17 12 12 13 12 11 11 14 16 22 24 25
28 27 24 23 22 21 21 20 19 19 20 20 21 22 22 25 24 21 20 22 25 22 22 24 26 28 30 30 29 25 18 18 18 15 10 11 11 13 16 18 22 25 26
34 31 29 27 25 24 24 24 23 22 24 24 24 24 25 27 25 21 19 22 23 22 19 21 21 24 24 24 25 24 22 20 21 18 14 16 9 11 15 19 23 25 27
36 36 36 32 30 27 27 26 26 27 29 29 28 28 27 28 27 23 21 21 21 23 21 20 21 22 22 22 20 19 22 22 22 17 18 18 18 17 16 17 21 26 29
36 39 37 36 35 32 32 31 30 30 31 31 31 31 30 30 29 27 24 23 22 23 24 23 21 23 22 21 21 16 16 17 14 11 17 16 17 21 24 25 25 24 25
38 37 35 37 37 38 36 35 35 35 33 33 34 34 33 33 33 30 27 26 25 25 26 26 25 23 23 23 21 16 17 19 12 8 15 19 19 24 30 32 33 35 36
32 35 36 34 38 38 39 39 40 39 38 36 36 36 36 35 35 35 32 29 29 27 26 27 28 29 27 25 24 24 19 19 25 19 13 19 24 23 29 34 37 39 43
35 32 30 35 38 38 41 43 44 43 43 41 41 40 39 38 37 37 37 35 33 30 31 29 29 30 30 29 28 28 26 26 26 30 26 25 25 24 29 37 40 42 45

GFSMA_250_spd_057.txt.gz
Wind_Speed
39 37 37 34 38 38 36 33 30 31 31 34 34 36 37 38 39 37 34 33 43 39 40 41 42 43 45 46 48 46 45 45 42 37 34 32 26 25 28 29 27 24 28
34 33 32 33 33 30 28 29 27 29 30 29 31 33 32 34 35 34 32 31 33 34 35 35 37 39 39 40 42 43 40 38 32 29 28 30 29 28 27 29 29 31 35
26 27 27 27 25 24 24 27 29 28 26 27 28 29 29 32 32 32 31 26 27 27 29 32 29 30 31 30 30 30 28 29 29 31 31 31 31 33 37 38 39 40 43
24 24 19 17 18 16 21 25 24 24 23 24 25 27 28 30 31 30 29 26 22 20 19 21 26 27 24 21 21 20 20 25 28 29 36 36 35 38 38 42 42 39 39
23 20 17 16 14 17 19 20 21 21 23 25 25 26 27 28 29 28 26 22 18 16 14 14 17 18 19 18 17 19 21 22 24 28 31 33 34 33 35 37 37 37 40
21 21 21 20 18 17 17 19 20 21 21 23 23 24 25 27 31 31 25 21 18 13 9 10 9 10 16 19 17 17 17 20 21 25 28 29 31 29 30 33 33 32 37
18 18 19 20 19 17 18 16 19 20 21 23 25 25 26 29 33 31 27 21 21 18 10 4 8 6 5 12 12 13 16 17 18 22 26 25 26 25 26 27 25 26 30
14 16 14 16 17 16 15 15 19 21 22 24 25 27 28 30 34 34 25 22 19 17 11 5 1 4 7 1 7 13 17 15 14 17 20 21 22 21 21 20 20 24 26
11 11 11 13 14 13 11 14 15 16 18 21 23 27 30 31 33 36 28 25 27 21 12 4 2 5 9 8 6 8 16 12 12 12 13 18 18 17 15 16 19 20 23
9 9 8 9 10 9 9 8 9 11 13 17 22 25 30 30 31 34 26 27 30 25 18 8 5 3 6 13 13 12 11 14 11 9 9 12 15 13 10 10 14 14 16
8 9 7 6 5 6 7 6 8 10 12 16 21 25 29 29 30 33 32 29 31 34 25 16 11 8 4 4 14 17 16 20 13 8 5 6 9 12 9 4 6 7 15
5 5 6 6 4 3 3 5 7 8 11 16 21 23 26 28 29 31 35 29 32 34 31 22 14 13 10 6 12 17 20 21 17 14 10 5 6 10 8 5 3 4 13
4 4 4 4 5 2 1 3 5 7 12 16 19 22 24 26 29 30 34 31 32 35 37 29 18 17 22 18 7 8 15 18 22 21 14 8 7 10 9 8 6 6 11
8 5 5 5 5 5 4 4 5 9 11 16 18 20 23 25 30 29 32 33 30 33 36 38 32 19 19 22 20 10 3 12 14 22 18 15 11 13 15 16 15 14 15
11 8 7 7 8 8 7 6 7 9 12 15 18 19 19 23 29 27 29 33 30 30 33 37 38 30 16 16 18 19 13 4 5 14 20 20 18 17 19 23 20 16 20
15 12 9 9 11 12 10 9 8 9 11 14 17 19 19 21 27 24 25 29 30 28 27 31 35 32 24 18 14 13 13 11 6 2 14 15 17 20 24 26 25 26 27
20 18 15 13 13 14 14 13 12 10 10 13 15 18 20 21 25 24 23 25 29 28 28 26 29 32 32 25 20 17 15 10 6 4 5 10 15 19 25 30 29 28 32
24 22 19 17 17 17 17 17 16 13 12 12 13 15 19 20 23 24 22 23 25 27 27 27 26 27 29 29 24 19 20 20 15 11 11 12 15 17 19 18 22 28 31
27 25 23 21 21 21 20 19 19 18 15 13 13 13 17 20 23 23 21 20 21 24 26 26 25 25 26 28 27 23 17 13 10 9 9 8 10 12 14 15 19 23 25
29 27 25 24 24 24 23 23 23 23 20 17 15 15 17 20 23 24 22 19 19 20 23 24 25 25 25 23 24 22 21 20 15 6 7 9 9 7 7 9 13 17 20
31 29 27 27 26 26 24 25 25 26 25 23 20 20 21 22 23 25 25 21 18 19 21 22 22 24 24 23 22 21 19 17 12 4 12 11 10 11 12 15 18 20 20
33 30 30 31 31 30 28 28 28 28 28 27 26 24 24 24 24 26 26 25 21 18 19 21 21 22 23 22 21 22 20 15 11 16 11 13 15 16 15 19 19 21 25
34 34 32 32 33 34 34 34 33 32 30 28 29 29 27 27 27 28 29 29 27 22 21 20 21 23 22 22 23 22 20 17 11 13 21 15 23 25 25 25 25 28 30
35 34 33 33 34 37 38 38 37 37 37 35 33 32 30 29 29 30 31 32 31 29 26 26 22 23 25 24 25 25 26 24 20 16 24 29 25 30 32 33 33 32 33
34 33 31 32 37 36 36 38 40 40 39 39 39 36 35 35 34 34 35 35 34 33 32 32 31 27 26 27 26 27 28 32 31 26 26 34 35 34 39 38 39 40 41
37 35 32 32 34 37 41 40 40 39 38 39 40 40 39 39 38 39 39 38 38 38 36 36 36 36 32 30 31 30 29 31 35 39 33 33 36 38 38 41 41 43 43

GFSMA_250_spd_060.txt.gz
Wind_Speed
34 34 33 28 30 29 27 33 29 30 30 32 35 37 37 39 38 37 35 37 38 38 41 42 44 45 45 46 43 41 38 35 31 27 27 24 23 24 25 23 29 30 32
31 32 25 24 24 27 26 28 27 30 31 33 33 35 36 35 34 29 28 28 30 31 33 34 35 36 37 36 34 33 29 29 28 27 25 27 26 30 33 35 33 36 37
28 27 23 20 19 22 23 26 26 27 29 32 34 34 36 36 32 26 21 21 22 23 26 29 27 27 28 28 26 26 28 29 29 32 32 31 30 35 35 33 34 34 35
24 20 16 12 15 16 22 25 26 27 29 30 31 33 34 35 33 28 22 16 16 14 19 20 21 21 19 21 21 24 28 31 30 30 31 35 34 32 31 30 30 27 27
19 18 9 14 13 18 24 24 24 26 28 29 30 31 34 36 32 25 22 20 12 11 10 12 17 17 17 17 18 20 23 24 27 27 29 29 29 29 28 30 27 25 22
22 20 17 14 16 18 21 22 25 26 27 29 30 32 34 35 30 23 22 20 16 9 8 7 9 14 15 14 14 17 20 20 23 26 24 25 24 25 26 25 25 22 20
18 18 17 15 15 16 19 22 23 25 26 28 32 34 33 35 29 25 24 22 17 12 6 9 9 9 11 11 11 13 12 15 20 22 20 21 20 19 18 17 19 19 19
16 13 12 13 13 14 15 17 18 21 24 27 31 33 32 34 29 23 24 23 16 13 4 1 10 8 13 6 14 13 12 10 16 16 17 17 15 14 13 14 19 20 22
13 11 10 10 9 10 11 13 15 16 20 25 29 31 32 31 33 26 23 23 22 17 10 4 2 9 15 11 11 16 15 10 8 13 13 13 11 9 11 10 8 14 15
11 10 9 7 6 7 10 11 12 14 18 23 27 29 31 32 33 30 27 26 26 21 18 10 8 4 7 14 15 16 15 12 9 6 10 11 8 8 8 3 1 11 10
6 8 7 6 4 5 7 9 13 13 16 20 23 26 29 32 31 34 28 30 28 28 24 18 17 12 6 7 15 18 18 13 14 6 7 10 11 9 8 6 4 6 9
4 4 4 3 2 2 5 7 10 12 14 18 20 22 26 32 31 33 32 30 31 33 35 23 18 19 17 7 6 13 19 21 17 14 7 6 8 11 12 12 9 11 8
3 3 3 4 3 2 4 6 9 11 14 17 20 22 24 30 31 30 34 31 29 31 34 35 23 17 21 22 14 1 12 19 24 21 18 13 11 10 15 16 16 15 15
6 6 5 4 4 5 6 7 8 10 11 14 18 20 22 28 31 28 30 33 30 29 32 34 35 30 23 21 21 17 6 9 16 22 24 20 17 14 16 21 22 21 19
10 10 8 7 6 6 8 9 9 10 11 13 15 17 19 23 28 27 27 30 31 30 29 33 35 33 28 23 20 19 18 11 4 11 22 23 18 18 17 21 25 29 33
15 13 11 9 8 8 9 10 11 10 12 12 14 15 17 20 24 26 25 26 28 30 29 27 28 30 30 24 23 22 18 12 11 9 6 13 20 20 19 22 25 31 38
19 16 15 13 12 11 11 12 13 12 11 12 11 13 15 17 20 23 23 23 25 27 29 28 25 25 26 27 24 20 20 20 13 6 6 6 8 12 16 19 22 24 28
21 20 19 16 16 16 15 14 15 17 15 13 10 10 12 15 17 19 21 20 22 24 25 28 27 25 24 23 23 23 21 19 16 18 16 12 9 12 13 16 20 20 24
25 24 21 18 19 20 19 17 18 20 19 17 14 12 12 13 15 17 18 19 19 20 22 24 25 26 25 22 21 23 23 20 14 8 8 6 5 7 9 12 12 14 17
26 25 23 22 22 22 22 20 21 23 24 21 19 18 16 17 16 16 18 19 19 18 19 21 22 24 25 24 22 19 21 23 15 14 18 14 10 10 11 13 15 17 19
30 27 26 25 25 25 23 23 23 24 24 24 23 22 22 22 22 20 19 19 20 19 18 20 22 22 24 25 25 23 17 16 19 17 15 17 15 13 14 17 21 23 24
34 31 29 27 28 29 26 26 27 27 26 26 27 25 25 25 25 25 24 23 21 22 21 20 22 23 23 22 23 24 22 17 17 20 21 21 25 25 24 25 27 28 33
36 35 33 31 30 30 29 29 31 31 31 30 30 31 31 31 30 28 28 26 25 23 24 23 22 23 24 25 26 23 23 22 22 22 24 25 31 34 33 35 36 38 40
37 37 36 34 34 34 33 32 32 34 34 33 32 34 34 35 34 34 33 31 30 29 27 28 27 26 26 26 27 29 28 26 27 26 28 28 31 37 41 39 38 41 43
36 37 36 35 34 34 34 34 34 36 35 34 34 35 36 35 34 35 35 35 35 33 32 31 31 30 30 29 29 30 31 31 29 30 30 33 32 37 41 44 46 45 43
36 37 35 34 34 36 34 35 35 36 36 36 38 36 36 36 37 37 38 38 37 36 34 33 34 33 33 33 33 34 35 34 35 36 31 35 36 37 45 46 45 43 42

GFSMA_250_spd_063.txt.gz
Wind_Speed
27 27 27 27 27 30 28 31 32 34 36 38 39 38 33 29 27 28 35 35 37 40 44 42 42 40 38 35 32 32 32 27 24 23 23 20 25 29 32 32 29 30 28
23 23 24 26 27 27 29 30 31 32 34 36 37 37 32 28 25 23 24 29 29 30 31 32 32 32 30 27 29 29 26 24 22 20 20 26 29 31 29 28 28 26 26
20 17 20 23 24 26 27 26 30 32 34 34 36 38 33 28 26 20 19 18 22 24 26 26 27 28 27 27 25 24 20 18 19 23 29 28 28 26 26 28 23 21 20
16 14 17 22 23 25 26 28 30 32 33 34 36 38 33 28 27 25 18 17 16 16 19 21 21 21 21 21 19 20 23 26 26 27 25 25 25 23 25 21 17 17 15
11 10 14 20 22 24 25 26 27 30 33 35 34 36 32 28 27 24 20 16 10 10 13 15 17 14 15 15 17 19 26 26 29 27 25 23 21 23 22 20 15 13 16
13 13 14 19 20 21 24 25 26 29 32 34 36 35 31 26 27 25 19 15 12 5 6 7 9 11 13 12 12 15 19 20 22 22 21 20 20 19 16 15 16 15 16
14 14 14 15 17 19 19 19 23 26 29 33 34 35 34 27 23 24 25 17 10 7 8 6 5 8 8 8 9 11 14 16 16 18 17 18 16 14 13 14 12 12 13
12 11 10 13 13 15 15 17 20 23 27 30 33 34 34 31 29 26 23 20 17 12 6 9 11 8 8 6 7 9 10 13 14 14 14 13 11 8 8 10 9 9 10
7 7 7 8 10 11 13 15 16 20 24 27 30 33 33 33 29 28 27 25 20 16 10 4 5 13 14 8 10 10 10 10 10 9 9 11 7 6 6 3 4 7 6
5 4 3 3 7 10 12 14 16 19 21 24 26 32 31 32 33 30 29 29 28 21 17 13 8 1 16 18 13 14 13 11 10 11 9 9 8 6 7 7 10 13 12
6 5 3 2 4 7 10 12 14 19 19 21 24 29 30 29 33 31 28 29 32 31 22 18 21 19 5 10 18 19 18 13 11 9 12 11 11 11 11 14 15 18 20
3 4 4 2 2 5 7 10 13 16 18 20 21 25 29 27 29 32 30 29 30 30 33 27 19 21 24 12 7 19 22 22 17 16 10 10 12 14 15 17 21 21 23
4 4 3 3 3 3 3 6 10 13 15 17 19 21 25 27 26 28 31 31 26 29 31 33 33 29 24 26 22 5 13 23 23 20 20 16 13 12 14 19 24 27 30
6 7 5 4 5 5 4 3 5 8 12 15 17 18 21 24 25 25 28 31 31 29 29 30 32 32 32 31 24 19 15 3 13 24 23 21 19 17 16 17 23 29 33
9 8 7 7 7 8 8 6 4 6 9 11 14 15 17 20 23 23 24 26 28 31 30 29 30 30 30 30 29 29 23 14 11 4 11 19 20 23 18 20 20 23 28
15 14 12 11 10 10 10 10 9 5 5 9 12 11 13 16 19 22 22 22 24 25 28 30 28 25 25 26 24 25 25 22 15 12 12 9 5 9 14 17 19 18 20
22 20 18 16 14 13 11 11 13 11 8 8 10 11 11 14 16 18 20 22 22 22 24 25 28 28 25 22 22 23 23 18 18 18 13 6 6 8 12 14 17 20 23
26 24 22 20 18 16 14 13 14 15 12 10 10 12 12 12 15 17 18 19 21 21 20 22 23 25 27 26 24 20 20 19 17 18 13 12 11 12 13 14 16 16 21
27 25 24 22 21 20 18 16 15 16 16 14 13 15 16 16 16 18 19 19 18 19 19 19 19 21 21 22 23 23 21 17 18 20 15 14 11 12 14 14 16 17 21
29 28 26 24 24 23 22 20 19 18 17 16 15 15 17 19 19 20 21 21 20 20 19 19 19 19 20 20 20 19 19 21 20 17 20 19 20 18 19 21 23 24 27
27 29 30 28 27 27 25 24 23 22 20 19 18 17 18 19 20 21 22 23 22 21 20 20 21 20 20 19 21 21 20 18 18 21 19 23 22 22 23 26 29 33 35
27 26 30 33 32 32 30 28 27 25 23 22 21 22 22 22 22 23 25 26 26 25 23 21 21 23 23 22 21 22 22 22 20 22 22 21 25 26 26 25 29 34 38
27 28 29 31 34 35 33 31 30 29 27 26 25 25 26 25 25 25 26 27 28 26 26 26 26 24 22 23 23 23 24 25 24 25 30 29 30 29 28 28 32 36 40
29 27 27 29 31 34 34 33 32 32 30 29 29 29 28 28 28 27 28 27 28 29 28 28 27 27 27 25 24 25 26 27 28 27 29 34 36 36 34 35 38 41 45
30 28 26 26 28 30 32 33 34 35 33 30 30 31 30 29 29 29 29 30 29 30 30 31 31 30 28 27 27 28 28 29 32 33 29 33 35 38 38 39 42 46 49
33 31 29 28 29 30 31 31 31 33 33 28 27 28 28 27 28 28 27 25 25 26 29 29 29 28 28 29 28 28 30 33 33 36 31 33 32 35 40 42 45 47 43

GFSMA_250_spd_069.txt.gz
Wind_Speed
25 26 27 29 31 32 30 33 36 37 33 33 34 32 28 26 28 30 31 32 33 32 28 28 27 27 27 28 28 26 22 21 23 23 20 23 20 19 17 17 19 21 22
23 25 27 28 30 31 32 32 34 37 33 32 32 34 29 28 23 23 24 26 27 31 28 28 29 30 28 27 23 21 21 21 23 20 19 17 17 15 13 16 21 17 18
24 26 25 25 28 30 31 30 31 35 36 32 32 33 30 26 22 20 19 20 21 25 28 26 22 22 21 19 18 18 16 18 19 19 15 15 13 10 10 12 11 18 24
23 23 23 22 25 28 28 30 31 32 35 34 35 35 31 27 20 18 16 15 17 20 20 21 19 18 15 13 13 12 14 16 16 18 14 12 8 6 7 8 10 13 20
19 20 19 20 24 26 30 28 31 29 33 35 35 33 32 27 21 16 14 12 12 14 17 16 16 15 14 12 13 13 15 17 15 12 10 9 7 2 6 7 11 16 19
16 15 16 18 21 22 27 26 29 31 31 34 33 31 32 32 26 14 10 7 9 9 9 10 11 11 11 9 8 11 12 12 13 10 8 9 5 1 4 9 13 17 24
10 12 14 14 19 20 22 24 25 28 26 29 31 32 33 35 33 26 14 6 4 4 5 4 5 5 4 5 8 9 8 9 11 10 7 7 4 2 6 11 17 20 25
7 8 11 13 15 18 21 24 23 25 27 26 30 31 32 34 35 33 25 16 10 5 3 2 2 3 3 5 6 7 8 10 9 7 6 6 4 7 11 15 19 24 27
5 5 7 10 12 13 18 21 21 21 25 26 27 29 32 33 34 35 29 22 19 17 12 8 5 11 13 9 9 9 10 11 11 9 9 8 7 9 15 20 24 28 32
4 2 2 6 9 11 15 18 20 20 22 26 25 26 29 32 33 33 33 31 24 19 19 17 15 9 10 18 13 10 10 11 12 11 10 12 13 15 18 21 24 28 30
5 3 1 3 7 9 11 15 16 19 19 22 25 26 27 28 30 32 32 32 30 31 28 25 21 23 19 5 13 13 11 11 12 13 12 13 14 14 17 22 24 26 28
6 6 5 1 3 5 8 10 12 15 17 18 21 25 26 26 26 29 32 32 32 31 30 28 30 29 25 22 9 9 17 17 14 14 11 10 12 13 15 21 19 19 22
7 5 4 1 2 4 6 8 9 12 13 14 17 20 23 25 26 28 28 28 30 31 31 31 30 29 29 28 21 16 6 10 17 18 20 20 19 18 17 13 14 16 23
7 7 4 2 4 4 5 5 6 8 10 13 15 16 18 21 26 27 26 26 27 28 29 30 31 32 30 27 29 25 19 17 14 8 7 12 14 13 13 11 14 22 20
10 9 7 4 6 6 3 4 5 6 7 10 13 14 15 17 20 22 25 26 25 25 26 27 28 29 31 30 27 24 23 24 22 19 15 12 6 4 7 10 14 15 20
15 14 10 9 9 8 5 5 7 7 7 8 10 12 13 16 18 20 21 22 23 23 23 24 24 24 24 25 26 26 25 25 22 18 17 13 11 10 9 11 14 18 21
21 19 16 15 14 13 9 9 9 9 9 9 9 10 13 13 15 16 18 20 21 21 22 21 20 21 22 21 21 21 22 21 19 19 16 14 16 14 15 15 17 21 26
26 24 22 20 19 18 14 12 11 11 10 11 12 12 13 14 13 14 15 17 19 21 22 22 22 19 18 18 19 19 18 17 18 18 18 18 18 18 19 22 26 28 28
31 29 27 24 24 22 19 16 14 15 12 12 14 15 14 14 15 16 17 16 17 19 20 22 22 21 21 20 18 17 17 16 17 19 19 22 23 24 25 26 27 28 29
31 30 27 27 25 24 20 18 18 18 17 16 15 15 16 16 17 18 18 18 18 19 19 19 19 20 20 20 21 21 19 20 20 19 23 22 25 27 27 27 28 29 30
28 28 26 25 23 22 20 19 19 19 19 18 18 17 16 17 18 18 19 20 20 20 20 19 20 21 20 21 21 23 23 21 23 26 24 27 26 27 29 29 29 30 29
25 24 27 25 23 22 20 20 19 19 20 19 18 18 17 17 18 19 20 20 20 20 20 20 21 23 23 22 22 23 23 23 22 24 24 22 26 29 31 28 28 28 31
24 25 23 22 22 22 20 19 18 16 16 16 17 17 18 19 20 20 19 20 19 19 19 18 18 20 20 22 23 23 23 21 21 24 26 26 26 27 29 27 27 29 33
25 23 19 18 17 18 19 20 20 19 18 14 14 18 18 18 19 19 20 17 18 17 16 18 18 19 19 21 23 23 23 22 22 25 26 29 30 29 30 30 30 32 36
26 24 22 18 17 15 14 16 17 19 18 16 13 13 14 17 17 19 21 21 20 17 20 24 23 21 21 22 23 23 25 26 27 28 29 28 32 31 30 31 31 33 37
31 28 25 23 21 18 18 18 18 17 17 15 13 14 15 16 16 20 23 22 20 20 24 25 27 27 24 23 26 26 23 23 27 29 29 29 32 33 29 31 29 33 37

GFSMA_250_spd_072.txt.gz
Wind_Speed
27 30 35 34 35 34 35 39 37 37 38 34 30 27 27 28 34 37 37 37 36 34 30 27 26 27 27 26 25 25 23 19 19 20 19 18 13 16 15 15 20 21 26
27 30 34 34 34 34 34 37 38 38 39 37 32 26 26 24 30 31 34 34 33 34 34 33 30 28 26 24 22 19 19 18 16 17 16 14 12 11 10 13 15 23 27
25 28 31 32 32 33 35 34 36 39 41 38 35 28 23 24 23 27 28 29 29 28 25 25 23 19 18 19 18 18 18 16 16 15 12 10 7 9 11 12 17 23 25
23 26 27 29 31 31 34 33 35 39 39 38 37 34 25 20 20 22 22 24 25 23 21 18 16 15 15 14 13 16 17 17 14 11 9 5 4 9 11 12 20 23 27
18 22 26 26 27 29 29 33 32 35 38 38 38 37 34 26 18 17 17 17 19 21 18 16 14 12 10 9 10 12 14 16 12 9 4 2 4 8 12 14 19 26 31
18 18 22 24 25 26 26 30 32 33 36 38 38 40 40 33 25 17 12 12 13 14 14 14 11 10 10 7 8 11 11 10 9 4 0 2 3 8 13 17 23 27 33
15 16 18 20 23 25 25 27 31 32 34 36 38 40 40 38 31 25 19 13 10 9 8 7 6 6 6 5 6 7 7 5 4 3 2 3 5 9 16 20 25 30 33
9 11 14 17 19 22 24 25 28 31 32 33 36 38 38 38 34 29 25 21 14 9 6 3 3 2 3 5 5 7 5 3 3 4 5 7 9 11 17 21 26 29 30
4 6 9 12 15 19 21 23 25 28 30 30 33 34 36 37 36 35 29 24 21 18 16 15 11 6 10 9 8 7 5 5 7 8 8 11 14 17 19 23 25 26 23
2 4 7 9 13 16 18 21 22 22 26 28 31 32 33 35 36 35 33 31 29 28 27 25 23 20 5 11 10 7 7 5 7 9 11 11 14 16 18 19 27 21 22
7 4 4 5 8 12 15 16 18 18 21 25 28 30 30 31 31 33 34 34 33 32 32 33 35 32 27 11 5 8 7 8 7 10 13 11 12 14 17 20 19 20 20
8 7 6 6 6 8 10 12 14 15 17 20 22 26 28 31 29 30 30 32 33 35 34 34 32 37 35 29 21 6 6 11 14 13 13 10 15 18 19 21 18 17 26
6 8 6 7 7 9 8 8 9 11 14 15 17 19 23 25 27 28 29 29 29 29 30 32 33 32 31 33 30 24 21 17 12 10 11 12 13 14 15 14 14 20 24
9 8 5 6 6 7 8 8 8 8 10 12 14 16 18 19 21 23 25 26 26 26 27 27 28 30 29 29 26 26 23 22 20 19 18 16 13 10 8 12 18 18 21
12 11 8 7 7 4 7 8 9 9 8 9 10 13 15 16 17 19 21 22 23 24 24 25 26 26 26 26 27 27 25 26 22 19 17 16 16 14 14 15 19 23 27
16 14 13 10 10 8 7 8 9 10 9 8 9 9 10 12 13 15 16 18 20 21 21 21 21 22 23 24 24 24 24 24 22 19 18 19 19 19 20 21 22 24 27
21 18 17 16 13 11 9 10 10 10 11 11 10 11 11 12 12 13 14 14 15 16 17 19 18 18 18 18 18 18 19 19 18 18 19 21 21 21 21 20 22 27 29
24 24 23 22 19 19 16 13 12 11 11 12 13 12 11 11 11 12 13 14 15 15 15 14 14 15 15 15 16 15 14 14 15 17 19 20 21 22 24 27 28 29 30
27 28 26 27 26 23 20 18 15 14 12 13 14 14 12 10 10 11 12 12 13 14 14 14 13 13 14 14 14 14 14 13 13 17 17 20 22 23 26 29 30 26 28
28 29 28 28 27 25 20 17 17 16 14 15 15 15 13 12 11 10 11 13 13 13 13 14 14 15 14 15 16 18 16 17 18 17 20 21 23 24 24 24 24 23 25
24 25 25 26 24 23 21 18 17 17 16 15 15 15 14 13 12 11 11 12 13 13 14 13 14 15 14 14 16 18 19 18 18 18 18 20 22 21 22 23 22 22 25
22 22 22 21 21 21 19 18 20 20 19 18 16 15 14 13 13 13 14 13 13 12 13 13 12 13 14 14 17 18 18 15 16 16 16 15 18 19 19 20 20 21 26
20 20 19 17 18 18 17 18 18 18 18 17 15 15 15 13 13 13 15 13 14 13 12 12 11 14 15 17 17 16 14 14 15 15 14 15 16 19 16 20 20 20 24
26 21 19 18 15 16 15 16 17 19 20 20 18 16 17 16 15 14 16 14 15 14 14 17 17 18 16 19 21 19 18 15 14 17 17 18 18 19 14 18 19 19 20
29 27 22 19 18 16 13 13 12 15 14 14 15 16 16 15 12 15 15 14 15 13 14 16 17 17 18 18 19 18 15 13 12 14 15 17 17 18 17 18 18 19 21
34 29 26 25 24 21 18 16 14 14 13 10 10 12 14 14 13 14 14 13 12 11 16 16 15 16 18 19 18 16 9 7 11 10 9 12 16 21 19 17 17 20 24

GFSMA_250_spd_075.txt.gz
Wind_Speed
32 33 36 38 36 39 39 38 37 33 28 26 27 32 35 36 39 39 39 37 33 30 29 28 30 28 27 27 28 26 23 20 19 16 13 10 11 12 13 18 22 27 30
30 33 35 37 37 36 39 38 37 36 32 26 23 26 31 34 37 38 39 37 35 34 33 32 30 26 26 24 23 19 19 16 17 13 9 8 10 14 17 20 25 28 30
27 30 32 34 37 36 36 39 38 36 34 31 22 21 26 29 32 34 32 32 32 30 28 26 25 24 20 17 19 17 17 14 13 9 6 6 11 14 16 20 26 31 36
26 28 31 32 34 37 36 38 38 38 37 35 28 21 20 23 26 28 29 27 25 24 21 18 17 17 17 14 14 16 15 12 9 7 4 6 11 16 19 22 28 34 37
24 26 28 30 32 34 36 36 37 38 39 37 35 29 23 21 20 22 23 23 23 21 18 16 13 12 12 11 13 13 12 9 7 6 5 7 12 16 20 24 30 35 32
22 24 25 29 29 31 34 36 35 36 37 38 36 34 33 29 22 19 17 16 17 16 15 15 12 12 11 10 11 11 11 7 3 2 5 9 11 17 21 26 31 32 24
19 21 22 24 26 28 29 32 34 35 36 38 38 37 37 35 30 23 17 13 11 9 7 6 6 8 10 10 10 9 7 5 1 2 5 9 14 19 22 26 29 25 22
14 18 20 19 22 25 26 29 31 34 34 36 37 37 37 38 35 31 27 23 18 14 9 1 5 8 10 10 10 10 5 2 1 3 5 10 14 17 20 25 26 24 24
12 14 16 17 18 21 23 25 27 30 33 34 34 35 38 39 36 34 31 29 26 23 17 13 4 7 13 13 10 7 4 3 4 6 9 12 14 15 20 23 22 23 22
10 12 12 14 16 17 19 22 23 26 29 32 33 34 33 35 37 35 33 32 30 30 33 23 21 10 13 14 10 6 3 3 3 5 8 11 13 14 20 20 19 17 25
8 9 11 12 14 15 15 18 21 22 23 26 28 30 32 32 32 30 30 32 31 30 29 35 33 31 19 11 9 6 2 4 6 8 11 10 9 16 18 17 18 20 25
7 6 7 8 10 13 14 15 16 17 19 20 23 25 27 28 28 28 27 27 27 29 31 30 31 35 31 27 17 7 1 3 5 7 8 9 10 9 12 13 16 21 23
8 5 6 6 8 11 12 12 12 12 14 16 17 19 21 23 24 24 24 24 24 25 26 28 31 30 29 28 26 24 22 22 22 20 17 14 12 7 8 15 18 20 23
10 5 7 7 7 7 10 11 11 11 11 14 14 14 16 17 18 19 19 20 21 21 22 24 26 27 27 27 24 23 22 20 22 20 18 15 15 16 17 19 19 21 22
10 7 5 7 7 7 7 7 9 9 9 10 11 12 13 14 14 14 15 16 18 18 18 20 21 22 23 23 22 22 21 21 21 17 16 16 17 18 18 17 20 23 26
13 10 8 6 6 6 7 8 6 9 9 10 11 11 12 11 12 12 12 12 13 14 15 16 17 17 18 18 18 18 18 18 17 15 16 16 17 17 17 20 22 23 26
18 16 12 11 9 10 10 11 10 9 9 9 10 12 12 11 11 11 12 13 14 14 13 13 13 12 13 13 12 13 14 14 14 13 13 14 16 17 17 19 21 21 24
21 20 19 16 16 15 14 14 12 11 9 10 9 9 11 11 10 11 11 12 13 14 14 13 13 13 12 12 11 10 10 11 11 13 15 16 15 15 18 20 18 19 21
24 22 22 23 20 19 19 16 14 12 11 11 12 10 9 9 9 9 9 12 12 12 13 13 14 14 14 15 14 12 11 9 10 10 11 13 14 17 21 20 18 19 21
28 25 24 25 24 21 19 17 12 12 11 11 11 12 10 8 9 8 9 10 11 11 10 11 12 12 12 13 15 15 14 12 11 9 11 12 15 17 17 19 19 18 20
29 27 25 24 24 22 18 15 14 13 13 15 15 14 12 10 9 8 8 10 10 12 12 10 9 10 11 12 14 12 11 9 9 12 16 14 16 19 17 17 16 16 19
25 26 25 22 22 21 17 15 14 13 14 14 15 15 14 12 11 10 10 9 10 11 11 10 9 11 15 12 13 11 11 13 14 14 10 14 16 16 14 14 14 16 19
23 22 22 22 21 19 16 13 13 15 15 14 13 14 15 15 13 12 11 10 8 9 11 7 8 10 12 14 13 11 9 10 10 12 14 13 14 13 9 12 14 18 19
28 25 22 22 21 20 17 15 16 16 18 15 13 13 15 16 15 14 14 8 8 5 8 7 6 8 10 13 13 10 5 7 9 12 13 12 11 10 12 14 16 16 18
33 30 26 25 24 24 21 19 18 18 17 12 10 8 9 12 13 13 12 9 6 4 7 6 6 7 9 11 8 6 5 6 7 11 14 12 13 10 12 14 15 22 21
37 36 32 31 29 28 24 23 21 19 18 12 10 8 7 5 7 11 10 8 5 5 10 7 4 5 7 9 7 3 4 3 6 6 7 9 8 8 10 13 16 19 21

GFSMA_250_spd_078.txt.gz
Wind_Speed
35 37 35 35 36 34 33 31 24 22 24 28 32 36 37 37 37 37 35 33 31 29 26 25 28 27 29 30 28 24 23 20 15 11 7 10 12 16 19 22 27 33 34
33 34 36 35 36 38 36 34 31 21 22 25 28 33 35 34 33 33 32 32 32 31 31 29 28 28 28 26 22 19 19 17 12 7 7 8 14 18 20 23 28 32 30
30 32 34 36 36 37 38 36 36 28 20 22 24 27 31 32 33 34 33 34 34 31 28 26 25 24 23 20 20 19 17 13 9 4 2 8 14 18 22 26 30 32 24
29 30 32 34 35 35 36 37 37 35 24 21 21 23 24 25 27 27 29 27 24 23 23 22 20 19 19 17 17 16 12 9 5 2 4 9 14 18 21 28 31 25 25
27 27 29 31 33 34 35 36 37 36 34 27 20 18 19 20 21 21 20 21 21 19 18 18 17 15 14 14 15 15 10 8 4 2 7 10 14 19 22 27 27 21 24
23 25 27 28 30 31 33 34 36 36 35 35 30 23 17 16 17 17 17 14 12 11 12 12 12 12 12 12 14 13 9 6 2 3 6 10 15 19 23 24 22 26 26
19 23 23 25 28 29 30 33 32 34 35 35 35 33 29 25 20 18 15 11 8 7 6 6 9 11 11 11 11 10 9 5 3 4 8 11 14 18 21 21 17 26 26
15 18 21 23 24 28 28 29 31 32 33 33 35 35 33 32 30 29 27 20 13 8 3 7 10 12 13 12 11 8 4 1 3 7 9 12 15 17 20 22 22 19 26
13 15 18 19 21 23 25 25 26 30 30 31 32 32 34 34 34 32 30 31 27 16 10 2 11 17 14 12 12 9 5 3 3 6 8 12 15 16 20 17 21 26 27
11 12 15 15 17 18 20 22 22 25 26 28 30 31 31 30 30 31 32 30 30 30 26 18 6 17 19 13 9 5 2 2 3 6 10 13 14 15 17 18 23 25 28
11 10 10 12 14 15 16 18 20 20 22 22 25 27 27 27 28 29 28 29 30 28 30 30 25 13 16 13 9 5 3 3 6 7 11 11 10 10 11 17 23 26 27
9 10 8 9 12 13 13 14 15 16 19 19 21 22 23 24 24 26 26 26 26 26 26 26 28 27 19 11 7 5 2 4 6 3 10 9 4 7 13 17 21 25 27
7 8 8 6 8 12 12 11 10 13 14 16 17 19 18 19 20 22 23 22 23 23 23 24 25 25 24 23 22 21 21 20 19 12 9 3 9 9 14 20 23 24 26
5 7 6 6 7 7 8 10 10 10 10 13 14 16 17 17 17 17 19 19 18 18 17 19 19 19 19 20 20 19 18 16 16 16 13 11 12 14 18 20 22 22 24
4 3 5 4 4 4 6 6 8 9 8 10 12 12 14 14 15 15 14 15 15 13 13 14 15 15 16 16 16 15 15 15 15 15 15 15 16 18 18 19 20 20 21
9 7 5 5 3 4 6 7 7 7 7 8 10 10 11 11 12 12 13 13 13 12 12 12 14 15 15 14 13 12 11 12 12 13 13 16 17 17 17 18 15 18 21
13 13 12 9 7 7 8 10 9 8 6 7 7 8 8 8 8 9 9 10 11 11 11 12 13 14 14 15 15 14 14 13 13 13 15 15 15 17 18 14 15 18 21
18 17 15 13 11 11 11 11 13 10 7 6 6 7 8 7 6 5 6 8 8 9 10 11 11 12 13 14 13 14 13 12 11 12 11 10 14 16 18 17 17 21 21
22 21 19 17 15 14 15 16 14 13 10 8 6 5 5 7 7 6 6 6 8 9 9 9 10 11 12 13 14 13 11 9 9 11 9 10 16 14 14 15 18 21 19
27 26 24 22 20 18 18 18 16 14 12 10 8 8 7 5 5 7 7 7 8 8 8 8 8 9 13 12 13 12 11 11 13 15 14 15 16 14 14 16 18 20 22
26 28 28 28 26 24 21 20 18 17 15 14 12 11 10 7 6 5 7 7 7 7 7 6 6 8 12 10 12 11 13 16 16 15 16 17 18 14 15 16 17 19 22
26 25 26 28 28 27 24 22 20 19 17 15 15 14 12 10 9 7 7 7 7 7 5 4 3 7 8 8 9 10 9 10 15 14 17 18 17 16 16 17 16 17 19
28 28 28 28 28 23 22 21 19 19 19 18 17 15 14 12 12 8 9 9 8 8 7 2 1 3 5 8 6 6 5 8 9 11 13 13 14 13 13 14 14 17 20
35 30 29 27 27 26 23 21 19 18 19 18 17 16 17 14 12 10 11 11 10 9 8 5 4 1 3 5 4 4 4 8 11 10 9 9 9 10 12 11 16 24 26
40 37 33 30 29 28 26 24 22 22 22 19 15 15 15 14 11 11 11 10 12 9 11 8 6 6 3 1 2 5 6 7 8 8 8 6 5 8 19 24 25 25 23
41 42 40 37 33 31 29 27 25 24 24 19 16 15 15 13 12 13 12 11 11 11 14 8 8 9 6 5 5 8 11 11 11 6 4 2 6 11 15 18 19 18 16

GFSMA_250_spd_081.txt.gz
Wind_Speed
35 33 33 34 35 34 27 18 17 22 28 30 29 30 30 28 28 25 22 20 19 19 23 23 20 24 26 27 24 21 18 14 9 4 5 11 15 17 22 25 31 28 28
33 34 34 34 36 36 34 22 18 20 23 28 29 31 31 29 28 27 28 26 24 22 22 24 26 26 27 22 19 17 15 11 6 1 6 12 17 20 22 27 31 26 29
30 33 35 34 34 36 36 30 19 18 20 24 26 27 28 26 26 27 27 27 26 25 23 23 24 24 23 19 16 15 10 7 2 4 8 13 18 22 25 28 25 27 30
29 29 32 33 34 36 38 35 26 18 17 19 22 24 26 26 26 25 25 25 25 25 25 25 24 22 19 18 15 10 7 5 4 6 10 14 18 24 26 24 24 31 33
28 28 28 31 33 34 36 36 34 29 20 15 16 18 19 18 17 17 17 16 15 16 16 17 16 16 14 13 13 11 6 5 3 6 12 15 20 23 24 21 21 26 29
25 26 26 27 31 32 33 35 35 34 32 24 18 14 14 14 13 12 10 9 7 8 8 8 8 9 11 10 10 9 6 4 4 10 12 16 17 20 26 23 24 28 33
22 24 23 26 26 28 31 33 34 35 35 33 31 26 22 17 13 10 7 6 6 5 6 6 9 9 8 6 7 6 6 6 8 8 11 15 18 20 25 23 28 33 32
19 21 21 22 23 24 27 29 30 31 33 33 34 32 30 28 27 26 21 11 6 1 7 9 9 10 9 8 5 2 3 5 8 9 12 16 18 20 20 23 27 30 34
17 18 18 17 19 22 23 25 26 28 29 30 30 29 28 28 28 27 26 26 22 15 4 10 16 13 11 10 7 4 4 6 8 9 12 15 17 15 20 21 27 32 34
15 15 15 16 15 18 21 21 23 24 25 26 26 26 26 26 25 24 26 26 28 29 23 10 9 17 11 7 4 2 5 8 11 12 15 14 14 17 19 24 27 30 31
13 12 12 16 15 14 16 17 19 20 22 23 22 21 22 22 22 23 24 25 27 28 29 27 18 12 10 5 4 6 7 8 10 12 17 14 12 20 20 21 24 26 28
11 11 9 10 12 14 12 14 13 15 16 19 19 19 19 21 22 22 22 23 25 27 28 28 27 15 6 2 0 2 7 14 13 13 9 9 14 16 17 21 24 25 27
7 8 8 6 8 11 13 12 11 11 13 14 16 17 17 18 19 21 21 21 23 25 25 24 23 22 19 18 17 17 15 16 8 7 5 9 14 16 19 22 24 23 25
3 5 7 6 6 8 10 10 11 10 11 12 13 14 13 15 16 17 17 17 18 19 19 20 20 19 17 16 15 14 14 13 12 11 13 15 17 19 20 21 20 22 23
2 2 4 5 6 8 10 9 9 10 9 10 10 10 10 11 12 13 14 14 14 14 14 14 14 14 13 12 11 11 11 10 12 14 15 16 18 19 19 17 19 22 20
7 6 2 1 2 5 8 9 10 9 9 10 10 10 9 8 9 10 11 12 13 12 13 13 13 14 13 12 12 11 10 10 11 13 14 16 20 21 21 21 25 20 18
14 10 8 5 5 4 7 6 10 10 10 9 10 9 10 10 9 10 10 11 11 11 11 12 14 14 14 13 12 13 13 12 12 12 13 16 18 19 21 23 22 18 17
20 18 14 11 10 10 10 9 11 9 9 7 6 8 6 7 9 9 9 10 10 10 11 12 12 13 13 14 15 15 14 13 12 12 13 18 18 17 18 19 19 16 15
20 24 22 17 15 14 13 13 13 13 9 8 7 7 7 7 4 5 6 8 10 11 11 11 10 11 12 13 14 16 18 16 16 14 15 18 16 16 18 18 17 16 17
22 22 26 24 22 19 18 17 16 15 14 12 11 10 9 7 8 6 6 5 6 8 9 9 8 8 11 10 11 10 14 14 14 14 17 17 16 16 16 16 17 17 18
26 25 24 27 25 24 23 22 21 19 19 18 16 15 13 10 9 8 8 7 7 7 7 6 6 6 9 8 9 9 8 10 13 16 17 17 15 15 16 16 21 24 24
31 28 26 25 28 25 23 23 23 23 22 21 20 19 16 13 12 10 9 9 8 8 7 7 7 6 5 5 6 8 8 11 14 17 17 20 18 20 28 28 29 32 34
36 33 30 26 28 28 25 24 23 24 23 22 22 19 17 14 12 11 11 12 11 10 8 7 7 4 2 2 3 5 9 9 10 12 12 17 14 19 25 32 33 33 35
40 38 34 31 29 30 28 27 24 23 23 23 22 20 19 16 15 14 13 14 13 12 11 9 9 7 5 5 7 7 10 11 9 9 16 17 19 26 27 28 29 29 33
49 46 40 36 34 31 28 27 26 25 25 25 23 21 19 18 16 15 17 16 15 12 13 11 12 12 11 11 12 10 9 10 9 11 14 13 16 28 25 24 22 23 24
52 51 48 43 39 36 30 29 26 27 28 28 24 22 21 20 17 17 20 20 19 14 17 12 12 12 12 11 15 15 13 12 13 11 12 2 18 26 23 21 17 11 13

GFSMA_250_spd_087.txt.gz
Wind_Speed
36 34 33 21 18 19 23 24 26 26 20 22 23 22 23 23 19 19 17 12 8 8 5 6 11 13 10 12 11 9 6 3 7 13 19 23 24 25 24 27 32 36 37
37 37 35 29 19 20 18 21 26 27 26 22 18 17 19 20 17 14 10 8 7 8 9 10 13 12 12 12 10 6 4 6 10 16 20 23 24 22 27 31 35 38 37
37 38 35 34 32 23 19 18 21 26 30 28 23 18 13 12 11 8 8 6 6 7 11 12 13 14 13 10 7 3 3 7 13 17 21 21 19 24 27 32 36 36 38
33 37 39 40 37 29 24 18 22 23 27 26 25 24 21 18 15 12 9 7 8 10 10 13 14 14 12 8 6 2 5 10 14 17 18 17 21 24 27 30 34 36 36
31 34 36 37 37 38 36 33 30 25 23 22 21 19 20 16 15 12 11 9 7 7 8 11 13 12 8 3 3 4 6 11 14 18 18 18 18 23 26 30 33 35 31
27 30 33 35 38 39 37 36 36 33 30 27 24 19 16 12 10 6 6 2 3 5 7 9 8 7 6 6 5 4 6 9 13 17 12 16 20 23 27 28 32 28 30
24 26 28 30 32 35 36 35 34 33 31 29 28 26 25 21 13 9 6 6 7 7 10 10 9 8 7 5 3 4 5 8 12 14 15 15 22 24 25 28 28 25 26
20 21 23 26 27 29 30 31 31 32 31 28 26 24 24 23 22 19 17 10 6 10 11 11 10 7 3 3 3 7 7 8 13 16 14 15 21 22 25 26 26 24 25
18 20 19 21 24 25 26 27 26 26 27 27 26 25 23 23 22 21 21 21 13 4 13 13 8 6 4 2 2 3 7 13 12 13 13 16 18 22 24 23 25 23 23
14 16 17 16 19 21 22 21 23 24 22 24 25 25 24 23 23 23 23 25 25 17 4 11 10 7 4 1 1 6 9 12 12 18 15 17 20 22 22 21 23 21 21
12 13 15 16 16 17 17 19 21 21 21 21 22 23 23 24 22 23 24 24 27 28 26 20 12 6 4 5 7 6 6 9 17 14 16 20 19 21 20 20 19 19 19
13 11 11 12 14 16 16 17 16 18 20 19 20 21 23 22 23 23 22 24 25 26 28 23 17 13 12 13 13 12 8 13 11 13 17 18 20 22 20 17 16 17 16
9 9 9 9 11 14 13 15 13 13 16 17 18 19 19 20 20 23 23 22 22 21 21 20 18 17 15 14 13 12 12 9 10 14 17 20 23 22 19 16 16 17 16
7 8 4 5 7 9 11 13 12 11 12 14 16 16 16 18 18 20 20 21 21 20 19 18 16 13 11 9 7 6 6 7 10 12 16 19 22 21 19 17 16 15 19
7 8 8 10 5 9 8 11 13 12 9 9 11 12 13 14 16 18 18 18 19 18 18 15 13 11 8 6 5 5 6 10 12 12 14 19 21 20 19 17 15 18 21
10 9 10 12 13 15 14 9 11 13 11 10 10 11 12 11 12 13 14 15 15 15 15 15 13 12 10 10 10 10 10 9 10 11 16 18 17 21 19 19 19 22 24
15 14 13 15 15 19 17 15 13 16 15 13 13 13 11 12 11 13 13 14 14 13 13 13 11 12 12 12 10 9 8 8 11 15 17 17 20 22 21 21 22 24 23
14 13 17 20 20 22 20 18 22 20 20 17 15 13 13 13 14 13 13 14 14 15 14 10 9 9 9 11 10 10 10 11 14 16 18 20 20 21 20 20 20 23 26
22 19 19 21 22 23 22 22 22 23 23 20 18 17 14 13 13 13 13 14 14 16 16 15 11 10 6 8 8 9 9 12 16 17 19 18 18 20 23 25 30 29 32
28 27 25 24 25 23 23 22 22 21 22 21 19 18 17 15 13 12 11 12 12 14 13 14 13 10 11 10 6 4 7 13 18 20 21 20 24 28 29 29 31 31 36
32 32 31 29 26 25 23 24 25 24 21 19 19 17 15 13 14 13 11 10 11 12 12 11 10 10 9 8 8 8 10 19 20 20 25 26 27 29 28 25 24 27 25
35 35 36 35 32 27 23 24 27 27 25 22 20 19 16 14 14 11 12 11 11 13 12 10 9 6 6 5 5 12 14 22 21 25 25 29 28 27 23 21 24 24 27
32 36 37 38 37 31 28 25 25 27 26 25 23 21 19 16 14 12 13 13 13 14 15 10 9 3 3 4 3 9 14 16 16 18 25 26 27 24 20 15 15 14 21
33 37 38 40 39 40 33 28 28 30 30 28 26 25 23 21 17 13 15 16 15 15 16 14 11 7 1 3 6 8 14 17 18 20 23 24 25 26 19 13 6 4 4
47 47 49 42 44 45 42 39 33 31 32 31 29 27 26 23 19 17 17 16 19 16 16 17 12 8 7 8 13 15 12 16 21 21 24 26 25 20 23 15 3 8 2
58 57 55 50 48 49 45 41 40 38 35 33 29 27 26 24 18 18 20 19 20 13 18 17 14 12 15 16 16 15 15 15 14 21 26 24 26 24 25 19 12 10 10

GFSMA_250_spd_090.txt.gz
Wind_Speed
34 31 24 23 22 27 31 29 22 22 21 23 24 22 19 18 16 12 13 10 9 6 3 4 6 6 7 8 10 8 6 10 14 18 21 24 23 25 29 32 36 37 39
39 37 30 27 23 24 28 30 27 22 20 18 20 17 16 16 13 13 9 5 4 5 6 7 9 8 6 6 4 5 7 11 15 18 23 22 23 26 28 30 35 38 37
38 40 38 35 27 24 23 25 30 29 26 16 14 11 10 10 8 6 6 6 7 9 5 7 10 8 6 6 5 5 8 11 15 19 20 19 22 24 28 32 33 35 35
35 38 38 38 37 34 28 27 27 27 26 23 20 16 15 9 7 5 4 5 3 5 6 8 8 8 6 3 5 7 8 12 16 21 16 20 22 25 28 30 32 32 31
34 35 37 38 36 38 38 32 30 27 23 21 19 16 13 14 12 12 8 8 5 3 5 6 7 7 5 3 8 10 10 13 15 16 15 19 22 26 28 27 29 29 27
31 32 33 35 36 36 35 33 31 30 28 28 26 23 18 16 13 11 7 4 3 0 4 6 7 7 4 6 8 8 10 11 15 17 17 18 22 23 26 26 26 27 24
24 28 30 32 32 30 32 32 31 30 28 26 25 23 22 21 20 17 11 6 4 7 6 7 6 5 5 5 4 7 10 12 14 15 13 16 19 24 24 25 24 26 22
21 23 26 27 28 28 28 28 29 29 28 26 24 23 23 21 20 19 17 10 6 9 11 11 9 6 2 1 2 7 8 12 11 13 14 16 21 23 21 24 23 24 22
20 19 20 23 23 25 25 26 25 26 27 26 24 23 21 21 21 20 22 18 10 6 10 8 6 4 2 1 5 5 10 7 13 15 17 22 22 21 20 22 22 22 23
17 18 19 19 19 21 22 24 23 22 23 23 23 23 22 21 22 23 24 23 19 11 7 9 8 4 3 3 3 6 5 10 14 15 20 20 21 20 20 21 21 20 22
16 14 15 16 17 19 19 19 19 21 20 20 21 21 23 22 22 22 25 24 25 28 27 18 9 5 5 5 5 7 4 10 14 16 17 19 20 19 21 21 21 19 20
12 13 13 14 17 18 19 18 17 19 18 17 18 19 20 21 22 22 23 24 24 24 24 18 16 13 11 11 9 4 6 11 14 15 18 18 19 21 21 20 20 19 21
11 12 11 13 15 18 18 18 16 17 17 17 16 16 17 19 19 20 20 20 20 18 17 16 13 11 10 9 7 7 9 12 12 15 16 18 19 22 21 21 21 21 23
12 12 11 13 14 17 19 18 17 17 17 18 16 17 16 16 17 17 18 18 16 15 13 11 9 7 6 4 5 7 8 10 10 13 16 18 20 22 22 23 21 22 25
11 11 15 12 14 16 20 18 21 19 20 19 18 18 17 16 17 17 17 17 16 16 15 15 13 11 8 6 6 7 11 9 11 13 16 16 23 23 24 23 24 25 27
11 13 14 15 15 16 18 21 20 22 21 22 21 18 18 17 17 17 18 19 18 16 15 15 15 15 12 11 10 12 10 9 11 14 15 20 24 26 26 26 26 28 30
11 13 15 16 17 17 18 19 18 20 21 21 19 21 19 17 16 16 16 17 19 18 14 12 13 13 14 13 12 12 10 12 13 17 21 25 25 27 27 27 29 29 30
10 9 12 15 19 20 20 21 20 19 20 18 20 20 19 17 16 15 15 14 14 15 14 10 12 11 11 12 12 11 9 12 15 20 24 24 25 26 27 29 31 31 35
17 18 19 20 20 20 20 23 23 22 22 20 18 18 17 17 16 15 15 14 14 13 13 12 8 11 9 10 10 7 11 13 18 22 24 30 28 25 28 30 29 31 31
21 22 23 23 22 21 20 20 21 23 25 22 19 18 17 17 16 16 13 15 14 13 13 12 10 8 9 8 7 9 8 15 20 23 27 27 29 30 27 29 28 27 28
28 30 28 27 24 24 25 23 20 19 22 23 22 19 16 17 17 17 16 14 14 14 13 13 11 9 9 7 5 5 12 20 24 21 25 25 26 24 24 25 25 28 25
23 31 26 26 25 23 24 25 24 23 21 21 23 22 19 16 17 16 16 14 13 14 11 11 10 8 6 3 2 7 15 20 24 23 24 21 21 20 20 21 21 22 22
37 29 26 26 30 28 26 27 26 27 25 24 23 23 22 21 20 17 18 18 17 15 13 9 6 4 3 2 6 10 15 20 20 24 23 18 16 12 14 12 10 11 11
38 37 36 31 34 34 34 33 31 29 30 30 26 24 24 23 22 21 21 19 18 18 16 12 6 8 5 12 7 15 16 18 20 23 22 25 17 11 12 12 10 7 4
49 48 43 34 39 39 35 39 38 37 36 38 34 29 24 23 24 23 25 23 22 18 18 20 10 10 13 13 12 18 21 21 22 24 22 22 25 20 18 12 13 10 5
60 59 65 60 53 45 42 39 42 43 46 42 40 35 29 26 24 25 26 25 25 19 19 21 16 12 17 15 18 12 23 23 22 26 27 21 26 28 21 20 17 16 11

GFSMA_250_spd_093.txt.gz
Wind_Speed
33 29 25 27 33 34 29 25 24 24 27 24 20 18 17 18 14 11 8 9 6 4 2 2 3 6 8 8 8 9 13 17 20 24 26 26 29 30 33 34 35 35 30
40 36 30 28 30 33 33 27 20 19 19 22 21 16 13 13 13 11 8 5 3 3 3 5 5 6 6 5 5 8 13 16 19 26 29 24 28 30 33 35 32 33 31
39 40 39 35 31 29 29 31 26 20 16 14 15 12 10 8 4 1 4 6 7 8 8 7 6 5 5 4 5 9 14 16 20 25 22 25 25 32 33 32 31 30 31
38 38 39 38 37 35 33 30 26 24 21 20 19 9 4 6 3 5 3 5 2 2 3 4 6 6 4 1 6 10 15 16 19 21 22 23 27 31 32 31 29 27 28
35 36 36 37 35 34 33 32 32 29 25 22 19 15 13 11 8 6 5 1 2 2 4 5 6 6 3 3 9 12 13 14 19 20 20 21 25 30 28 29 29 25 26
31 33 33 32 32 33 33 32 29 28 28 27 26 24 22 19 15 10 6 5 3 3 3 4 5 4 1 5 9 9 11 14 16 16 18 22 27 26 25 27 28 25 25
27 29 29 28 29 30 31 32 29 27 26 25 24 22 22 22 21 19 13 6 5 3 2 3 3 1 5 5 4 9 10 13 13 15 18 28 24 20 25 26 26 26 28
23 25 24 27 29 27 27 29 28 26 26 25 24 23 23 22 20 20 18 12 5 7 5 3 1 2 2 3 6 7 11 10 14 20 25 23 21 22 22 23 26 28 28
23 23 24 25 26 26 26 25 24 25 25 25 24 22 21 21 22 22 22 20 7 4 9 5 2 1 1 5 5 8 8 13 17 21 20 22 22 21 19 22 23 25 27
22 21 24 22 25 27 24 23 23 23 23 25 24 24 22 22 24 23 23 27 18 16 18 12 8 7 5 5 5 4 8 14 18 18 20 21 21 19 20 22 23 25 25
18 18 20 22 24 29 31 24 23 24 23 24 23 22 22 23 24 25 25 26 27 26 21 13 7 6 9 10 9 5 9 13 15 17 19 21 19 19 21 23 23 24 24
17 16 16 17 21 25 29 29 23 24 25 24 25 23 23 22 23 24 24 25 23 24 20 16 13 10 10 11 10 10 12 12 14 17 19 19 19 21 23 21 21 23 24
16 16 16 19 20 21 24 28 30 26 25 25 26 25 25 25 24 24 22 22 20 18 14 12 11 9 8 8 11 12 11 12 15 17 18 18 19 22 22 20 21 23 26
16 17 17 17 23 20 23 25 26 27 26 25 24 24 24 25 26 25 25 23 21 19 19 16 15 12 14 14 12 12 12 14 13 17 17 19 21 21 22 22 23 29 31
15 18 18 20 21 22 20 25 23 23 24 25 25 23 22 22 22 23 24 23 20 19 19 19 20 17 16 14 14 14 14 14 14 16 17 24 24 26 25 27 27 30 31
12 12 13 16 19 21 20 25 23 22 24 24 24 24 21 20 20 20 19 20 20 17 15 18 17 19 17 16 16 16 15 13 12 14 22 27 30 29 28 29 28 30 32
12 10 12 14 17 20 20 20 22 22 22 22 23 22 22 22 18 19 18 16 17 18 16 16 16 16 16 16 16 14 15 15 17 21 24 28 28 29 30 30 33 35 35
15 11 11 12 17 19 19 18 19 22 21 22 22 22 21 21 20 17 16 16 14 14 14 15 15 16 13 14 12 11 12 14 17 23 25 26 26 28 30 29 30 30 31
13 18 14 12 17 19 19 19 17 17 20 21 22 20 20 19 21 20 17 16 14 13 13 13 14 14 12 12 9 10 12 14 18 21 23 26 25 27 27 30 31 30 28
16 14 26 25 23 23 19 20 17 15 16 17 18 19 18 19 19 20 19 17 15 12 10 10 11 12 9 9 6 8 15 19 23 23 23 24 24 28 27 29 29 26 27
11 12 13 12 20 18 18 17 18 17 17 17 17 18 18 19 20 19 19 19 17 15 11 8 7 6 4 5 3 7 14 20 22 21 26 25 27 26 25 25 25 26 25
19 14 10 16 16 20 20 18 17 20 19 19 19 19 21 21 21 22 20 21 19 18 12 8 5 5 1 5 8 15 16 20 20 22 21 21 23 20 20 20 16 16 16
30 29 21 23 30 21 22 24 24 26 25 23 25 22 21 21 23 24 23 22 21 20 18 12 7 3 6 3 8 13 12 16 21 21 19 18 16 15 15 13 8 7 9
37 39 40 36 32 27 29 24 26 30 34 36 36 31 29 26 23 24 24 22 22 18 17 15 10 7 8 14 15 14 17 18 20 22 19 17 13 9 7 5 6 5 1
48 42 41 40 43 46 37 32 30 31 42 41 33 32 34 33 27 25 26 25 23 18 19 20 12 11 14 13 20 21 25 24 23 22 23 22 20 18 12 12 9 5 6
48 46 46 49 47 43 45 43 47 42 39 38 37 29 40 37 32 30 30 29 27 23 21 21 21 16 16 18 19 28 24 33 27 24 25 27 29 24 25 20 20 20 16

GFSMA_250_spd_096.txt.gz
Wind_Speed
33 30 31 35 32 28 29 28 27 26 29 29 24 23 16 13 13 10 9 8 4 5 4 4 6 6 6 8 9 12 16 19 21 25 27 29 27 33 34 29 27 29 30
40 39 36 34 34 32 29 24 22 25 23 20 20 18 16 14 13 10 6 3 1 3 4 4 5 5 6 9 9 11 16 20 22 26 27 28 29 34 32 28 25 27 28
42 40 37 37 37 33 30 28 24 20 17 17 13 11 9 9 8 5 1 4 6 8 9 7 2 3 6 7 8 14 18 20 21 25 26 27 31 32 28 27 24 27 27
38 41 39 37 37 36 35 33 28 24 22 20 16 12 7 2 3 5 5 1 1 3 2 1 1 2 4 4 11 16 18 19 21 23 23 28 29 27 25 24 25 27 27
35 36 38 38 36 35 34 33 31 31 29 26 23 20 17 13 9 6 4 2 2 3 2 3 1 1 4 9 13 15 17 19 20 21 24 27 25 25 23 25 26 27 28
34 33 34 34 35 34 34 33 31 30 29 28 27 25 22 19 16 9 3 2 2 6 6 7 6 5 6 10 11 13 17 17 20 22 24 23 24 22 22 23 26 27 27
32 32 34 32 32 32 32 32 32 31 29 27 27 26 26 24 23 20 11 1 4 6 9 9 6 6 7 8 10 12 13 16 21 22 22 25 21 21 20 23 24 26 26
28 32 31 33 30 31 30 30 31 31 29 28 26 26 27 26 23 24 19 5 7 8 8 8 8 6 4 7 9 11 15 18 19 21 23 24 19 18 19 20 23 25 26
27 30 27 30 33 31 29 28 28 30 28 28 28 27 28 27 27 28 27 17 10 13 12 9 9 8 7 6 9 9 15 17 19 21 22 20 18 18 19 20 23 25 26
25 24 24 27 33 34 30 30 28 29 29 28 31 29 29 29 30 30 29 29 25 22 18 16 13 11 9 8 8 10 14 15 18 21 23 19 19 18 19 21 22 25 27
23 23 26 28 30 32 33 31 29 30 29 29 31 31 31 30 31 30 31 27 26 23 19 18 16 16 16 15 13 13 13 16 19 22 20 19 20 19 20 22 24 27 28
23 25 25 27 27 31 29 31 31 29 28 29 29 30 31 30 30 31 29 27 23 22 20 18 15 15 14 14 15 15 16 18 21 21 18 20 21 21 22 26 27 31 36
20 22 22 22 21 22 28 29 29 28 29 27 27 27 28 29 29 27 27 27 28 27 21 16 15 18 19 19 17 17 18 17 21 18 19 21 22 22 28 30 32 35 39
18 19 20 24 24 22 24 24 24 26 29 28 26 25 25 24 25 27 25 24 24 24 24 23 21 19 21 20 18 18 18 19 17 17 19 21 25 29 30 31 32 34 36
12 13 15 18 20 22 22 21 24 23 24 27 27 26 24 23 22 23 23 24 22 20 19 21 22 22 20 21 19 20 17 15 18 20 25 26 30 30 31 32 34 35 36
11 11 10 14 17 20 22 22 22 22 24 24 24 26 26 23 23 22 21 21 22 21 20 17 19 19 18 18 18 16 15 20 23 26 27 30 30 30 34 35 36 37 39
13 12 8 8 13 16 19 21 23 21 22 23 22 20 25 24 25 22 22 20 20 20 20 18 18 15 15 14 14 15 19 21 24 27 27 29 30 31 32 32 33 35 36
11 12 15 9 11 20 18 18 16 16 15 19 20 17 18 20 22 23 22 21 18 18 18 20 20 17 16 15 14 15 18 22 24 25 26 26 27 28 26 28 31 33 33
11 11 7 15 17 22 22 16 15 14 14 16 14 17 16 17 19 21 21 19 17 16 15 16 17 15 15 13 12 14 17 21 24 23 23 25 26 26 24 29 29 27 27
14 10 14 11 9 13 15 14 11 11 13 16 17 19 18 20 19 19 22 23 20 15 13 12 13 13 12 10 10 11 15 17 19 23 22 25 25 23 24 25 25 27 27
23 19 14 14 10 3 8 14 12 10 11 14 16 23 25 23 22 20 21 22 22 19 14 11 8 9 6 7 7 8 12 14 15 18 25 25 22 22 21 22 20 19 20
28 26 22 21 18 9 12 12 17 16 14 13 15 21 26 27 24 25 25 22 19 16 12 6 2 1 3 4 7 12 15 15 17 19 22 17 18 17 17 19 16 12 16
34 33 29 27 27 31 23 21 19 20 17 13 16 19 23 22 23 22 24 23 22 19 14 10 6 4 4 5 12 13 18 20 18 19 21 18 17 17 15 11 7 9 6
40 38 39 38 37 37 33 30 24 25 25 24 19 21 28 22 20 25 27 25 23 21 20 12 7 8 9 10 15 18 19 22 24 19 21 19 17 15 11 7 4 3 3
51 49 49 48 46 46 44 41 43 38 35 29 23 26 31 23 24 30 35 31 29 25 23 18 10 7 12 13 16 22 23 29 26 28 26 21 20 16 15 16 13 11 9
58 55 53 52 53 52 52 49 41 39 40 38 36 34 35 33 32 37 35 39 34 35 29 29 23 16 11 15 19 24 27 31 32 31 30 29 30 27 23 25 21 18 17

GFSMA_250_spd_099.txt.gz
Wind_Speed
35 32 32 31 30 32 31 31 31 28 25 24 21 16 15 16 14 12 10 9 6 5 4 7 6 5 6 10 11 13 18 21 21 25 28 27 31 25 24 21 22 24 27
37 36 35 33 30 27 26 26 23 22 22 20 17 15 13 11 11 10 8 5 2 0 3 2 4 4 7 7 11 16 19 20 20 24 24 29 25 23 22 22 21 22 26
42 39 37 37 36 32 28 24 21 18 15 12 9 8 6 5 6 4 3 2 2 3 3 2 1 3 4 9 14 16 18 19 21 22 25 24 22 21 21 21 22 22 22
40 40 39 37 37 36 34 31 26 22 17 12 8 5 4 3 3 5 6 4 2 5 6 5 4 5 7 11 13 15 18 19 21 23 21 21 20 20 19 20 21 23 22
37 38 38 37 36 34 33 32 30 28 27 25 22 18 14 10 5 2 2 2 5 6 5 3 3 6 7 11 13 12 16 18 23 22 23 20 17 17 16 19 20 22 21
37 36 37 36 35 35 33 31 30 28 27 26 25 22 20 19 15 4 4 6 5 10 12 10 8 7 10 11 10 14 16 19 22 23 23 19 15 15 17 18 19 21 21
41 36 35 35 34 35 36 33 33 33 31 30 28 27 26 25 21 9 6 10 9 9 9 10 8 10 9 8 10 17 18 20 22 24 22 17 14 15 17 19 21 22 21
34 39 38 34 35 33 32 33 33 34 34 34 32 32 31 31 30 18 8 14 13 12 11 10 8 6 6 7 13 16 18 21 23 24 18 16 14 16 17 19 22 22 18
32 35 36 36 33 33 32 32 32 34 35 35 34 33 33 35 35 34 27 22 20 16 14 12 9 7 7 11 15 15 17 19 23 23 17 16 15 17 18 20 23 25 23
29 29 34 33 34 32 30 30 29 31 33 34 35 33 34 32 33 34 35 31 24 18 15 15 16 18 19 16 14 15 17 21 23 20 16 16 17 20 20 24 28 29 27
27 26 27 28 32 30 30 30 29 28 29 30 32 33 32 32 32 30 29 27 23 22 20 20 19 17 16 16 17 18 17 22 21 17 18 18 21 25 27 28 32 34 31
25 24 26 26 27 29 30 29 29 28 28 27 28 29 31 32 31 30 28 26 22 20 19 19 20 18 18 18 18 19 20 23 20 18 20 22 28 31 32 31 34 39 38
21 24 25 25 26 27 28 28 29 28 28 28 27 26 26 29 30 27 26 25 26 25 21 20 19 18 20 20 20 22 22 20 19 19 26 27 29 30 31 28 37 40 43
15 19 20 22 23 24 25 26 27 28 28 30 28 26 25 25 27 29 27 23 22 23 22 21 22 21 22 21 23 21 18 19 22 27 29 30 29 30 30 31 34 38 44
11 12 15 18 19 20 24 23 23 26 28 26 29 29 27 25 26 26 26 26 25 22 21 21 22 23 22 21 19 18 21 23 27 30 30 30 31 30 32 32 33 39 43
9 11 12 13 15 19 19 21 23 20 23 25 24 27 26 28 26 24 24 25 24 24 23 19 21 22 20 18 19 21 27 28 30 29 32 30 31 32 33 36 36 39 44
11 10 8 7 14 20 18 18 19 19 18 21 24 24 26 28 28 24 21 22 22 23 24 21 22 21 19 18 19 20 23 27 26 27 29 30 31 30 29 32 35 37 39
5 8 6 4 6 12 19 17 14 16 17 19 18 18 23 28 26 30 26 22 22 21 21 20 21 19 19 18 18 18 20 20 21 21 21 24 28 26 26 25 27 28 32
7 9 9 6 1 1 8 15 11 14 12 14 17 20 21 22 24 24 24 23 21 20 20 18 16 14 14 16 16 16 16 15 17 20 19 22 26 25 24 22 25 25 28
15 15 12 9 7 6 8 4 9 10 12 12 12 13 18 23 24 26 25 22 18 16 14 11 9 9 11 12 14 16 16 16 21 20 21 21 20 20 23 24 25 25 24
23 20 22 18 15 11 10 6 3 6 5 8 10 11 15 19 18 19 25 22 22 17 10 9 6 3 5 7 10 14 13 14 18 19 18 17 20 20 18 18 20 19 21
28 28 29 24 24 21 20 14 9 8 8 8 8 9 10 12 19 13 19 22 18 19 18 10 4 2 5 6 8 13 15 15 16 19 20 18 18 19 14 11 14 13 12
37 31 33 34 29 29 29 29 22 20 20 20 19 17 19 21 18 11 17 22 22 23 20 17 9 6 7 10 12 15 15 19 17 19 18 20 15 17 13 11 7 6 6
44 40 38 40 37 34 34 36 35 36 36 33 26 29 28 28 21 20 21 22 25 23 22 22 18 14 10 13 14 17 21 22 21 22 24 18 13 13 12 12 7 7 2
50 46 47 44 44 40 41 43 44 45 44 44 37 39 31 34 28 26 24 22 28 31 28 27 23 22 18 16 20 20 24 26 27 28 24 22 22 18 17 16 13 13 12
57 54 52 52 51 50 49 48 49 51 53 51 48 43 40 31 32 34 27 31 35 33 33 32 31 29 26 24 21 21 23 29 37 34 30 34 27 29 26 24 24 22 22

GFSMA_250_spd_102.txt.gz
Wind_Speed
30 29 30 28 31 32 30 29 25 20 19 18 18 17 14 11 12 12 10 7 5 5 6 4 3 4 5 7 8 13 17 18 19 22 24 22 19 18 16 16 16 17 19
35 32 30 27 25 26 25 23 20 18 15 14 15 12 12 10 9 8 7 5 3 1 3 2 2 3 5 6 10 14 15 16 20 21 21 19 16 18 19 15 17 15 18
40 36 34 32 28 23 19 19 18 15 11 9 8 6 3 3 4 5 6 5 4 5 4 2 2 4 5 7 12 11 15 18 19 21 19 16 13 17 18 16 16 16 17
40 40 38 35 33 31 27 22 17 12 8 4 1 2 5 8 10 9 9 9 6 3 5 6 5 6 6 9 9 13 15 17 20 19 18 13 10 12 16 15 15 15 14
39 39 40 39 37 34 31 29 26 23 20 16 14 11 7 1 6 7 5 3 5 6 6 6 9 7 9 8 11 13 17 18 19 18 17 12 10 13 14 13 13 13 14
38 36 36 38 37 36 34 32 30 28 27 23 21 19 14 8 1 4 5 4 4 5 8 10 9 10 7 8 13 15 16 20 19 18 15 13 12 13 15 14 11 11 14
34 34 34 34 34 35 34 33 32 31 29 28 27 26 24 13 2 7 8 7 9 11 11 8 8 6 5 9 13 16 17 20 19 17 14 13 11 13 17 17 11 10 14
34 33 31 31 31 31 32 32 31 31 30 29 27 28 30 22 15 14 15 13 13 12 9 7 6 5 11 13 14 14 18 18 18 16 13 13 13 14 17 16 14 12 12
35 35 32 30 30 29 29 30 29 31 32 30 30 28 29 33 31 29 23 17 14 10 7 7 8 14 14 13 13 15 17 17 17 16 16 15 14 16 16 16 18 16 13
32 34 35 34 33 29 27 29 28 29 31 31 30 30 28 31 31 31 24 19 15 16 17 18 17 15 14 14 15 16 16 18 17 16 16 17 19 20 20 20 18 17 15
28 30 31 32 34 31 28 28 29 28 29 31 32 31 30 29 28 25 22 21 19 19 18 16 15 15 15 16 17 17 18 19 18 20 23 23 25 21 21 22 19 18 17
23 23 29 29 30 33 31 29 31 29 30 30 30 32 30 27 26 25 24 22 20 19 19 18 18 17 16 17 19 20 20 18 22 24 24 24 25 29 30 29 26 23 21
18 21 23 24 24 26 30 29 29 34 32 30 30 29 30 31 30 26 23 24 24 21 21 20 19 17 19 20 21 21 19 23 24 26 27 27 25 25 30 32 33 31 29
16 17 18 20 21 24 25 25 27 28 30 30 30 29 29 29 31 29 26 23 22 23 20 21 24 23 24 22 20 21 22 25 27 29 28 27 26 26 29 36 38 40 37
15 17 16 17 19 21 22 22 19 24 28 27 29 30 29 28 28 29 28 25 24 25 23 23 24 23 21 20 19 21 23 27 27 28 28 30 30 32 37 42 45 48 52
9 11 15 16 16 19 20 21 21 18 19 23 24 27 29 31 29 27 30 27 26 26 26 24 21 20 20 20 20 22 23 26 27 31 30 31 33 37 35 38 41 44 45
3 7 6 8 9 12 17 18 18 18 20 18 21 22 24 25 29 29 26 28 28 26 25 21 18 17 18 20 17 21 23 26 26 23 25 25 27 28 32 35 39 41 41
2 2 4 2 2 7 6 14 17 15 15 14 16 20 22 26 24 25 26 24 23 22 20 15 13 14 16 17 20 18 16 18 21 19 22 20 20 21 23 27 29 32 33
8 9 8 6 3 4 2 5 10 10 13 12 16 17 21 24 28 27 21 24 21 21 16 12 9 11 13 10 10 10 11 13 19 18 21 21 22 21 22 24 26 28 26
12 15 14 8 6 7 8 2 5 2 8 8 10 14 15 20 21 25 22 20 24 21 17 10 6 7 7 5 6 5 3 8 14 16 15 16 19 24 23 20 18 19 19
21 11 22 21 14 17 14 9 12 9 8 7 7 9 14 15 17 17 22 22 21 22 20 16 6 2 6 4 4 4 4 9 12 11 10 8 14 12 14 16 14 12 8
30 25 24 25 25 21 19 21 16 14 16 11 10 11 16 21 21 18 12 19 19 20 22 21 20 11 6 5 6 7 7 9 10 10 12 10 11 10 9 10 9 6 4
39 40 37 34 32 31 27 26 26 24 24 19 23 23 26 22 19 21 20 18 23 14 17 16 18 20 16 13 12 12 14 15 14 15 14 12 15 13 12 7 6 3 1
48 44 45 43 39 39 36 34 32 30 31 31 30 31 31 25 27 25 24 21 23 24 20 20 20 14 16 17 16 14 14 17 21 21 21 21 19 17 16 13 11 7 5
56 49 52 52 51 46 46 41 39 38 39 36 37 38 34 33 37 33 29 31 30 27 25 23 22 22 19 15 15 17 18 19 20 23 23 26 27 25 21 19 17 18 15
66 63 57 56 56 54 50 51 46 44 44 46 44 46 44 42 43 39 39 37 39 38 34 31 27 27 23 21 21 20 25 29 24 24 24 28 26 28 31 31 27 27 25

GFSMA_250_spd_105.txt.gz
Wind_Speed
25 26 30 29 27 26 24 24 18 20 20 19 13 11 9 13 11 8 6 4 3 3 2 4 4 3 4 8 12 15 15 18 21 20 19 13 13 18 17 15 14 12 19
28 24 24 23 24 22 21 17 16 17 19 16 13 11 7 4 5 4 5 5 2 2 6 5 3 3 5 9 12 12 16 19 18 19 16 11 13 17 19 16 15 12 19
33 31 25 20 17 18 17 13 11 10 10 8 6 5 3 2 3 5 6 8 9 10 9 6 0 2 5 10 11 13 17 17 19 18 14 11 11 16 18 16 16 13 21
36 33 32 31 28 24 20 15 10 8 5 3 2 4 6 9 10 11 10 11 11 8 5 1 3 4 9 10 9 14 16 18 18 16 13 12 14 17 16 16 15 13 20
36 35 34 31 31 28 27 25 21 17 13 10 6 1 3 8 10 11 7 3 3 2 4 4 6 7 8 8 12 15 17 19 18 14 13 13 17 18 17 15 14 11 19
32 33 33 32 31 29 28 27 25 22 19 16 14 9 3 6 6 3 4 5 6 5 8 7 8 6 4 8 15 15 18 17 15 15 14 15 17 18 18 14 12 12 19
31 30 31 32 31 30 29 27 26 24 21 20 20 17 6 4 9 11 12 13 12 12 8 7 6 5 6 11 14 16 17 15 15 15 14 15 16 17 17 13 11 12 18
32 31 30 30 31 31 31 30 28 28 27 26 24 25 20 12 15 17 15 15 13 9 6 4 4 9 11 13 13 16 15 15 16 15 14 14 14 14 14 13 12 13 16
34 33 33 30 31 33 33 32 32 31 30 29 27 27 30 27 26 20 16 13 9 8 11 11 11 9 10 12 13 14 15 17 16 16 16 14 17 14 13 14 14 15 16
32 32 33 32 31 33 32 31 31 31 32 31 30 29 26 25 24 20 16 15 14 12 11 11 12 12 12 14 14 16 19 20 19 19 18 16 15 14 16 16 15 16 17
27 29 32 32 31 34 33 32 30 29 29 31 29 28 26 25 20 18 17 17 15 15 15 14 13 15 15 16 20 21 22 20 20 22 23 20 19 21 18 20 17 16 16
24 24 25 27 30 31 31 33 32 31 30 30 31 31 30 26 23 21 17 18 18 17 18 21 21 20 21 24 23 22 23 23 24 26 23 21 23 23 23 22 19 17 16
21 22 24 24 26 26 26 30 31 31 32 32 30 31 30 28 26 25 25 25 23 24 26 32 25 21 23 24 24 24 26 27 27 30 28 31 26 26 26 27 26 21 17
16 17 23 25 25 25 24 24 29 29 30 32 33 31 32 32 30 25 24 24 22 26 25 28 18 20 21 21 22 23 26 28 29 29 32 32 35 38 34 32 33 29 25
14 15 15 20 24 24 26 28 28 28 29 29 29 30 34 33 32 28 27 27 25 25 25 23 21 20 18 19 22 25 27 30 31 31 34 35 38 38 38 41 40 40 38
5 5 11 12 15 19 21 23 26 30 30 29 29 33 27 32 33 30 27 27 24 21 20 19 19 18 18 18 19 23 26 28 28 29 30 33 35 36 39 40 41 44 43
4 4 7 7 7 10 13 17 19 20 22 27 28 29 35 27 28 31 29 26 23 18 17 14 14 13 11 12 14 16 17 19 22 21 23 28 28 34 35 35 38 39 40
4 5 1 4 2 5 6 12 14 16 17 18 22 26 30 32 27 24 29 27 22 17 11 10 9 12 8 12 13 11 12 14 17 18 18 18 21 21 26 29 26 28 31
13 9 7 6 5 3 2 2 8 7 11 10 16 21 24 28 27 27 25 27 27 19 9 6 5 7 7 3 2 3 7 8 12 16 17 17 18 18 20 20 21 21 19
17 16 14 8 8 10 7 5 4 6 6 9 7 13 19 24 25 23 25 24 22 23 19 8 1 3 4 4 5 5 5 2 5 6 10 13 15 17 15 13 12 13 15
25 21 19 11 13 20 16 15 9 8 12 12 10 10 13 16 20 21 18 18 20 21 20 18 11 2 5 7 11 8 6 3 5 4 2 6 7 8 9 7 5 7 10
33 31 28 27 19 19 19 16 19 15 15 19 16 15 9 23 20 18 17 19 18 19 20 17 16 12 7 4 3 8 9 9 10 8 8 6 7 5 3 4 4 2 1
40 38 38 35 34 31 29 26 25 24 24 25 25 22 22 21 25 22 19 24 22 18 20 21 17 15 13 11 9 6 5 12 12 14 12 13 12 12 11 10 7 8 6
43 47 44 43 41 41 38 36 35 33 32 30 30 31 32 31 30 25 25 27 25 25 24 23 24 20 18 18 12 7 5 5 6 7 16 21 23 21 19 16 16 12 11
46 51 54 55 54 52 49 43 41 43 44 41 38 35 39 42 40 35 30 31 32 30 31 32 30 32 32 27 24 22 16 12 11 12 11 11 12 18 23 23 23 21 20
57 57 59 59 59 60 56 55 53 50 51 48 44 42 42 42 42 45 44 38 39 36 35 37 37 37 40 37 30 22 25 24 18 18 14 14 12 14 13 15 22 28 29

GFSMA_250_spd_108.txt.gz
Wind_Speed
26 22 20 20 21 23 18 20 20 18 12 8 7 6 3 4 5 3 1 3 3 4 7 11 10 8 10 11 14 14 17 22 22 22 18 14 17 20 23 21 20 18 24
23 23 20 18 16 15 11 16 19 18 17 16 12 9 7 4 3 3 3 7 8 7 15 14 10 7 8 12 15 16 20 22 23 20 15 14 17 22 24 21 21 21 26
27 21 17 16 16 9 6 5 4 7 7 7 6 6 3 2 2 4 6 9 11 14 15 10 5 6 9 13 14 18 20 23 22 16 14 15 19 23 22 20 19 22 27
26 25 25 22 19 12 8 6 4 5 2 2 4 6 7 8 8 8 9 11 12 9 6 5 6 8 11 12 16 17 21 22 18 15 14 16 19 21 21 18 16 19 27
28 27 26 26 23 19 19 15 12 11 8 6 4 5 7 8 10 8 6 3 5 6 6 6 9 10 14 12 17 20 22 20 18 16 16 17 20 23 18 17 15 19 24
35 32 29 32 32 26 24 19 18 18 16 16 12 4 6 7 2 4 5 6 8 8 7 7 10 11 11 16 19 24 22 19 18 18 19 20 21 21 16 16 15 18 23
37 35 39 33 17 29 29 27 27 22 23 27 25 16 9 8 16 14 13 14 14 11 11 11 11 10 14 16 18 21 21 21 20 20 20 22 23 19 18 16 16 21 23
37 35 34 32 31 31 32 33 33 32 29 33 34 30 28 27 24 22 21 18 14 11 11 11 14 17 17 17 19 19 22 22 21 21 21 24 24 22 18 17 16 21 22
38 36 34 31 31 32 33 36 36 36 34 33 32 33 38 36 29 21 20 19 18 19 16 16 19 21 24 25 23 23 24 26 28 23 22 24 25 21 18 17 17 21 24
36 34 34 35 35 34 34 36 36 37 38 33 32 31 23 8 25 32 36 28 27 28 34 30 27 30 31 33 29 27 28 27 28 28 27 31 26 22 19 17 17 20 23
34 30 32 35 34 36 39 39 39 39 38 38 34 29 32 34 24 24 30 30 38 38 36 42 46 34 23 27 29 28 28 31 29 25 24 26 25 24 20 18 17 18 20
30 32 34 33 33 34 36 37 40 41 41 42 37 31 18 26 30 41 20 1 26 23 24 35 29 36 31 24 25 28 31 36 33 31 28 29 30 27 23 19 18 16 17
28 30 31 33 35 37 37 37 37 38 41 43 41 36 31 30 33 21 8 3 12 11 10 2 18 24 20 15 20 26 33 35 33 36 40 38 37 38 35 28 21 18 17
17 23 25 27 31 33 37 38 37 36 37 36 42 41 36 33 33 29 24 19 24 20 9 4 12 22 10 8 18 25 30 33 33 36 39 40 44 46 46 45 40 32 23
7 15 16 19 20 23 24 29 33 37 36 35 32 40 37 34 33 30 28 29 26 24 27 28 19 17 14 12 20 23 25 28 28 32 37 40 41 43 44 44 47 48 46
10 10 10 9 14 16 20 24 25 29 31 38 34 31 36 33 29 29 24 25 25 29 24 22 22 14 14 10 16 15 16 22 22 28 32 36 39 38 39 40 41 40 41
6 2 7 4 4 11 16 18 19 21 23 29 33 32 31 32 33 26 23 18 17 19 18 17 16 13 5 7 9 12 15 17 17 20 27 26 28 29 31 32 31 34 37
10 8 5 5 3 1 8 15 14 13 14 18 24 27 30 30 30 31 27 18 11 10 6 5 4 4 5 10 13 12 10 12 14 15 15 17 19 19 21 22 23 27 31
14 15 12 10 5 6 4 7 12 12 10 11 12 18 24 25 24 23 26 27 22 10 2 2 4 3 2 6 12 9 9 5 8 10 11 11 13 14 15 14 16 19 21
18 19 18 17 11 7 6 7 8 12 10 9 9 10 13 19 20 20 21 22 21 24 22 15 7 5 7 6 3 11 8 6 2 4 2 6 7 8 8 12 12 14 16
28 23 22 21 18 16 13 11 13 16 15 12 13 12 11 13 16 20 17 18 20 21 19 20 19 11 10 9 8 10 7 7 7 7 3 4 1 1 1 3 5 7 7
32 32 31 29 26 25 23 22 14 15 17 18 20 18 18 18 16 21 23 19 17 18 20 20 19 21 15 12 10 10 12 11 11 10 12 11 11 9 8 6 6 1 7
32 32 35 35 35 33 32 31 32 30 27 26 24 21 23 22 23 25 25 25 23 20 17 20 22 22 18 20 19 16 13 8 10 14 15 13 15 15 14 14 13 13 14
36 32 34 35 36 38 38 40 40 40 39 37 31 28 30 30 31 31 32 35 32 30 27 24 25 23 26 26 25 26 17 15 11 9 5 7 11 18 22 24 21 20 19
53 54 51 51 50 49 47 47 51 51 50 49 46 42 39 37 36 36 35 34 33 36 36 35 31 27 29 31 29 29 25 22 21 20 14 12 11 10 10 13 20 25 25
60 62 61 55 57 55 54 53 54 53 55 55 55 56 52 49 47 42 42 41 40 41 42 41 41 39 37 34 36 39 37 37 35 22 27 25 23 20 14 13 15 18 21

GFSMA_250_spd_111.txt.gz
Wind_Speed
16 17 26 16 10 18 13 15 14 12 10 10 10 10 3 4 8 9 8 9 11 9 19 20 20 19 16 18 21 24 26 29 29 24 19 18 21 24 22 20 21 27 31
19 17 12 6 10 8 12 17 16 12 8 9 10 10 8 9 8 8 8 10 12 16 20 20 17 16 18 22 24 26 27 28 24 20 20 19 21 22 21 19 22 27 32
23 16 14 8 4 4 7 9 7 6 9 7 5 3 1 1 3 3 6 10 15 17 16 14 15 17 23 27 27 27 28 25 20 19 19 21 23 20 17 20 24 29 31
27 30 26 24 20 16 12 13 9 7 1 2 6 8 6 6 4 4 8 11 11 12 13 15 16 19 22 24 27 30 27 22 20 19 21 22 20 17 18 21 23 28 34
28 30 36 30 32 25 20 18 17 14 10 5 2 2 0 3 3 6 8 10 12 13 12 15 16 20 21 25 28 28 26 24 22 21 21 19 19 19 20 20 24 27 34
34 36 36 35 35 32 29 25 25 25 20 13 7 6 5 5 9 13 14 16 18 16 15 18 22 23 24 24 26 27 28 26 24 25 28 23 21 21 20 21 25 27 33
39 40 39 39 40 37 35 32 31 38 42 37 30 28 31 28 27 23 21 21 21 23 30 28 30 33 34 33 32 34 35 32 30 32 32 24 22 22 21 22 25 27 31
41 42 42 44 39 38 41 38 36 37 40 43 42 40 31 35 36 38 38 34 38 39 41 46 37 50 46 48 39 34 34 32 33 33 30 24 22 21 23 26 26 22 25
43 44 44 45 46 45 43 40 38 36 34 30 32 35 39 45 44 37 29 35 26 27 36 40 30 42 34 42 42 36 32 32 32 30 28 24 22 20 23 25 28 29 22
40 41 42 43 44 49 48 44 37 34 37 38 30 27 27 25 16 30 28 21 29 30 32 41 33 29 25 36 34 35 34 31 27 31 29 24 21 20 21 23 26 28 28
41 43 44 45 44 43 46 48 44 36 32 30 27 31 20 19 16 11 12 18 24 17 11 18 27 27 22 24 29 32 36 38 38 34 31 29 23 20 19 20 21 25 28
34 39 41 44 46 47 44 43 46 41 37 35 28 36 34 23 19 14 4 13 9 8 14 5 12 6 21 18 23 30 36 41 42 42 40 35 29 23 22 20 18 19 22
28 27 30 36 39 42 44 42 39 40 40 37 33 35 25 21 17 12 10 8 13 12 9 17 1 7 1 13 20 26 32 37 41 43 46 46 43 38 30 25 21 20 21
18 22 24 24 29 33 38 41 40 37 37 36 35 34 33 29 19 10 6 10 10 8 8 14 16 11 7 10 21 22 24 34 36 39 41 41 45 48 47 43 34 28 24
14 11 13 16 21 27 29 33 36 36 37 36 33 31 29 25 25 24 20 18 10 10 14 11 12 13 13 12 14 11 17 25 31 35 36 36 37 41 45 38 38 37 39
5 11 5 8 15 19 20 25 26 29 32 34 35 36 32 26 18 17 18 18 14 11 10 11 11 12 11 11 12 14 11 20 24 29 29 30 31 32 35 36 34 36 37
6 5 4 4 5 11 16 18 20 22 24 28 30 30 32 34 33 18 9 8 10 6 5 7 6 6 7 13 13 16 15 14 13 16 16 20 21 24 27 28 27 29 30
8 8 5 2 2 1 7 8 13 13 14 17 19 26 26 26 28 27 29 14 3 5 7 8 5 6 6 14 17 15 16 13 11 11 11 13 12 14 16 21 20 25 22
16 14 11 10 5 5 3 5 7 7 8 9 12 11 17 22 22 21 22 22 21 21 20 13 10 11 13 14 17 16 16 12 9 8 8 9 7 8 8 12 13 17 20
26 22 17 18 13 10 11 7 8 7 8 8 10 11 10 8 12 17 20 20 18 17 16 17 17 16 14 16 17 18 17 14 13 9 10 9 9 3 3 5 8 8 10
30 32 29 24 20 16 18 15 11 10 11 11 13 13 12 12 11 11 13 19 18 19 20 19 17 19 19 20 20 20 21 19 18 14 14 15 14 11 12 7 3 2 3
29 29 30 31 29 28 26 22 21 23 16 19 21 20 18 17 15 15 16 21 20 20 20 22 21 22 20 20 20 20 21 23 21 17 20 17 17 19 19 16 13 10 11
32 29 36 34 31 30 31 29 28 27 29 32 30 29 26 24 22 19 20 22 25 25 25 24 25 26 27 24 21 20 18 21 21 22 17 16 18 18 21 22 19 22 23
38 40 43 40 35 32 29 28 34 33 35 36 37 38 36 35 36 33 27 29 30 28 31 30 29 29 28 31 31 31 29 24 22 23 16 25 23 16 17 20 22 22 26
48 48 50 48 45 41 44 45 48 45 47 45 44 44 43 43 44 45 44 43 40 38 38 32 34 31 35 36 35 34 36 35 33 31 30 20 23 24 21 21 21 22 24
59 59 52 55 58 58 58 58 58 57 53 53 55 54 47 47 49 48 48 48 48 47 47 46 41 43 43 40 41 41 37 35 38 37 39 32 31 30 32 32 27 30 27

GFSMA_250_spd_114.txt.gz
Wind_Speed
15 16 16 18 22 20 17 14 14 16 16 14 12 13 12 13 14 11 7 5 8 13 18 21 16 14 18 22 23 22 24 22 20 19 19 21 21 18 21 27 30 32 34
17 14 13 13 12 11 12 12 11 10 11 14 15 13 13 10 7 3 6 9 13 17 15 14 16 19 22 22 20 21 20 19 17 18 19 21 18 19 24 28 32 33 37
25 23 19 16 19 20 16 10 9 8 10 11 10 7 3 3 5 7 11 13 13 15 17 20 20 21 21 22 22 20 18 17 17 18 19 19 19 22 25 28 33 34 40
30 30 28 22 25 21 19 16 11 7 7 4 5 2 2 4 7 9 11 13 15 16 18 20 22 24 26 23 21 21 21 20 20 20 21 21 22 25 27 30 33 34 43
38 37 35 31 28 21 22 15 8 5 8 8 7 8 9 10 10 13 16 19 18 19 19 20 25 29 36 37 38 33 32 30 27 24 24 23 26 24 28 31 31 33 42
43 39 40 39 34 33 36 39 30 19 13 12 18 17 17 24 23 24 26 25 23 22 23 29 36 28 36 40 37 34 36 36 32 25 25 26 26 24 26 29 29 30 35
47 44 45 43 40 45 44 49 55 57 53 44 38 35 33 35 35 32 39 37 30 27 24 29 40 35 37 43 42 36 34 31 31 25 25 27 28 28 25 25 26 27 30
49 51 46 40 42 40 38 47 49 48 48 45 44 42 40 33 30 32 41 44 43 36 28 24 35 37 37 32 35 33 34 34 31 25 22 24 27 29 31 27 24 25 25
43 47 49 49 42 40 39 33 33 34 33 34 32 31 30 29 26 29 26 28 29 31 26 23 28 33 41 37 36 36 36 34 30 27 21 23 25 27 30 29 28 23 24
47 47 47 48 46 42 34 34 35 30 26 24 23 24 25 23 18 28 27 23 19 17 13 16 31 35 34 37 40 43 40 35 32 26 23 21 22 24 27 29 28 29 28
41 42 43 44 42 40 38 34 30 27 25 23 20 20 19 20 18 14 17 17 19 24 25 17 14 32 33 30 38 43 45 44 39 32 24 24 24 23 24 25 28 27 27
35 36 37 40 41 40 38 36 35 27 25 23 22 21 21 21 22 20 24 25 23 16 26 16 13 19 28 26 32 38 40 41 46 44 37 29 27 27 26 25 25 25 24
27 27 29 36 37 39 38 36 35 32 25 24 17 15 15 17 17 19 21 18 23 16 17 28 21 18 20 24 28 30 33 37 41 42 41 42 41 37 31 27 25 24 23
18 19 21 27 31 32 38 38 37 32 31 28 26 26 23 20 19 17 17 18 22 24 23 23 22 22 21 25 25 21 27 34 36 32 31 37 39 39 38 41 39 37 33
12 14 16 16 21 26 29 33 32 36 36 33 30 27 23 23 24 24 23 23 23 20 19 19 18 22 25 26 26 23 25 28 29 25 23 31 34 36 37 39 36 35 35
7 14 9 11 15 18 20 22 26 28 32 32 33 32 29 24 20 20 19 21 20 15 17 16 16 19 19 25 25 23 24 17 18 22 23 22 25 28 30 29 32 31 30
4 7 7 4 4 9 11 12 14 19 23 25 26 28 29 29 28 25 20 15 14 16 19 18 17 17 19 24 28 21 19 17 19 19 20 15 19 21 23 25 24 22 23
7 7 5 4 2 3 6 5 7 8 12 16 15 18 21 25 24 22 22 23 23 24 21 18 16 18 20 23 24 22 18 16 17 19 19 19 14 12 12 16 18 18 22
9 13 10 8 6 2 3 3 8 4 6 9 12 13 11 13 16 17 20 20 18 18 17 15 21 22 20 21 22 22 17 18 18 17 18 17 15 10 7 8 11 11 12
13 14 16 14 14 10 10 9 8 11 10 6 8 11 13 12 14 11 13 15 20 21 21 20 16 19 18 18 17 18 20 21 22 19 19 17 16 15 13 12 6 3 5
16 16 21 20 19 19 18 16 14 16 15 16 11 12 13 14 16 14 15 14 16 18 19 20 20 23 23 23 23 24 24 22 20 20 21 19 18 20 20 19 17 15 15
23 30 31 28 22 23 26 27 26 24 22 18 17 16 21 24 23 23 20 19 21 21 21 22 22 22 24 23 24 25 27 28 27 25 24 20 20 22 19 18 20 22 20
38 41 36 33 29 29 32 33 32 28 28 26 27 22 26 29 29 28 29 32 32 28 26 27 28 29 29 28 26 25 25 30 31 31 29 27 25 24 21 24 22 21 19
53 51 45 40 38 36 36 36 37 36 32 27 30 32 35 34 34 33 36 39 39 38 38 35 35 32 33 30 32 31 32 31 32 33 33 33 32 31 27 26 22 21 28
57 55 52 48 47 44 43 41 44 43 34 35 41 40 45 45 44 42 43 45 42 40 42 44 42 40 40 39 41 40 39 38 34 37 39 37 35 35 35 32 30 32 30
68 62 54 53 54 53 52 51 47 46 51 54 52 53 54 54 55 54 55 54 52 49 48 52 50 50 49 50 49 49 49 49 47 42 39 40 43 41 41 37 38 39 35

GFSMA_250_spd_117.txt.gz
Wind_Speed
9 12 14 15 17 17 17 20 22 21 18 16 19 19 18 17 14 10 10 15 23 21 21 25 26 26 27 26 25 23 21 20 19 19 18 17 20 23 27 30 35 37 38
19 21 18 15 10 11 14 14 15 16 15 18 21 18 15 13 11 13 18 20 22 24 26 25 25 26 28 24 21 19 18 18 19 20 20 20 22 24 28 34 42 43 45
24 21 21 24 19 14 12 15 13 12 13 17 16 12 11 12 17 22 23 24 22 23 22 25 29 37 29 27 23 21 20 22 23 24 24 24 23 25 30 35 41 47 43
32 31 30 27 20 14 14 14 13 14 13 11 9 8 16 23 30 28 23 22 29 37 30 25 33 36 37 35 31 30 28 25 27 26 26 24 24 26 30 35 40 43 43
37 40 40 40 31 21 17 15 17 19 15 14 24 30 33 31 32 28 27 29 30 33 38 31 31 31 36 34 31 28 27 27 29 29 28 24 23 24 29 31 35 41 43
38 41 47 54 54 51 44 37 32 29 27 32 38 43 47 47 42 38 34 27 29 31 33 34 28 35 37 36 33 32 28 27 28 30 31 28 21 21 26 30 35 38 40
40 42 43 50 55 56 55 51 53 48 43 46 45 42 46 38 36 34 32 30 30 37 30 29 38 38 38 38 37 33 29 28 25 29 31 31 27 20 22 26 30 36 39
42 42 40 40 39 42 42 41 42 40 43 40 40 37 32 29 27 29 29 25 25 26 36 34 35 36 37 41 40 36 30 28 26 27 29 31 29 29 26 27 29 30 36
41 38 34 34 34 33 33 32 35 41 43 39 37 33 29 30 28 27 29 32 33 32 24 38 38 36 40 44 46 44 36 30 29 27 27 30 31 31 30 32 30 30 31
37 39 38 34 30 29 30 30 31 32 33 33 32 28 24 24 24 22 22 24 27 32 25 29 35 35 40 44 48 49 46 38 33 33 30 28 28 28 28 30 33 33 32
40 39 38 36 35 34 34 34 35 31 22 28 26 30 32 31 30 31 27 29 32 29 25 24 32 33 35 39 43 45 45 49 47 41 35 30 29 28 27 28 30 32 32
36 39 39 36 34 33 34 36 35 33 31 32 28 28 30 30 30 31 32 27 34 36 32 32 30 33 32 33 35 39 42 41 43 45 47 42 33 30 29 29 29 28 28
25 31 34 36 37 35 31 32 31 30 29 31 34 33 33 33 32 35 33 32 35 34 32 36 31 34 33 29 30 31 38 39 36 44 44 43 39 38 38 38 38 37 36
21 19 25 30 31 34 34 33 36 33 29 26 25 25 28 29 28 28 28 28 30 29 28 31 29 30 29 29 27 28 30 34 32 33 35 38 37 34 36 39 40 39 40
10 14 16 18 22 26 29 29 31 32 33 33 30 27 25 24 23 25 27 27 24 23 23 23 25 22 27 29 26 29 27 28 24 26 26 29 30 32 33 34 34 35 34
8 9 8 12 13 14 18 21 23 26 28 27 30 30 30 30 27 25 25 25 22 21 23 21 22 24 25 25 24 26 27 27 26 21 21 23 21 25 27 28 29 30 29
5 7 5 2 4 8 10 11 13 16 18 19 21 24 26 25 26 26 27 28 27 28 28 26 25 25 26 25 24 24 22 23 25 23 21 17 16 17 19 18 21 22 24
2 2 4 3 3 5 3 4 7 7 10 11 13 14 16 18 20 22 25 26 27 27 25 24 26 24 24 23 25 27 27 27 24 22 20 18 17 16 17 16 12 14 17
4 4 6 5 6 4 4 7 7 5 3 4 7 9 10 10 10 11 13 15 19 21 24 25 25 26 24 22 24 25 27 25 24 27 25 20 21 17 17 15 13 13 12
10 5 3 11 12 10 10 12 13 14 10 5 4 7 8 7 9 11 9 12 14 16 17 18 21 23 25 25 23 25 25 25 25 25 23 23 23 25 22 20 21 19 19
20 14 8 7 11 15 16 16 18 18 15 16 14 13 15 13 16 15 12 14 15 18 21 23 23 21 21 23 24 23 23 23 23 24 25 25 23 22 20 18 23 23 25
27 24 20 15 13 20 25 22 21 22 22 25 24 20 20 19 19 18 20 21 21 21 21 24 26 32 30 30 26 24 24 21 22 24 25 23 25 26 20 21 18 20 20
37 36 33 27 26 23 33 31 34 30 30 28 26 25 27 29 26 25 26 25 25 28 28 30 31 34 39 39 39 31 29 28 31 30 30 29 27 27 28 27 26 23 22
44 44 43 43 44 35 38 45 39 37 35 35 36 33 32 33 29 35 33 40 36 37 36 38 41 40 42 44 45 41 39 40 40 38 38 36 33 32 32 32 35 31 27
48 52 51 51 55 56 50 50 52 40 40 41 41 41 37 36 41 42 43 49 51 48 45 43 45 44 47 48 50 49 49 46 46 48 44 40 38 40 39 39 38 32 32
62 58 63 61 57 58 61 58 57 54 52 51 50 49 50 48 48 48 52 55 55 54 53 50 50 51 52 54 53 53 58 55 56 55 51 49 41 40 46 44 44 40 37

GFSMA_250_spd_120.txt.gz
Wind_Speed
16 15 14 20 22 23 26 27 27 27 29 28 27 24 24 22 21 21 21 20 19 24 20 30 30 31 28 25 23 22 21 22 25 23 20 22 24 28 36 37 38 40 41
22 19 18 18 23 22 21 23 23 25 27 27 26 23 21 21 25 32 33 31 22 18 25 28 37 34 31 30 29 25 26 27 24 23 22 25 27 31 34 38 39 42 47
20 18 19 19 19 20 23 22 24 24 26 23 22 22 25 29 32 31 30 31 26 22 27 29 32 30 29 29 26 28 27 25 24 23 24 26 28 32 34 37 39 42 50
33 23 18 21 22 20 21 23 25 25 25 29 31 34 35 33 32 33 30 33 37 27 26 29 27 29 32 30 28 28 28 27 24 23 24 27 29 34 35 36 38 39 45
50 42 37 35 33 31 34 38 37 37 39 39 42 37 34 31 34 37 34 33 29 36 35 34 33 33 32 31 28 29 31 31 29 22 22 25 28 32 33 40 39 40 40
58 63 62 57 49 46 54 53 54 55 49 42 36 31 28 31 31 31 33 36 36 34 35 37 37 38 36 32 30 29 31 33 33 30 28 26 28 31 33 37 41 41 43
52 55 55 53 56 58 53 45 49 46 39 36 40 36 34 35 36 37 34 27 37 38 39 41 44 45 40 36 34 31 30 32 34 34 34 36 32 32 32 32 37 43 43
39 41 41 48 49 47 48 44 44 41 39 36 34 28 28 27 31 33 32 29 29 36 39 42 48 52 51 45 39 37 35 33 31 32 34 34 38 36 34 32 32 36 40
32 37 38 37 39 39 41 39 36 35 33 31 28 28 28 31 30 30 28 27 29 33 36 39 45 48 51 53 49 45 39 38 34 32 32 34 35 36 37 36 34 31 32
41 39 34 34 32 33 33 32 29 29 27 28 29 27 28 32 35 33 32 33 31 36 34 37 40 44 47 46 46 50 54 46 41 36 35 36 36 34 33 34 32 31 32
36 36 40 38 36 31 26 22 26 28 29 28 29 29 29 32 37 38 36 37 39 36 38 38 34 37 41 44 43 46 45 46 46 45 44 49 46 43 39 37 38 36 33
37 39 39 36 34 34 34 37 32 30 32 33 35 35 36 36 35 33 32 32 35 33 34 37 33 33 34 36 39 39 41 43 42 42 43 47 46 45 45 44 41 41 40
33 34 37 39 38 39 37 33 31 30 29 29 28 28 28 28 28 30 29 29 31 30 30 34 35 30 31 34 34 33 35 35 38 37 40 43 43 43 43 44 43 42 43
24 27 28 31 35 35 36 37 37 33 27 23 24 25 26 27 28 27 27 27 27 27 29 28 29 31 29 31 31 31 29 28 30 31 35 36 36 36 36 37 38 40 41
13 16 19 21 25 28 28 29 30 32 32 32 33 31 33 34 34 33 32 31 30 29 28 30 30 28 29 30 31 32 29 26 24 25 26 28 28 27 29 31 32 34 35
11 8 11 12 12 13 17 20 22 22 24 25 25 25 26 28 29 31 32 32 32 34 34 33 32 32 32 32 32 33 31 30 26 24 20 21 20 20 21 23 24 25 27
8 8 5 2 5 6 7 11 11 13 13 14 16 16 18 20 22 23 25 28 29 29 30 30 30 29 30 31 30 31 31 31 32 30 28 23 18 16 16 15 17 20 22
8 6 4 2 2 2 2 3 4 5 7 7 9 9 10 10 12 12 12 15 17 19 23 25 23 25 26 27 27 28 27 27 27 27 27 27 28 26 25 22 17 18 18
9 7 5 4 2 4 4 5 7 8 11 10 7 7 7 8 10 11 9 13 16 18 20 21 18 21 23 27 25 22 22 21 23 22 22 22 23 24 24 23 21 19 21
9 9 11 10 7 3 7 10 11 12 12 12 12 14 13 11 10 12 12 15 17 20 20 21 22 22 24 29 32 34 26 21 21 24 22 21 22 23 22 21 22 20 14
23 14 13 11 9 7 3 5 8 11 12 13 15 20 21 18 18 14 15 16 16 17 21 21 21 24 24 25 30 31 32 31 26 25 29 28 26 24 24 24 22 21 22
28 28 24 22 20 17 13 12 14 18 19 21 21 20 22 21 20 20 23 25 24 19 22 28 23 28 30 30 30 32 34 34 29 30 31 24 28 28 30 31 31 26 23
34 37 36 28 29 28 29 28 24 20 22 28 30 29 26 23 24 24 27 25 27 25 30 33 36 31 30 31 28 32 36 36 35 32 33 34 36 36 33 30 27 28 30
40 35 30 36 32 35 39 39 41 42 39 37 38 36 32 31 31 31 31 31 33 32 34 36 39 38 37 35 36 39 43 39 38 35 34 35 38 36 37 36 33 33 32
45 47 43 42 40 39 43 46 47 50 51 50 45 46 43 41 42 42 41 40 43 42 42 42 45 43 40 39 43 44 46 46 47 48 39 34 35 42 43 42 43 41 41
54 52 50 51 52 51 52 53 53 58 63 57 56 56 54 51 48 48 45 47 50 51 47 46 50 50 49 49 54 55 52 52 47 50 49 49 47 49 46 47 50 46 46

GFSMA_250_spd_123.txt.gz
Wind_Speed
16 21 24 31 36 37 36 36 34 34 32 27 23 20 27 30 26 20 14 15 17 28 25 30 26 26 27 27 29 28 24 23 22 22 24 29 30 30 31 36 40 40 44
20 22 27 29 30 30 31 33 34 30 28 24 33 39 33 32 28 20 17 18 18 24 23 22 24 26 26 26 26 24 24 25 24 25 28 33 33 30 33 37 41 44 46
22 29 29 31 30 30 31 30 28 27 30 39 36 34 30 28 28 34 31 27 23 22 20 24 24 26 26 27 27 24 23 24 24 27 28 31 34 36 36 38 41 46 49
29 31 32 31 30 30 27 27 34 40 41 39 42 37 37 36 33 30 31 29 31 30 27 26 26 26 29 30 30 28 23 23 23 26 27 29 34 39 38 41 42 46 52
40 38 37 33 32 30 35 45 46 42 47 42 38 33 32 33 35 36 36 35 32 32 31 31 29 28 29 31 33 33 32 32 28 25 28 29 33 40 42 42 41 45 47
50 50 45 43 45 47 47 46 45 44 37 37 34 35 35 35 35 35 38 39 41 41 40 35 34 31 30 30 32 34 35 35 36 34 32 32 33 39 42 43 44 44 46
55 55 53 51 49 46 44 42 39 39 37 36 32 32 32 33 32 34 35 39 44 48 49 45 39 36 37 34 32 34 34 35 35 37 37 38 37 37 39 40 43 42 44
45 47 49 48 51 49 45 40 38 33 31 28 30 29 28 30 32 32 33 35 39 45 45 46 49 48 42 40 40 38 39 40 39 38 39 38 39 40 38 36 35 37 38
39 37 41 41 42 39 37 34 31 29 29 32 33 34 35 33 34 35 35 34 38 43 47 45 45 46 48 49 49 50 49 50 48 47 46 46 47 45 41 38 35 32 32
32 32 33 34 31 31 31 30 26 26 28 33 34 37 37 37 38 38 39 40 37 39 39 42 42 43 44 45 46 47 48 48 47 48 48 48 51 50 48 49 48 33 28
29 27 25 27 26 25 24 24 25 25 31 33 36 34 34 31 31 33 37 37 39 34 38 39 39 39 39 40 42 42 42 44 46 47 49 50 51 51 52 54 54 51 40
35 30 30 26 21 27 28 29 32 32 33 32 30 28 27 28 28 30 33 34 35 35 35 32 36 35 35 34 36 36 37 39 39 41 44 44 46 46 47 49 49 49 47
35 38 36 33 32 30 30 29 29 28 27 25 24 24 26 27 28 29 31 34 35 36 38 39 35 33 32 32 31 31 31 33 34 35 36 37 39 39 40 41 41 42 43
32 32 28 32 34 31 29 27 25 24 22 25 28 33 34 35 34 36 36 34 34 35 37 38 39 39 35 33 31 27 26 27 29 28 29 30 31 32 34 35 35 34 36
26 27 27 25 26 29 29 30 30 30 29 29 28 31 31 32 34 34 34 34 34 33 35 36 38 38 38 36 36 34 29 28 24 23 22 23 23 24 26 28 29 30 32
10 14 16 15 17 20 20 20 21 20 19 19 22 23 23 24 25 26 28 30 29 29 30 31 32 32 32 32 31 31 31 31 30 32 30 26 22 21 20 21 26 28 30
8 7 6 6 9 12 14 12 10 11 12 12 11 11 12 13 15 17 20 20 22 23 21 25 28 28 31 28 25 24 27 27 28 28 27 28 29 28 28 26 23 24 25
11 9 6 6 6 4 4 5 4 3 5 4 4 6 7 8 9 8 10 13 13 16 16 20 20 23 26 30 30 26 23 21 22 24 22 24 25 25 25 25 23 23 22
12 9 8 7 7 6 4 3 3 2 4 6 3 4 6 3 2 6 6 6 9 11 13 13 15 16 19 23 22 25 26 28 28 28 28 29 29 29 27 27 26 24 22
16 14 14 14 11 8 6 4 6 5 7 8 8 8 11 12 11 11 11 10 10 8 6 9 13 14 19 21 22 19 22 26 27 24 24 24 26 27 28 28 29 25 25
16 15 17 20 19 16 13 9 6 5 8 8 9 11 12 14 13 15 16 17 17 17 15 13 18 18 20 17 17 17 21 24 26 25 27 29 28 27 25 26 29 26 27
22 23 21 23 24 21 20 17 17 18 15 13 9 11 14 19 18 18 16 16 20 22 21 17 21 22 25 24 19 15 17 22 26 30 30 28 29 29 30 28 28 28 28
24 24 27 28 27 37 34 33 25 24 24 23 20 25 25 21 22 28 27 25 23 25 23 28 25 27 26 27 24 18 16 19 25 29 31 29 27 25 24 23 30 32 31
36 34 37 37 34 34 37 38 38 38 37 36 36 37 34 30 35 27 35 38 35 35 34 35 35 36 36 35 32 30 32 35 35 38 37 37 37 34 31 29 24 26 26
44 44 41 41 42 43 46 45 42 42 42 42 45 46 44 45 43 39 40 38 42 43 41 37 39 44 45 45 41 41 47 44 43 45 44 49 45 49 43 42 40 38 37
54 50 48 48 49 50 48 59 52 49 49 52 49 48 48 48 54 56 54 43 45 49 49 50 49 52 50 49 50 48 48 52 53 50 54 59 59 51 50 48 47 49 45